<?xml version="1.0" encoding="UTF-8" standalone="no" ?><gpx xmlns="http://www.topografix.com/GPX/1/1" xmlns:gpxx="http://www.garmin.com/xmlschemas/GpxExtensions/v3" xmlns:wptx1="http://www.garmin.com/xmlschemas/WaypointExtension/v1" xmlns:gpxtpx="http://www.garmin.com/xmlschemas/TrackPointExtension/v1" creator="GuideVTT.com" version="1.1" xmlns:xsi="http://www.w3.org/2001/XMLSchema-instance" xsi:schemaLocation="http://www.topografix.com/GPX/1/1 http://www.topografix.com/GPX/1/1/gpx.xsd http://www.garmin.com/xmlschemas/GpxExtensions/v3 http://www8.garmin.com/xmlschemas/GpxExtensionsv3.xsd http://www.garmin.com/xmlschemas/WaypointExtension/v1 http://www8.garmin.com/xmlschemas/WaypointExtensionv1.xsd http://www.garmin.com/xmlschemas/TrackPointExtension/v1 http://www.garmin.com/xmlschemas/TrackPointExtensionv1.xsd">
<metadata><link href="http://www.garmin.com"><text>Garmin International</text></link><time>2013-06-22T15:13:50Z</time></metadata>
<trk><name>aaaaaa23.gpx</name><extensions><gpxx:TrackExtension><gpxx:DisplayColor>Cyan</gpxx:DisplayColor></gpxx:TrackExtension></extensions><trkseg>
<trkpt lat="7535.686" lon="740.144666666667"><ele></ele><time>2014-6-17T15:57:34Z</time></trkpt>
<trkpt lat="7535.68566666667" lon="740.147"><ele></ele><time>2014-6-17T15:57:37Z</time></trkpt>
<trkpt lat="7535.68516666667" lon="740.151666666667"><ele></ele><time>2014-6-17T15:57:40Z</time></trkpt>
<trkpt lat="7535.685" lon="740.145166666667"><ele></ele><time>2014-6-17T15:57:43Z</time></trkpt>
<trkpt lat="7535.68483333333" lon="740.1435"><ele></ele><time>2014-6-17T15:57:46Z</time></trkpt>
<trkpt lat="7535.68466666667" lon="740.139333333333"><ele></ele><time>2014-6-17T15:57:49Z</time></trkpt>
<trkpt lat="7535.68416666667" lon="740.143166666667"><ele></ele><time>2014-6-17T15:57:52Z</time></trkpt>
<trkpt lat="7535.68416666667" lon="740.145"><ele></ele><time>2014-6-17T15:57:55Z</time></trkpt>
<trkpt lat="7535.68083333333" lon="740.142333333333"><ele></ele><time>2014-6-17T15:57:58Z</time></trkpt>
<trkpt lat="7535.67866666667" lon="740.147333333333"><ele></ele><time>2014-6-17T15:58:1Z</time></trkpt>
<trkpt lat="7535.6755" lon="740.1475"><ele></ele><time>2014-6-17T15:58:4Z</time></trkpt>
<trkpt lat="7535.6735" lon="740.147333333333"><ele></ele><time>2014-6-17T15:58:7Z</time></trkpt>
<trkpt lat="7535.66966666667" lon="740.142166666667"><ele></ele><time>2014-6-17T15:58:10Z</time></trkpt>
<trkpt lat="7535.665" lon="740.141"><ele></ele><time>2014-6-17T15:58:13Z</time></trkpt>
<trkpt lat="7535.6605" lon="740.145333333333"><ele></ele><time>2014-6-17T15:58:16Z</time></trkpt>
<trkpt lat="7535.6585" lon="740.156666666667"><ele></ele><time>2014-6-17T15:58:19Z</time></trkpt>
<trkpt lat="7535.65333333333" lon="740.164333333333"><ele></ele><time>2014-6-17T15:58:22Z</time></trkpt>
<trkpt lat="7535.65083333333" lon="740.163"><ele></ele><time>2014-6-17T15:58:25Z</time></trkpt>
<trkpt lat="7535.64683333333" lon="740.1615"><ele></ele><time>2014-6-17T15:58:28Z</time></trkpt>
<trkpt lat="7535.6445" lon="740.168333333333"><ele></ele><time>2014-6-17T15:58:31Z</time></trkpt>
<trkpt lat="7535.63733333333" lon="740.1715"><ele></ele><time>2014-6-17T15:58:34Z</time></trkpt>
<trkpt lat="7535.63283333333" lon="740.171833333333"><ele></ele><time>2014-6-17T15:58:37Z</time></trkpt>
<trkpt lat="7535.62466666667" lon="740.168333333333"><ele></ele><time>2014-6-17T15:58:40Z</time></trkpt>
<trkpt lat="7535.632" lon="740.1975"><ele></ele><time>2014-6-17T15:58:43Z</time></trkpt>
<trkpt lat="7535.63616666667" lon="740.2015"><ele></ele><time>2014-6-17T15:58:46Z</time></trkpt>
<trkpt lat="7535.6425" lon="740.199"><ele></ele><time>2014-6-17T15:58:49Z</time></trkpt>
<trkpt lat="7535.6485" lon="740.193333333333"><ele></ele><time>2014-6-17T15:58:52Z</time></trkpt>
<trkpt lat="7535.65616666667" lon="740.193333333333"><ele></ele><time>2014-6-17T15:58:55Z</time></trkpt>
<trkpt lat="7535.66166666667" lon="740.194"><ele></ele><time>2014-6-17T15:58:58Z</time></trkpt>
<trkpt lat="7535.66033333333" lon="740.191166666667"><ele></ele><time>2014-6-17T15:59:1Z</time></trkpt>
<trkpt lat="7535.661" lon="740.1895"><ele></ele><time>2014-6-17T15:59:4Z</time></trkpt>
<trkpt lat="7535.665" lon="740.197333333333"><ele></ele><time>2014-6-17T15:59:7Z</time></trkpt>
<trkpt lat="7535.66716666667" lon="740.206166666667"><ele></ele><time>2014-6-17T15:59:10Z</time></trkpt>
<trkpt lat="7535.66" lon="740.215166666667"><ele></ele><time>2014-6-17T15:59:13Z</time></trkpt>
<trkpt lat="7535.65316666667" lon="740.2135"><ele></ele><time>2014-6-17T15:59:16Z</time></trkpt>
<trkpt lat="7535.64933333333" lon="740.226833333333"><ele></ele><time>2014-6-17T15:59:19Z</time></trkpt>
<trkpt lat="7535.6455" lon="740.236166666667"><ele></ele><time>2014-6-17T15:59:22Z</time></trkpt>
<trkpt lat="7535.64233333333" lon="740.237166666667"><ele></ele><time>2014-6-17T15:59:25Z</time></trkpt>
<trkpt lat="7535.63666666667" lon="740.2405"><ele></ele><time>2014-6-17T15:59:28Z</time></trkpt>
<trkpt lat="7535.63083333333" lon="740.2415"><ele></ele><time>2014-6-17T15:59:31Z</time></trkpt>
<trkpt lat="7535.62733333333" lon="740.240666666667"><ele></ele><time>2014-6-17T15:59:34Z</time></trkpt>
<trkpt lat="7535.62533333333" lon="740.232666666667"><ele></ele><time>2014-6-17T15:59:37Z</time></trkpt>
<trkpt lat="7535.62116666667" lon="740.2235"><ele></ele><time>2014-6-17T15:59:40Z</time></trkpt>
<trkpt lat="7535.62" lon="740.213833333333"><ele></ele><time>2014-6-17T15:59:43Z</time></trkpt>
<trkpt lat="7535.617" lon="740.210333333333"><ele></ele><time>2014-6-17T15:59:46Z</time></trkpt>
<trkpt lat="7535.61466666667" lon="740.2005"><ele></ele><time>2014-6-17T15:59:49Z</time></trkpt>
<trkpt lat="7535.61266666667" lon="740.197666666667"><ele></ele><time>2014-6-17T15:59:52Z</time></trkpt>
<trkpt lat="7535.61216666667" lon="740.193333333333"><ele></ele><time>2014-6-17T15:59:55Z</time></trkpt>
<trkpt lat="7535.6085" lon="740.186333333333"><ele></ele><time>2014-6-17T15:59:58Z</time></trkpt>
<trkpt lat="7535.60783333333" lon="740.180833333333"><ele></ele><time>2014-6-17T16:0:1Z</time></trkpt>
<trkpt lat="7535.607" lon="740.177"><ele></ele><time>2014-6-17T16:0:4Z</time></trkpt>
<trkpt lat="7535.6055" lon="740.169166666667"><ele></ele><time>2014-6-17T16:0:7Z</time></trkpt>
<trkpt lat="7535.60566666667" lon="740.1615"><ele></ele><time>2014-6-17T16:0:10Z</time></trkpt>
<trkpt lat="7535.60316666667" lon="740.1565"><ele></ele><time>2014-6-17T16:0:13Z</time></trkpt>
<trkpt lat="7535.60233333333" lon="740.151833333333"><ele></ele><time>2014-6-17T16:0:16Z</time></trkpt>
<trkpt lat="7535.59766666667" lon="740.146833333333"><ele></ele><time>2014-6-17T16:0:19Z</time></trkpt>
<trkpt lat="7535.59333333333" lon="740.139666666667"><ele></ele><time>2014-6-17T16:0:22Z</time></trkpt>
<trkpt lat="7535.59083333333" lon="740.1415"><ele></ele><time>2014-6-17T16:0:25Z</time></trkpt>
<trkpt lat="7535.589" lon="740.127666666667"><ele></ele><time>2014-6-17T16:0:28Z</time></trkpt>
<trkpt lat="7535.58583333333" lon="740.126333333333"><ele></ele><time>2014-6-17T16:0:31Z</time></trkpt>
<trkpt lat="7535.58383333333" lon="740.127833333333"><ele></ele><time>2014-6-17T16:0:34Z</time></trkpt>
<trkpt lat="7535.5805" lon="740.125833333333"><ele></ele><time>2014-6-17T16:0:37Z</time></trkpt>
<trkpt lat="7535.57783333333" lon="740.120833333333"><ele></ele><time>2014-6-17T16:0:40Z</time></trkpt>
<trkpt lat="7535.695" lon="740.092666666667"><ele></ele><time>2014-6-17T16:0:43Z</time></trkpt>
<trkpt lat="7535.69433333333" lon="740.089166666667"><ele></ele><time>2014-6-17T16:0:46Z</time></trkpt>
<trkpt lat="7535.69266666667" lon="740.084333333333"><ele></ele><time>2014-6-17T16:0:49Z</time></trkpt>
<trkpt lat="7535.692" lon="740.082"><ele></ele><time>2014-6-17T16:0:52Z</time></trkpt>
<trkpt lat="7535.68133333333" lon="740.076666666667"><ele></ele><time>2014-6-17T16:0:55Z</time></trkpt>
<trkpt lat="7535.68233333333" lon="740.0745"><ele></ele><time>2014-6-17T16:0:58Z</time></trkpt>
<trkpt lat="7535.68183333333" lon="740.070166666667"><ele></ele><time>2014-6-17T16:1:1Z</time></trkpt>
<trkpt lat="7535.67733333333" lon="740.066"><ele></ele><time>2014-6-17T16:1:4Z</time></trkpt>
<trkpt lat="7535.673" lon="740.062833333333"><ele></ele><time>2014-6-17T16:1:7Z</time></trkpt>
<trkpt lat="7535.6705" lon="740.059"><ele></ele><time>2014-6-17T16:1:10Z</time></trkpt>
<trkpt lat="7535.66883333333" lon="740.055"><ele></ele><time>2014-6-17T16:1:13Z</time></trkpt>
<trkpt lat="7535.66683333333" lon="740.051833333333"><ele></ele><time>2014-6-17T16:1:16Z</time></trkpt>
<trkpt lat="7535.66483333333" lon="740.050333333333"><ele></ele><time>2014-6-17T16:1:19Z</time></trkpt>
<trkpt lat="7535.66266666667" lon="740.049833333333"><ele></ele><time>2014-6-17T16:1:22Z</time></trkpt>
<trkpt lat="7535.65983333333" lon="740.050166666667"><ele></ele><time>2014-6-17T16:1:25Z</time></trkpt>
<trkpt lat="7535.65666666667" lon="740.051"><ele></ele><time>2014-6-17T16:1:28Z</time></trkpt>
<trkpt lat="7535.65283333333" lon="740.051833333333"><ele></ele><time>2014-6-17T16:1:31Z</time></trkpt>
<trkpt lat="7535.6495" lon="740.0535"><ele></ele><time>2014-6-17T16:1:34Z</time></trkpt>
<trkpt lat="7535.64633333333" lon="740.056"><ele></ele><time>2014-6-17T16:1:37Z</time></trkpt>
<trkpt lat="7535.64333333333" lon="740.058166666667"><ele></ele><time>2014-6-17T16:1:40Z</time></trkpt>
<trkpt lat="7535.64066666667" lon="740.0605"><ele></ele><time>2014-6-17T16:1:43Z</time></trkpt>
<trkpt lat="7535.63666666667" lon="740.061333333333"><ele></ele><time>2014-6-17T16:1:46Z</time></trkpt>
<trkpt lat="7535.63216666667" lon="740.062666666667"><ele></ele><time>2014-6-17T16:1:49Z</time></trkpt>
<trkpt lat="7535.62733333333" lon="740.063833333333"><ele></ele><time>2014-6-17T16:1:52Z</time></trkpt>
<trkpt lat="7535.62366666667" lon="740.065166666667"><ele></ele><time>2014-6-17T16:1:55Z</time></trkpt>
<trkpt lat="7535.61983333333" lon="740.0665"><ele></ele><time>2014-6-17T16:1:58Z</time></trkpt>
<trkpt lat="7535.617" lon="740.069666666667"><ele></ele><time>2014-6-17T16:2:1Z</time></trkpt>
<trkpt lat="7535.61366666667" lon="740.072666666667"><ele></ele><time>2014-6-17T16:2:4Z</time></trkpt>
<trkpt lat="7535.61016666667" lon="740.075"><ele></ele><time>2014-6-17T16:2:7Z</time></trkpt>
<trkpt lat="7535.60716666667" lon="740.077833333333"><ele></ele><time>2014-6-17T16:2:10Z</time></trkpt>
<trkpt lat="7535.604" lon="740.081166666667"><ele></ele><time>2014-6-17T16:2:13Z</time></trkpt>
<trkpt lat="7535.6005" lon="740.085"><ele></ele><time>2014-6-17T16:2:16Z</time></trkpt>
<trkpt lat="7535.59716666667" lon="740.089"><ele></ele><time>2014-6-17T16:2:19Z</time></trkpt>
<trkpt lat="7535.59383333333" lon="740.092833333333"><ele></ele><time>2014-6-17T16:2:22Z</time></trkpt>
<trkpt lat="7535.5905" lon="740.096833333333"><ele></ele><time>2014-6-17T16:2:25Z</time></trkpt>
<trkpt lat="7535.5875" lon="740.1015"><ele></ele><time>2014-6-17T16:2:28Z</time></trkpt>
<trkpt lat="7535.58416666667" lon="740.106"><ele></ele><time>2014-6-17T16:2:31Z</time></trkpt>
<trkpt lat="7535.58083333333" lon="740.108666666667"><ele></ele><time>2014-6-17T16:2:34Z</time></trkpt>
<trkpt lat="7535.57683333333" lon="740.111166666667"><ele></ele><time>2014-6-17T16:2:37Z</time></trkpt>
<trkpt lat="7535.57233333333" lon="740.113166666667"><ele></ele><time>2014-6-17T16:2:40Z</time></trkpt>
<trkpt lat="7535.568" lon="740.114833333333"><ele></ele><time>2014-6-17T16:2:43Z</time></trkpt>
<trkpt lat="7535.56383333333" lon="740.117"><ele></ele><time>2014-6-17T16:2:46Z</time></trkpt>
<trkpt lat="7535.5605" lon="740.118666666667"><ele></ele><time>2014-6-17T16:2:49Z</time></trkpt>
<trkpt lat="7535.55316666667" lon="740.121666666667"><ele></ele><time>2014-6-17T16:2:52Z</time></trkpt>
<trkpt lat="7535.55" lon="740.121166666667"><ele></ele><time>2014-6-17T16:2:55Z</time></trkpt>
<trkpt lat="7535.54616666667" lon="740.119"><ele></ele><time>2014-6-17T16:2:58Z</time></trkpt>
<trkpt lat="7535.54283333333" lon="740.116"><ele></ele><time>2014-6-17T16:3:1Z</time></trkpt>
<trkpt lat="7535.539" lon="740.112333333333"><ele></ele><time>2014-6-17T16:3:4Z</time></trkpt>
<trkpt lat="7535.53466666667" lon="740.1085"><ele></ele><time>2014-6-17T16:3:7Z</time></trkpt>
<trkpt lat="7535.53083333333" lon="740.104666666667"><ele></ele><time>2014-6-17T16:3:10Z</time></trkpt>
<trkpt lat="7535.527" lon="740.100666666667"><ele></ele><time>2014-6-17T16:3:13Z</time></trkpt>
<trkpt lat="7535.52466666667" lon="740.096333333333"><ele></ele><time>2014-6-17T16:3:16Z</time></trkpt>
<trkpt lat="7535.52066666667" lon="740.0925"><ele></ele><time>2014-6-17T16:3:19Z</time></trkpt>
<trkpt lat="7535.5175" lon="740.0885"><ele></ele><time>2014-6-17T16:3:22Z</time></trkpt>
<trkpt lat="7535.5135" lon="740.085"><ele></ele><time>2014-6-17T16:3:25Z</time></trkpt>
<trkpt lat="7535.50916666667" lon="740.080833333333"><ele></ele><time>2014-6-17T16:3:28Z</time></trkpt>
<trkpt lat="7535.505" lon="740.0775"><ele></ele><time>2014-6-17T16:3:31Z</time></trkpt>
<trkpt lat="7535.50033333333" lon="740.073333333333"><ele></ele><time>2014-6-17T16:3:34Z</time></trkpt>
<trkpt lat="7535.49583333333" lon="740.069166666667"><ele></ele><time>2014-6-17T16:3:37Z</time></trkpt>
<trkpt lat="7535.49033333333" lon="740.065166666667"><ele></ele><time>2014-6-17T16:3:40Z</time></trkpt>
<trkpt lat="7535.48533333333" lon="740.0615"><ele></ele><time>2014-6-17T16:3:43Z</time></trkpt>
<trkpt lat="7535.48133333333" lon="740.057666666667"><ele></ele><time>2014-6-17T16:3:46Z</time></trkpt>
<trkpt lat="7535.47733333333" lon="740.054166666667"><ele></ele><time>2014-6-17T16:3:49Z</time></trkpt>
<trkpt lat="7535.47283333333" lon="740.05"><ele></ele><time>2014-6-17T16:3:52Z</time></trkpt>
<trkpt lat="7535.46816666667" lon="740.046166666667"><ele></ele><time>2014-6-17T16:3:55Z</time></trkpt>
<trkpt lat="7535.46333333333" lon="740.042833333333"><ele></ele><time>2014-6-17T16:3:58Z</time></trkpt>
<trkpt lat="7535.4595" lon="740.039333333333"><ele></ele><time>2014-6-17T16:4:1Z</time></trkpt>
<trkpt lat="7535.45566666667" lon="740.035833333333"><ele></ele><time>2014-6-17T16:4:4Z</time></trkpt>
<trkpt lat="7535.45216666667" lon="740.032666666667"><ele></ele><time>2014-6-17T16:4:7Z</time></trkpt>
<trkpt lat="7535.448" lon="740.0295"><ele></ele><time>2014-6-17T16:4:10Z</time></trkpt>
<trkpt lat="7535.444" lon="740.0265"><ele></ele><time>2014-6-17T16:4:13Z</time></trkpt>
<trkpt lat="7535.43966666667" lon="740.023"><ele></ele><time>2014-6-17T16:4:16Z</time></trkpt>
<trkpt lat="7535.4355" lon="740.019833333333"><ele></ele><time>2014-6-17T16:4:19Z</time></trkpt>
<trkpt lat="7535.432" lon="740.016"><ele></ele><time>2014-6-17T16:4:22Z</time></trkpt>
<trkpt lat="7535.4275" lon="740.012333333333"><ele></ele><time>2014-6-17T16:4:25Z</time></trkpt>
<trkpt lat="7535.42366666667" lon="740.007833333333"><ele></ele><time>2014-6-17T16:4:28Z</time></trkpt>
<trkpt lat="7535.42066666667" lon="740.003"><ele></ele><time>2014-6-17T16:4:31Z</time></trkpt>
<trkpt lat="7535.41633333333" lon="739.999"><ele></ele><time>2014-6-17T16:4:34Z</time></trkpt>
<trkpt lat="7535.4125" lon="739.995"><ele></ele><time>2014-6-17T16:4:37Z</time></trkpt>
<trkpt lat="7535.40866666667" lon="739.990333333333"><ele></ele><time>2014-6-17T16:4:40Z</time></trkpt>
<trkpt lat="7535.4055" lon="739.985666666667"><ele></ele><time>2014-6-17T16:4:43Z</time></trkpt>
<trkpt lat="7535.402" lon="739.9815"><ele></ele><time>2014-6-17T16:4:46Z</time></trkpt>
<trkpt lat="7535.398" lon="739.9775"><ele></ele><time>2014-6-17T16:4:49Z</time></trkpt>
<trkpt lat="7535.39433333333" lon="739.973833333333"><ele></ele><time>2014-6-17T16:4:52Z</time></trkpt>
<trkpt lat="7535.39083333333" lon="739.970666666667"><ele></ele><time>2014-6-17T16:4:55Z</time></trkpt>
<trkpt lat="7535.38683333333" lon="739.967333333333"><ele></ele><time>2014-6-17T16:4:58Z</time></trkpt>
<trkpt lat="7535.38266666667" lon="739.964166666667"><ele></ele><time>2014-6-17T16:5:1Z</time></trkpt>
<trkpt lat="7535.3805" lon="739.960333333333"><ele></ele><time>2014-6-17T16:5:4Z</time></trkpt>
<trkpt lat="7535.37616666667" lon="739.957666666667"><ele></ele><time>2014-6-17T16:5:7Z</time></trkpt>
<trkpt lat="7535.372" lon="739.955166666667"><ele></ele><time>2014-6-17T16:5:10Z</time></trkpt>
<trkpt lat="7535.36833333333" lon="739.952833333333"><ele></ele><time>2014-6-17T16:5:13Z</time></trkpt>
<trkpt lat="7535.3645" lon="739.9495"><ele></ele><time>2014-6-17T16:5:16Z</time></trkpt>
<trkpt lat="7535.36033333333" lon="739.947"><ele></ele><time>2014-6-17T16:5:19Z</time></trkpt>
<trkpt lat="7535.35633333333" lon="739.944166666667"><ele></ele><time>2014-6-17T16:5:22Z</time></trkpt>
<trkpt lat="7535.3525" lon="739.940833333333"><ele></ele><time>2014-6-17T16:5:25Z</time></trkpt>
<trkpt lat="7535.34933333333" lon="739.937833333333"><ele></ele><time>2014-6-17T16:5:28Z</time></trkpt>
<trkpt lat="7535.34583333333" lon="739.935666666667"><ele></ele><time>2014-6-17T16:5:31Z</time></trkpt>
<trkpt lat="7535.34366666667" lon="739.933666666667"><ele></ele><time>2014-6-17T16:5:34Z</time></trkpt>
<trkpt lat="7535.34283333333" lon="739.933"><ele></ele><time>2014-6-17T16:5:37Z</time></trkpt>
<trkpt lat="7535.34116666667" lon="739.933166666667"><ele></ele><time>2014-6-17T16:5:40Z</time></trkpt>
<trkpt lat="7535.33966666667" lon="739.933833333333"><ele></ele><time>2014-6-17T16:5:43Z</time></trkpt>
<trkpt lat="7535.33866666667" lon="739.933833333333"><ele></ele><time>2014-6-17T16:5:46Z</time></trkpt>
<trkpt lat="7535.33866666667" lon="739.933833333333"><ele></ele><time>2014-6-17T16:5:49Z</time></trkpt>
<trkpt lat="7535.33866666667" lon="739.933833333333"><ele></ele><time>2014-6-17T16:5:52Z</time></trkpt>
<trkpt lat="7535.33866666667" lon="739.933833333333"><ele></ele><time>2014-6-17T16:5:55Z</time></trkpt>
<trkpt lat="7535.33866666667" lon="739.933833333333"><ele></ele><time>2014-6-17T16:5:58Z</time></trkpt>
<trkpt lat="7535.33866666667" lon="739.933833333333"><ele></ele><time>2014-6-17T16:6:1Z</time></trkpt>
<trkpt lat="7535.33866666667" lon="739.933833333333"><ele></ele><time>2014-6-17T16:6:4Z</time></trkpt>
<trkpt lat="7535.33866666667" lon="739.933833333333"><ele></ele><time>2014-6-17T16:6:7Z</time></trkpt>
<trkpt lat="7535.33433333333" lon="739.93"><ele></ele><time>2014-6-17T16:6:10Z</time></trkpt>
<trkpt lat="7535.33433333333" lon="739.93"><ele></ele><time>2014-6-17T16:6:13Z</time></trkpt>
<trkpt lat="7535.33433333333" lon="739.93"><ele></ele><time>2014-6-17T16:6:16Z</time></trkpt>
<trkpt lat="7535.33433333333" lon="739.93"><ele></ele><time>2014-6-17T16:6:19Z</time></trkpt>
<trkpt lat="7535.33433333333" lon="739.93"><ele></ele><time>2014-6-17T16:6:22Z</time></trkpt>
<trkpt lat="7535.33433333333" lon="739.93"><ele></ele><time>2014-6-17T16:6:25Z</time></trkpt>
<trkpt lat="7535.33433333333" lon="739.93"><ele></ele><time>2014-6-17T16:6:28Z</time></trkpt>
<trkpt lat="7535.33433333333" lon="739.93"><ele></ele><time>2014-6-17T16:6:31Z</time></trkpt>
<trkpt lat="7535.33433333333" lon="739.93"><ele></ele><time>2014-6-17T16:6:34Z</time></trkpt>
<trkpt lat="7535.33433333333" lon="739.93"><ele></ele><time>2014-6-17T16:6:37Z</time></trkpt>
<trkpt lat="7535.33433333333" lon="739.93"><ele></ele><time>2014-6-17T16:6:40Z</time></trkpt>
<trkpt lat="7535.33433333333" lon="739.93"><ele></ele><time>2014-6-17T16:6:43Z</time></trkpt>
<trkpt lat="7535.33433333333" lon="739.93"><ele></ele><time>2014-6-17T16:6:46Z</time></trkpt>
<trkpt lat="7535.33433333333" lon="739.928833333333"><ele></ele><time>2014-6-17T16:6:49Z</time></trkpt>
<trkpt lat="7535.33383333333" lon="739.927333333333"><ele></ele><time>2014-6-17T16:6:52Z</time></trkpt>
<trkpt lat="7535.33233333333" lon="739.9265"><ele></ele><time>2014-6-17T16:6:55Z</time></trkpt>
<trkpt lat="7535.331" lon="739.9265"><ele></ele><time>2014-6-17T16:6:58Z</time></trkpt>
<trkpt lat="7535.32783333333" lon="739.9235"><ele></ele><time>2014-6-17T16:7:1Z</time></trkpt>
<trkpt lat="7535.32616666667" lon="739.922833333333"><ele></ele><time>2014-6-17T16:7:4Z</time></trkpt>
<trkpt lat="7535.324" lon="739.922166666667"><ele></ele><time>2014-6-17T16:7:7Z</time></trkpt>
<trkpt lat="7535.32183333333" lon="739.9215"><ele></ele><time>2014-6-17T16:7:10Z</time></trkpt>
<trkpt lat="7535.31916666667" lon="739.92"><ele></ele><time>2014-6-17T16:7:13Z</time></trkpt>
<trkpt lat="7535.31583333333" lon="739.918833333333"><ele></ele><time>2014-6-17T16:7:16Z</time></trkpt>
<trkpt lat="7535.312" lon="739.918666666667"><ele></ele><time>2014-6-17T16:7:19Z</time></trkpt>
<trkpt lat="7535.30816666667" lon="739.917833333333"><ele></ele><time>2014-6-17T16:7:22Z</time></trkpt>
<trkpt lat="7535.30416666667" lon="739.917"><ele></ele><time>2014-6-17T16:7:25Z</time></trkpt>
<trkpt lat="7535.30033333333" lon="739.915333333333"><ele></ele><time>2014-6-17T16:7:28Z</time></trkpt>
<trkpt lat="7535.2965" lon="739.913666666667"><ele></ele><time>2014-6-17T16:7:31Z</time></trkpt>
<trkpt lat="7535.29283333333" lon="739.911166666667"><ele></ele><time>2014-6-17T16:7:34Z</time></trkpt>
<trkpt lat="7535.28866666667" lon="739.908666666667"><ele></ele><time>2014-6-17T16:7:37Z</time></trkpt>
<trkpt lat="7535.28433333333" lon="739.9055"><ele></ele><time>2014-6-17T16:7:40Z</time></trkpt>
<trkpt lat="7535.28033333333" lon="739.903333333333"><ele></ele><time>2014-6-17T16:7:43Z</time></trkpt>
<trkpt lat="7535.2765" lon="739.901333333333"><ele></ele><time>2014-6-17T16:7:46Z</time></trkpt>
<trkpt lat="7535.27283333333" lon="739.899166666667"><ele></ele><time>2014-6-17T16:7:49Z</time></trkpt>
<trkpt lat="7535.2675" lon="739.897"><ele></ele><time>2014-6-17T16:7:52Z</time></trkpt>
<trkpt lat="7535.26316666667" lon="739.896333333333"><ele></ele><time>2014-6-17T16:7:55Z</time></trkpt>
<trkpt lat="7535.25883333333" lon="739.897166666667"><ele></ele><time>2014-6-17T16:7:58Z</time></trkpt>
<trkpt lat="7535.25533333333" lon="739.897166666667"><ele></ele><time>2014-6-17T16:8:1Z</time></trkpt>
<trkpt lat="7535.252" lon="739.896833333333"><ele></ele><time>2014-6-17T16:8:4Z</time></trkpt>
<trkpt lat="7535.24883333333" lon="739.896666666667"><ele></ele><time>2014-6-17T16:8:7Z</time></trkpt>
<trkpt lat="7535.24566666667" lon="739.897"><ele></ele><time>2014-6-17T16:8:10Z</time></trkpt>
<trkpt lat="7535.24383333333" lon="739.896833333333"><ele></ele><time>2014-6-17T16:8:13Z</time></trkpt>
<trkpt lat="7535.2425" lon="739.896333333333"><ele></ele><time>2014-6-17T16:8:16Z</time></trkpt>
<trkpt lat="7535.24316666667" lon="739.894833333333"><ele></ele><time>2014-6-17T16:8:19Z</time></trkpt>
<trkpt lat="7535.24416666667" lon="739.8935"><ele></ele><time>2014-6-17T16:8:22Z</time></trkpt>
<trkpt lat="7535.245" lon="739.892833333333"><ele></ele><time>2014-6-17T16:8:25Z</time></trkpt>
<trkpt lat="7535.245" lon="739.892833333333"><ele></ele><time>2014-6-17T16:8:28Z</time></trkpt>
<trkpt lat="7535.245" lon="739.892833333333"><ele></ele><time>2014-6-17T16:8:31Z</time></trkpt>
<trkpt lat="7535.245" lon="739.892833333333"><ele></ele><time>2014-6-17T16:8:34Z</time></trkpt>
<trkpt lat="7535.245" lon="739.892833333333"><ele></ele><time>2014-6-17T16:8:37Z</time></trkpt>
<trkpt lat="7535.245" lon="739.892833333333"><ele></ele><time>2014-6-17T16:8:40Z</time></trkpt>
<trkpt lat="7535.245" lon="739.892833333333"><ele></ele><time>2014-6-17T16:8:43Z</time></trkpt>
<trkpt lat="7535.245" lon="739.892833333333"><ele></ele><time>2014-6-17T16:8:46Z</time></trkpt>
<trkpt lat="7535.245" lon="739.892833333333"><ele></ele><time>2014-6-17T16:8:49Z</time></trkpt>
<trkpt lat="7535.245" lon="739.892833333333"><ele></ele><time>2014-6-17T16:8:52Z</time></trkpt>
<trkpt lat="7535.245" lon="739.892833333333"><ele></ele><time>2014-6-17T16:8:55Z</time></trkpt>
<trkpt lat="7535.245" lon="739.892833333333"><ele></ele><time>2014-6-17T16:8:58Z</time></trkpt>
<trkpt lat="7535.245" lon="739.892833333333"><ele></ele><time>2014-6-17T16:9:1Z</time></trkpt>
<trkpt lat="7535.245" lon="739.892833333333"><ele></ele><time>2014-6-17T16:9:4Z</time></trkpt>
<trkpt lat="7535.245" lon="739.892833333333"><ele></ele><time>2014-6-17T16:9:7Z</time></trkpt>
<trkpt lat="7535.245" lon="739.892833333333"><ele></ele><time>2014-6-17T16:9:10Z</time></trkpt>
<trkpt lat="7535.245" lon="739.892833333333"><ele></ele><time>2014-6-17T16:9:13Z</time></trkpt>
<trkpt lat="7535.245" lon="739.892833333333"><ele></ele><time>2014-6-17T16:9:16Z</time></trkpt>
<trkpt lat="7535.245" lon="739.892833333333"><ele></ele><time>2014-6-17T16:9:19Z</time></trkpt>
<trkpt lat="7535.245" lon="739.892833333333"><ele></ele><time>2014-6-17T16:9:22Z</time></trkpt>
<trkpt lat="7535.245" lon="739.892833333333"><ele></ele><time>2014-6-17T16:9:25Z</time></trkpt>
<trkpt lat="7535.245" lon="739.892833333333"><ele></ele><time>2014-6-17T16:9:28Z</time></trkpt>
<trkpt lat="7535.245" lon="739.892833333333"><ele></ele><time>2014-6-17T16:9:31Z</time></trkpt>
<trkpt lat="7535.245" lon="739.892833333333"><ele></ele><time>2014-6-17T16:9:34Z</time></trkpt>
<trkpt lat="7535.245" lon="739.892833333333"><ele></ele><time>2014-6-17T16:9:37Z</time></trkpt>
<trkpt lat="7535.245" lon="739.892833333333"><ele></ele><time>2014-6-17T16:9:40Z</time></trkpt>
<trkpt lat="7535.24433333333" lon="739.892666666667"><ele></ele><time>2014-6-17T16:9:43Z</time></trkpt>
<trkpt lat="7535.24233333333" lon="739.8925"><ele></ele><time>2014-6-17T16:9:46Z</time></trkpt>
<trkpt lat="7535.23916666667" lon="739.892166666667"><ele></ele><time>2014-6-17T16:9:49Z</time></trkpt>
<trkpt lat="7535.23583333333" lon="739.890833333333"><ele></ele><time>2014-6-17T16:9:52Z</time></trkpt>
<trkpt lat="7535.23233333333" lon="739.889333333333"><ele></ele><time>2014-6-17T16:9:55Z</time></trkpt>
<trkpt lat="7535.2285" lon="739.888"><ele></ele><time>2014-6-17T16:9:58Z</time></trkpt>
<trkpt lat="7535.22416666667" lon="739.887166666667"><ele></ele><time>2014-6-17T16:10:1Z</time></trkpt>
<trkpt lat="7535.22" lon="739.886333333333"><ele></ele><time>2014-6-17T16:10:4Z</time></trkpt>
<trkpt lat="7535.21583333333" lon="739.885"><ele></ele><time>2014-6-17T16:10:7Z</time></trkpt>
<trkpt lat="7535.21233333333" lon="739.884166666667"><ele></ele><time>2014-6-17T16:10:10Z</time></trkpt>
<trkpt lat="7535.20883333333" lon="739.884166666667"><ele></ele><time>2014-6-17T16:10:13Z</time></trkpt>
<trkpt lat="7535.206" lon="739.885833333333"><ele></ele><time>2014-6-17T16:10:16Z</time></trkpt>
<trkpt lat="7535.20416666667" lon="739.888833333333"><ele></ele><time>2014-6-17T16:10:19Z</time></trkpt>
<trkpt lat="7535.20283333333" lon="739.893166666667"><ele></ele><time>2014-6-17T16:10:22Z</time></trkpt>
<trkpt lat="7535.20133333333" lon="739.898"><ele></ele><time>2014-6-17T16:10:25Z</time></trkpt>
<trkpt lat="7535.19883333333" lon="739.903666666667"><ele></ele><time>2014-6-17T16:10:28Z</time></trkpt>
<trkpt lat="7535.19733333333" lon="739.908833333333"><ele></ele><time>2014-6-17T16:10:31Z</time></trkpt>
<trkpt lat="7535.19633333333" lon="739.914666666667"><ele></ele><time>2014-6-17T16:10:34Z</time></trkpt>
<trkpt lat="7535.19583333333" lon="739.920833333333"><ele></ele><time>2014-6-17T16:10:37Z</time></trkpt>
<trkpt lat="7535.19566666667" lon="739.927333333333"><ele></ele><time>2014-6-17T16:10:40Z</time></trkpt>
<trkpt lat="7535.196" lon="739.933666666667"><ele></ele><time>2014-6-17T16:10:43Z</time></trkpt>
<trkpt lat="7535.19516666667" lon="739.940833333333"><ele></ele><time>2014-6-17T16:10:46Z</time></trkpt>
<trkpt lat="7535.195" lon="739.947833333333"><ele></ele><time>2014-6-17T16:10:49Z</time></trkpt>
<trkpt lat="7535.19433333333" lon="739.955333333333"><ele></ele><time>2014-6-17T16:10:52Z</time></trkpt>
<trkpt lat="7535.1935" lon="739.962666666667"><ele></ele><time>2014-6-17T16:10:55Z</time></trkpt>
<trkpt lat="7535.19016666667" lon="739.969833333333"><ele></ele><time>2014-6-17T16:10:58Z</time></trkpt>
<trkpt lat="7535.18933333333" lon="739.976"><ele></ele><time>2014-6-17T16:11:1Z</time></trkpt>
<trkpt lat="7535.1895" lon="739.981333333333"><ele></ele><time>2014-6-17T16:11:4Z</time></trkpt>
<trkpt lat="7535.1855" lon="739.987"><ele></ele><time>2014-6-17T16:11:7Z</time></trkpt>
<trkpt lat="7535.18216666667" lon="739.989333333333"><ele></ele><time>2014-6-17T16:11:10Z</time></trkpt>
<trkpt lat="7535.1785" lon="739.9885"><ele></ele><time>2014-6-17T16:11:13Z</time></trkpt>
<trkpt lat="7535.17366666667" lon="739.986833333333"><ele></ele><time>2014-6-17T16:11:16Z</time></trkpt>
<trkpt lat="7535.16766666667" lon="739.986333333333"><ele></ele><time>2014-6-17T16:11:19Z</time></trkpt>
<trkpt lat="7535.1635" lon="739.984833333333"><ele></ele><time>2014-6-17T16:11:22Z</time></trkpt>
<trkpt lat="7535.15933333333" lon="739.983166666667"><ele></ele><time>2014-6-17T16:11:25Z</time></trkpt>
<trkpt lat="7535.1555" lon="739.9805"><ele></ele><time>2014-6-17T16:11:28Z</time></trkpt>
<trkpt lat="7535.15166666667" lon="739.978333333333"><ele></ele><time>2014-6-17T16:11:31Z</time></trkpt>
<trkpt lat="7535.14766666667" lon="739.9765"><ele></ele><time>2014-6-17T16:11:34Z</time></trkpt>
<trkpt lat="7535.14366666667" lon="739.974833333333"><ele></ele><time>2014-6-17T16:11:37Z</time></trkpt>
<trkpt lat="7535.13916666667" lon="739.973333333333"><ele></ele><time>2014-6-17T16:11:40Z</time></trkpt>
<trkpt lat="7535.13516666667" lon="739.970833333333"><ele></ele><time>2014-6-17T16:11:43Z</time></trkpt>
<trkpt lat="7535.13166666667" lon="739.968"><ele></ele><time>2014-6-17T16:11:46Z</time></trkpt>
<trkpt lat="7535.12833333333" lon="739.965333333333"><ele></ele><time>2014-6-17T16:11:49Z</time></trkpt>
<trkpt lat="7535.12616666667" lon="739.9615"><ele></ele><time>2014-6-17T16:11:52Z</time></trkpt>
<trkpt lat="7535.1225" lon="739.959"><ele></ele><time>2014-6-17T16:11:55Z</time></trkpt>
<trkpt lat="7535.11883333333" lon="739.956666666667"><ele></ele><time>2014-6-17T16:11:58Z</time></trkpt>
<trkpt lat="7535.11533333333" lon="739.954333333333"><ele></ele><time>2014-6-17T16:12:1Z</time></trkpt>
<trkpt lat="7535.11183333333" lon="739.951666666667"><ele></ele><time>2014-6-17T16:12:4Z</time></trkpt>
<trkpt lat="7535.10816666667" lon="739.9495"><ele></ele><time>2014-6-17T16:12:7Z</time></trkpt>
<trkpt lat="7535.10433333333" lon="739.947166666667"><ele></ele><time>2014-6-17T16:12:10Z</time></trkpt>
<trkpt lat="7535.10016666667" lon="739.944833333333"><ele></ele><time>2014-6-17T16:12:13Z</time></trkpt>
<trkpt lat="7535.09616666667" lon="739.942"><ele></ele><time>2014-6-17T16:12:16Z</time></trkpt>
<trkpt lat="7535.09216666667" lon="739.939166666667"><ele></ele><time>2014-6-17T16:12:19Z</time></trkpt>
<trkpt lat="7535.08833333333" lon="739.936666666667"><ele></ele><time>2014-6-17T16:12:22Z</time></trkpt>
<trkpt lat="7535.08483333333" lon="739.933333333333"><ele></ele><time>2014-6-17T16:12:25Z</time></trkpt>
<trkpt lat="7535.08116666667" lon="739.929666666667"><ele></ele><time>2014-6-17T16:12:28Z</time></trkpt>
<trkpt lat="7535.077" lon="739.926333333333"><ele></ele><time>2014-6-17T16:12:31Z</time></trkpt>
<trkpt lat="7535.07283333333" lon="739.923166666667"><ele></ele><time>2014-6-17T16:12:34Z</time></trkpt>
<trkpt lat="7535.06883333333" lon="739.920333333333"><ele></ele><time>2014-6-17T16:12:37Z</time></trkpt>
<trkpt lat="7535.06516666667" lon="739.917666666667"><ele></ele><time>2014-6-17T16:12:40Z</time></trkpt>
<trkpt lat="7535.06183333333" lon="739.915"><ele></ele><time>2014-6-17T16:12:43Z</time></trkpt>
<trkpt lat="7535.0585" lon="739.9125"><ele></ele><time>2014-6-17T16:12:46Z</time></trkpt>
<trkpt lat="7535.0555" lon="739.91"><ele></ele><time>2014-6-17T16:12:49Z</time></trkpt>
<trkpt lat="7535.05116666667" lon="739.909"><ele></ele><time>2014-6-17T16:12:52Z</time></trkpt>
<trkpt lat="7535.04766666667" lon="739.908166666667"><ele></ele><time>2014-6-17T16:12:55Z</time></trkpt>
<trkpt lat="7535.04433333333" lon="739.908833333333"><ele></ele><time>2014-6-17T16:12:58Z</time></trkpt>
<trkpt lat="7535.04233333333" lon="739.909166666667"><ele></ele><time>2014-6-17T16:13:1Z</time></trkpt>
<trkpt lat="7535.04116666667" lon="739.908666666667"><ele></ele><time>2014-6-17T16:13:4Z</time></trkpt>
<trkpt lat="7535.04016666667" lon="739.908333333333"><ele></ele><time>2014-6-17T16:13:7Z</time></trkpt>
<trkpt lat="7535.03933333333" lon="739.908166666667"><ele></ele><time>2014-6-17T16:13:10Z</time></trkpt>
<trkpt lat="7535.03866666667" lon="739.907666666667"><ele></ele><time>2014-6-17T16:13:13Z</time></trkpt>
<trkpt lat="7535.03866666667" lon="739.907666666667"><ele></ele><time>2014-6-17T16:13:16Z</time></trkpt>
<trkpt lat="7535.03866666667" lon="739.907666666667"><ele></ele><time>2014-6-17T16:13:19Z</time></trkpt>
<trkpt lat="7535.03816666667" lon="739.907666666667"><ele></ele><time>2014-6-17T16:13:22Z</time></trkpt>
<trkpt lat="7535.03733333333" lon="739.907166666667"><ele></ele><time>2014-6-17T16:13:25Z</time></trkpt>
<trkpt lat="7535.03666666667" lon="739.907333333333"><ele></ele><time>2014-6-17T16:13:28Z</time></trkpt>
<trkpt lat="7535.03566666667" lon="739.9055"><ele></ele><time>2014-6-17T16:13:31Z</time></trkpt>
<trkpt lat="7535.03433333333" lon="739.9055"><ele></ele><time>2014-6-17T16:13:34Z</time></trkpt>
<trkpt lat="7535.033" lon="739.905833333333"><ele></ele><time>2014-6-17T16:13:37Z</time></trkpt>
<trkpt lat="7535.033" lon="739.905833333333"><ele></ele><time>2014-6-17T16:13:40Z</time></trkpt>
<trkpt lat="7535.033" lon="739.905833333333"><ele></ele><time>2014-6-17T16:13:43Z</time></trkpt>
<trkpt lat="7535.033" lon="739.905833333333"><ele></ele><time>2014-6-17T16:13:46Z</time></trkpt>
<trkpt lat="7535.033" lon="739.905833333333"><ele></ele><time>2014-6-17T16:13:49Z</time></trkpt>
<trkpt lat="7535.033" lon="739.905833333333"><ele></ele><time>2014-6-17T16:13:52Z</time></trkpt>
<trkpt lat="7535.033" lon="739.905833333333"><ele></ele><time>2014-6-17T16:13:55Z</time></trkpt>
<trkpt lat="7535.033" lon="739.905833333333"><ele></ele><time>2014-6-17T16:13:58Z</time></trkpt>
<trkpt lat="7535.033" lon="739.905833333333"><ele></ele><time>2014-6-17T16:14:1Z</time></trkpt>
<trkpt lat="7535.03283333333" lon="739.906"><ele></ele><time>2014-6-17T16:14:4Z</time></trkpt>
<trkpt lat="7535.032" lon="739.905333333333"><ele></ele><time>2014-6-17T16:14:7Z</time></trkpt>
<trkpt lat="7535.031" lon="739.904166666667"><ele></ele><time>2014-6-17T16:14:10Z</time></trkpt>
<trkpt lat="7535.02833333333" lon="739.904"><ele></ele><time>2014-6-17T16:14:13Z</time></trkpt>
<trkpt lat="7535.02616666667" lon="739.902"><ele></ele><time>2014-6-17T16:14:16Z</time></trkpt>
<trkpt lat="7535.02383333333" lon="739.9005"><ele></ele><time>2014-6-17T16:14:19Z</time></trkpt>
<trkpt lat="7535.02133333333" lon="739.899"><ele></ele><time>2014-6-17T16:14:22Z</time></trkpt>
<trkpt lat="7535.01833333333" lon="739.897"><ele></ele><time>2014-6-17T16:14:25Z</time></trkpt>
<trkpt lat="7535.01533333333" lon="739.894833333333"><ele></ele><time>2014-6-17T16:14:28Z</time></trkpt>
<trkpt lat="7535.012" lon="739.8925"><ele></ele><time>2014-6-17T16:14:31Z</time></trkpt>
<trkpt lat="7535.00883333333" lon="739.890166666667"><ele></ele><time>2014-6-17T16:14:34Z</time></trkpt>
<trkpt lat="7535.00566666667" lon="739.8875"><ele></ele><time>2014-6-17T16:14:37Z</time></trkpt>
<trkpt lat="7535.00233333333" lon="739.8855"><ele></ele><time>2014-6-17T16:14:40Z</time></trkpt>
<trkpt lat="7534.99883333333" lon="739.884"><ele></ele><time>2014-6-17T16:14:43Z</time></trkpt>
<trkpt lat="7534.99516666667" lon="739.882"><ele></ele><time>2014-6-17T16:14:46Z</time></trkpt>
<trkpt lat="7534.99133333333" lon="739.881"><ele></ele><time>2014-6-17T16:14:49Z</time></trkpt>
<trkpt lat="7534.98716666667" lon="739.879166666667"><ele></ele><time>2014-6-17T16:14:52Z</time></trkpt>
<trkpt lat="7534.98266666667" lon="739.877333333333"><ele></ele><time>2014-6-17T16:14:55Z</time></trkpt>
<trkpt lat="7534.97833333333" lon="739.8745"><ele></ele><time>2014-6-17T16:14:58Z</time></trkpt>
<trkpt lat="7534.9745" lon="739.872166666667"><ele></ele><time>2014-6-17T16:15:1Z</time></trkpt>
<trkpt lat="7534.97083333333" lon="739.869166666667"><ele></ele><time>2014-6-17T16:15:4Z</time></trkpt>
<trkpt lat="7534.96733333333" lon="739.866"><ele></ele><time>2014-6-17T16:15:7Z</time></trkpt>
<trkpt lat="7534.96466666667" lon="739.862166666667"><ele></ele><time>2014-6-17T16:15:10Z</time></trkpt>
<trkpt lat="7534.962" lon="739.857333333333"><ele></ele><time>2014-6-17T16:15:13Z</time></trkpt>
<trkpt lat="7534.95833333333" lon="739.8535"><ele></ele><time>2014-6-17T16:15:16Z</time></trkpt>
<trkpt lat="7534.95433333333" lon="739.849666666667"><ele></ele><time>2014-6-17T16:15:19Z</time></trkpt>
<trkpt lat="7534.95083333333" lon="739.846666666667"><ele></ele><time>2014-6-17T16:15:22Z</time></trkpt>
<trkpt lat="7534.94733333333" lon="739.842833333333"><ele></ele><time>2014-6-17T16:15:25Z</time></trkpt>
<trkpt lat="7534.94383333333" lon="739.8395"><ele></ele><time>2014-6-17T16:15:28Z</time></trkpt>
<trkpt lat="7534.94033333333" lon="739.835833333333"><ele></ele><time>2014-6-17T16:15:31Z</time></trkpt>
<trkpt lat="7534.93733333333" lon="739.832166666667"><ele></ele><time>2014-6-17T16:15:34Z</time></trkpt>
<trkpt lat="7534.93416666667" lon="739.8285"><ele></ele><time>2014-6-17T16:15:37Z</time></trkpt>
<trkpt lat="7534.9305" lon="739.825333333333"><ele></ele><time>2014-6-17T16:15:40Z</time></trkpt>
<trkpt lat="7534.9265" lon="739.822333333333"><ele></ele><time>2014-6-17T16:15:43Z</time></trkpt>
<trkpt lat="7534.92233333333" lon="739.819333333333"><ele></ele><time>2014-6-17T16:15:46Z</time></trkpt>
<trkpt lat="7534.91866666667" lon="739.816666666667"><ele></ele><time>2014-6-17T16:15:49Z</time></trkpt>
<trkpt lat="7534.9155" lon="739.814833333333"><ele></ele><time>2014-6-17T16:15:52Z</time></trkpt>
<trkpt lat="7534.91266666667" lon="739.8135"><ele></ele><time>2014-6-17T16:15:55Z</time></trkpt>
<trkpt lat="7534.91" lon="739.810666666667"><ele></ele><time>2014-6-17T16:15:58Z</time></trkpt>
<trkpt lat="7534.9065" lon="739.807666666667"><ele></ele><time>2014-6-17T16:16:1Z</time></trkpt>
<trkpt lat="7534.90283333333" lon="739.8055"><ele></ele><time>2014-6-17T16:16:4Z</time></trkpt>
<trkpt lat="7534.89883333333" lon="739.802833333333"><ele></ele><time>2014-6-17T16:16:7Z</time></trkpt>
<trkpt lat="7534.895" lon="739.799833333333"><ele></ele><time>2014-6-17T16:16:10Z</time></trkpt>
<trkpt lat="7534.89116666667" lon="739.797166666667"><ele></ele><time>2014-6-17T16:16:13Z</time></trkpt>
<trkpt lat="7534.8875" lon="739.793666666667"><ele></ele><time>2014-6-17T16:16:16Z</time></trkpt>
<trkpt lat="7534.88366666667" lon="739.790166666667"><ele></ele><time>2014-6-17T16:16:19Z</time></trkpt>
<trkpt lat="7534.8795" lon="739.787666666667"><ele></ele><time>2014-6-17T16:16:22Z</time></trkpt>
<trkpt lat="7534.87633333333" lon="739.7845"><ele></ele><time>2014-6-17T16:16:25Z</time></trkpt>
<trkpt lat="7534.87283333333" lon="739.781333333333"><ele></ele><time>2014-6-17T16:16:28Z</time></trkpt>
<trkpt lat="7534.86883333333" lon="739.778833333333"><ele></ele><time>2014-6-17T16:16:31Z</time></trkpt>
<trkpt lat="7534.865" lon="739.776166666667"><ele></ele><time>2014-6-17T16:16:34Z</time></trkpt>
<trkpt lat="7534.8615" lon="739.773166666667"><ele></ele><time>2014-6-17T16:16:37Z</time></trkpt>
<trkpt lat="7534.85816666667" lon="739.77"><ele></ele><time>2014-6-17T16:16:40Z</time></trkpt>
<trkpt lat="7534.85416666667" lon="739.767"><ele></ele><time>2014-6-17T16:16:43Z</time></trkpt>
<trkpt lat="7534.85" lon="739.764166666667"><ele></ele><time>2014-6-17T16:16:46Z</time></trkpt>
<trkpt lat="7534.73683333333" lon="739.190833333333"><ele></ele><time>2014-6-17T16:16:49Z</time></trkpt>
<trkpt lat="7534.76333333333" lon="739.193666666667"><ele></ele><time>2014-6-17T16:16:52Z</time></trkpt>
<trkpt lat="7534.77733333333" lon="739.191333333333"><ele></ele><time>2014-6-17T16:16:55Z</time></trkpt>
<trkpt lat="7534.78033333333" lon="739.187166666667"><ele></ele><time>2014-6-17T16:16:58Z</time></trkpt>
<trkpt lat="7534.78166666667" lon="739.1855"><ele></ele><time>2014-6-17T16:17:1Z</time></trkpt>
<trkpt lat="7534.77916666667" lon="739.181666666667"><ele></ele><time>2014-6-17T16:17:4Z</time></trkpt>
<trkpt lat="7534.77666666667" lon="739.180333333333"><ele></ele><time>2014-6-17T16:17:7Z</time></trkpt>
<trkpt lat="7534.778" lon="739.174833333333"><ele></ele><time>2014-6-17T16:17:10Z</time></trkpt>
<trkpt lat="7534.77883333333" lon="739.171333333333"><ele></ele><time>2014-6-17T16:17:13Z</time></trkpt>
<trkpt lat="7534.7795" lon="739.169"><ele></ele><time>2014-6-17T16:17:16Z</time></trkpt>
<trkpt lat="7534.78066666667" lon="739.168166666667"><ele></ele><time>2014-6-17T16:17:19Z</time></trkpt>
<trkpt lat="7534.78066666667" lon="739.168166666667"><ele></ele><time>2014-6-17T16:17:22Z</time></trkpt>
<trkpt lat="7534.78066666667" lon="739.168166666667"><ele></ele><time>2014-6-17T16:17:25Z</time></trkpt>
<trkpt lat="7534.78066666667" lon="739.168166666667"><ele></ele><time>2014-6-17T16:17:28Z</time></trkpt>
<trkpt lat="7534.78066666667" lon="739.168166666667"><ele></ele><time>2014-6-17T16:17:31Z</time></trkpt>
<trkpt lat="7534.78066666667" lon="739.168166666667"><ele></ele><time>2014-6-17T16:17:34Z</time></trkpt>
<trkpt lat="7534.78066666667" lon="739.168166666667"><ele></ele><time>2014-6-17T16:17:37Z</time></trkpt>
<trkpt lat="7534.78066666667" lon="739.168166666667"><ele></ele><time>2014-6-17T16:17:40Z</time></trkpt>
<trkpt lat="7534.78066666667" lon="739.168166666667"><ele></ele><time>2014-6-17T16:17:43Z</time></trkpt>
<trkpt lat="7534.78066666667" lon="739.168166666667"><ele></ele><time>2014-6-17T16:17:46Z</time></trkpt>
<trkpt lat="7534.78066666667" lon="739.168166666667"><ele></ele><time>2014-6-17T16:17:49Z</time></trkpt>
<trkpt lat="7534.78066666667" lon="739.168166666667"><ele></ele><time>2014-6-17T16:17:52Z</time></trkpt>
<trkpt lat="7534.78066666667" lon="739.168166666667"><ele></ele><time>2014-6-17T16:17:55Z</time></trkpt>
<trkpt lat="7534.78066666667" lon="739.168166666667"><ele></ele><time>2014-6-17T16:17:58Z</time></trkpt>
<trkpt lat="7534.78066666667" lon="739.168166666667"><ele></ele><time>2014-6-17T16:18:1Z</time></trkpt>
<trkpt lat="7534.78066666667" lon="739.168166666667"><ele></ele><time>2014-6-17T16:18:4Z</time></trkpt>
<trkpt lat="7534.78066666667" lon="739.168166666667"><ele></ele><time>2014-6-17T16:18:7Z</time></trkpt>
<trkpt lat="7534.78066666667" lon="739.168166666667"><ele></ele><time>2014-6-17T16:18:10Z</time></trkpt>
<trkpt lat="7534.78066666667" lon="739.168166666667"><ele></ele><time>2014-6-17T16:18:13Z</time></trkpt>
<trkpt lat="7534.78066666667" lon="739.168166666667"><ele></ele><time>2014-6-17T16:18:16Z</time></trkpt>
<trkpt lat="7534.761" lon="739.1715"><ele></ele><time>2014-6-17T16:18:19Z</time></trkpt>
<trkpt lat="7534.761" lon="739.1715"><ele></ele><time>2014-6-17T16:18:22Z</time></trkpt>
<trkpt lat="7534.761" lon="739.1715"><ele></ele><time>2014-6-17T16:18:25Z</time></trkpt>
<trkpt lat="7534.761" lon="739.1715"><ele></ele><time>2014-6-17T16:18:28Z</time></trkpt>
<trkpt lat="7534.761" lon="739.1715"><ele></ele><time>2014-6-17T16:18:31Z</time></trkpt>
<trkpt lat="7534.761" lon="739.1715"><ele></ele><time>2014-6-17T16:18:34Z</time></trkpt>
<trkpt lat="7534.761" lon="739.1715"><ele></ele><time>2014-6-17T16:18:37Z</time></trkpt>
<trkpt lat="7534.761" lon="739.1715"><ele></ele><time>2014-6-17T16:18:40Z</time></trkpt>
<trkpt lat="7534.7655" lon="739.169"><ele></ele><time>2014-6-17T16:18:43Z</time></trkpt>
<trkpt lat="7534.76766666667" lon="739.1675"><ele></ele><time>2014-6-17T16:18:46Z</time></trkpt>
<trkpt lat="7534.76883333333" lon="739.165333333333"><ele></ele><time>2014-6-17T16:18:49Z</time></trkpt>
<trkpt lat="7534.76833333333" lon="739.164333333333"><ele></ele><time>2014-6-17T16:18:52Z</time></trkpt>
<trkpt lat="7534.76833333333" lon="739.164333333333"><ele></ele><time>2014-6-17T16:18:55Z</time></trkpt>
<trkpt lat="7534.76833333333" lon="739.164333333333"><ele></ele><time>2014-6-17T16:18:58Z</time></trkpt>
<trkpt lat="7534.76833333333" lon="739.164333333333"><ele></ele><time>2014-6-17T16:19:1Z</time></trkpt>
<trkpt lat="7534.76833333333" lon="739.164333333333"><ele></ele><time>2014-6-17T16:19:4Z</time></trkpt>
<trkpt lat="7534.76833333333" lon="739.164333333333"><ele></ele><time>2014-6-17T16:19:7Z</time></trkpt>
<trkpt lat="7534.788" lon="739.1665"><ele></ele><time>2014-6-17T16:19:10Z</time></trkpt>
<trkpt lat="7534.788" lon="739.1665"><ele></ele><time>2014-6-17T16:19:13Z</time></trkpt>
<trkpt lat="7534.788" lon="739.1665"><ele></ele><time>2014-6-17T16:19:16Z</time></trkpt>
<trkpt lat="7534.788" lon="739.1665"><ele></ele><time>2014-6-17T16:19:19Z</time></trkpt>
<trkpt lat="7534.788" lon="739.1665"><ele></ele><time>2014-6-17T16:19:22Z</time></trkpt>
<trkpt lat="7534.788" lon="739.1665"><ele></ele><time>2014-6-17T16:19:25Z</time></trkpt>
<trkpt lat="7534.788" lon="739.1665"><ele></ele><time>2014-6-17T16:19:28Z</time></trkpt>
<trkpt lat="7534.788" lon="739.1665"><ele></ele><time>2014-6-17T16:19:31Z</time></trkpt>
<trkpt lat="7534.788" lon="739.1665"><ele></ele><time>2014-6-17T16:19:34Z</time></trkpt>
<trkpt lat="7534.788" lon="739.1665"><ele></ele><time>2014-6-17T16:19:37Z</time></trkpt>
<trkpt lat="7534.788" lon="739.1665"><ele></ele><time>2014-6-17T16:19:40Z</time></trkpt>
<trkpt lat="7534.788" lon="739.1665"><ele></ele><time>2014-6-17T16:19:43Z</time></trkpt>
<trkpt lat="7534.78683333333" lon="739.163333333333"><ele></ele><time>2014-6-17T16:19:46Z</time></trkpt>
<trkpt lat="7534.78483333333" lon="739.158833333333"><ele></ele><time>2014-6-17T16:19:49Z</time></trkpt>
<trkpt lat="7534.78216666667" lon="739.153666666667"><ele></ele><time>2014-6-17T16:19:52Z</time></trkpt>
<trkpt lat="7534.779" lon="739.148333333333"><ele></ele><time>2014-6-17T16:19:55Z</time></trkpt>
<trkpt lat="7534.774" lon="739.1445"><ele></ele><time>2014-6-17T16:19:58Z</time></trkpt>
<trkpt lat="7534.76933333333" lon="739.1445"><ele></ele><time>2014-6-17T16:20:1Z</time></trkpt>
<trkpt lat="7534.7635" lon="739.145333333333"><ele></ele><time>2014-6-17T16:20:4Z</time></trkpt>
<trkpt lat="7534.75566666667" lon="739.147833333333"><ele></ele><time>2014-6-17T16:20:7Z</time></trkpt>
<trkpt lat="7534.74783333333" lon="739.148666666667"><ele></ele><time>2014-6-17T16:20:10Z</time></trkpt>
<trkpt lat="7534.741" lon="739.150833333333"><ele></ele><time>2014-6-17T16:20:13Z</time></trkpt>
<trkpt lat="7534.73433333333" lon="739.151333333333"><ele></ele><time>2014-6-17T16:20:16Z</time></trkpt>
<trkpt lat="7534.72816666667" lon="739.151333333333"><ele></ele><time>2014-6-17T16:20:19Z</time></trkpt>
<trkpt lat="7534.72216666667" lon="739.152166666667"><ele></ele><time>2014-6-17T16:20:22Z</time></trkpt>
<trkpt lat="7534.71633333333" lon="739.151833333333"><ele></ele><time>2014-6-17T16:20:25Z</time></trkpt>
<trkpt lat="7534.7105" lon="739.152"><ele></ele><time>2014-6-17T16:20:28Z</time></trkpt>
<trkpt lat="7534.7045" lon="739.152166666667"><ele></ele><time>2014-6-17T16:20:31Z</time></trkpt>
<trkpt lat="7534.69883333333" lon="739.152666666667"><ele></ele><time>2014-6-17T16:20:34Z</time></trkpt>
<trkpt lat="7534.69283333333" lon="739.153666666667"><ele></ele><time>2014-6-17T16:20:37Z</time></trkpt>
<trkpt lat="7534.687" lon="739.154833333333"><ele></ele><time>2014-6-17T16:20:40Z</time></trkpt>
<trkpt lat="7534.68116666667" lon="739.1555"><ele></ele><time>2014-6-17T16:20:43Z</time></trkpt>
<trkpt lat="7534.67583333333" lon="739.1555"><ele></ele><time>2014-6-17T16:20:46Z</time></trkpt>
<trkpt lat="7534.67" lon="739.155666666667"><ele></ele><time>2014-6-17T16:20:49Z</time></trkpt>
<trkpt lat="7534.664" lon="739.1565"><ele></ele><time>2014-6-17T16:20:52Z</time></trkpt>
<trkpt lat="7534.658" lon="739.158"><ele></ele><time>2014-6-17T16:20:55Z</time></trkpt>
<trkpt lat="7534.652" lon="739.157833333333"><ele></ele><time>2014-6-17T16:20:58Z</time></trkpt>
<trkpt lat="7534.64566666667" lon="739.157666666667"><ele></ele><time>2014-6-17T16:21:1Z</time></trkpt>
<trkpt lat="7534.63966666667" lon="739.158166666667"><ele></ele><time>2014-6-17T16:21:4Z</time></trkpt>
<trkpt lat="7534.63383333333" lon="739.158166666667"><ele></ele><time>2014-6-17T16:21:7Z</time></trkpt>
<trkpt lat="7534.62783333333" lon="739.1585"><ele></ele><time>2014-6-17T16:21:10Z</time></trkpt>
<trkpt lat="7534.62133333333" lon="739.159333333333"><ele></ele><time>2014-6-17T16:21:13Z</time></trkpt>
<trkpt lat="7534.61516666667" lon="739.159166666667"><ele></ele><time>2014-6-17T16:21:16Z</time></trkpt>
<trkpt lat="7534.60883333333" lon="739.159"><ele></ele><time>2014-6-17T16:21:19Z</time></trkpt>
<trkpt lat="7534.602" lon="739.159833333333"><ele></ele><time>2014-6-17T16:21:22Z</time></trkpt>
<trkpt lat="7534.595" lon="739.1605"><ele></ele><time>2014-6-17T16:21:25Z</time></trkpt>
<trkpt lat="7534.58816666667" lon="739.161666666667"><ele></ele><time>2014-6-17T16:21:28Z</time></trkpt>
<trkpt lat="7534.58133333333" lon="739.162333333333"><ele></ele><time>2014-6-17T16:21:31Z</time></trkpt>
<trkpt lat="7534.5745" lon="739.162666666667"><ele></ele><time>2014-6-17T16:21:34Z</time></trkpt>
<trkpt lat="7534.56766666667" lon="739.162833333333"><ele></ele><time>2014-6-17T16:21:37Z</time></trkpt>
<trkpt lat="7534.561" lon="739.163333333333"><ele></ele><time>2014-6-17T16:21:40Z</time></trkpt>
<trkpt lat="7534.5545" lon="739.1635"><ele></ele><time>2014-6-17T16:21:43Z</time></trkpt>
<trkpt lat="7534.54766666667" lon="739.163666666667"><ele></ele><time>2014-6-17T16:21:46Z</time></trkpt>
<trkpt lat="7534.54183333333" lon="739.163833333333"><ele></ele><time>2014-6-17T16:21:49Z</time></trkpt>
<trkpt lat="7534.53683333333" lon="739.163"><ele></ele><time>2014-6-17T16:21:52Z</time></trkpt>
<trkpt lat="7534.53266666667" lon="739.161"><ele></ele><time>2014-6-17T16:21:55Z</time></trkpt>
<trkpt lat="7534.52916666667" lon="739.157333333333"><ele></ele><time>2014-6-17T16:21:58Z</time></trkpt>
<trkpt lat="7534.52583333333" lon="739.153333333333"><ele></ele><time>2014-6-17T16:22:1Z</time></trkpt>
<trkpt lat="7534.522" lon="739.149166666667"><ele></ele><time>2014-6-17T16:22:4Z</time></trkpt>
<trkpt lat="7534.5185" lon="739.146166666667"><ele></ele><time>2014-6-17T16:22:7Z</time></trkpt>
<trkpt lat="7534.515" lon="739.143166666667"><ele></ele><time>2014-6-17T16:22:10Z</time></trkpt>
<trkpt lat="7534.51183333333" lon="739.140333333333"><ele></ele><time>2014-6-17T16:22:13Z</time></trkpt>
<trkpt lat="7534.50816666667" lon="739.136666666667"><ele></ele><time>2014-6-17T16:22:16Z</time></trkpt>
<trkpt lat="7534.50483333333" lon="739.132"><ele></ele><time>2014-6-17T16:22:19Z</time></trkpt>
<trkpt lat="7534.5025" lon="739.1265"><ele></ele><time>2014-6-17T16:22:22Z</time></trkpt>
<trkpt lat="7534.5015" lon="739.122166666667"><ele></ele><time>2014-6-17T16:22:25Z</time></trkpt>
<trkpt lat="7534.50116666667" lon="739.117833333333"><ele></ele><time>2014-6-17T16:22:28Z</time></trkpt>
<trkpt lat="7534.50183333333" lon="739.113666666667"><ele></ele><time>2014-6-17T16:22:31Z</time></trkpt>
<trkpt lat="7534.50383333333" lon="739.109333333333"><ele></ele><time>2014-6-17T16:22:34Z</time></trkpt>
<trkpt lat="7534.50883333333" lon="739.105166666667"><ele></ele><time>2014-6-17T16:22:37Z</time></trkpt>
<trkpt lat="7534.51233333333" lon="739.101166666667"><ele></ele><time>2014-6-17T16:22:40Z</time></trkpt>
<trkpt lat="7534.51516666667" lon="739.0975"><ele></ele><time>2014-6-17T16:22:43Z</time></trkpt>
<trkpt lat="7534.519" lon="739.093333333333"><ele></ele><time>2014-6-17T16:22:46Z</time></trkpt>
<trkpt lat="7534.52283333333" lon="739.089"><ele></ele><time>2014-6-17T16:22:49Z</time></trkpt>
<trkpt lat="7534.52633333333" lon="739.085833333333"><ele></ele><time>2014-6-17T16:22:52Z</time></trkpt>
<trkpt lat="7534.52966666667" lon="739.083833333333"><ele></ele><time>2014-6-17T16:22:55Z</time></trkpt>
<trkpt lat="7534.53216666667" lon="739.082833333333"><ele></ele><time>2014-6-17T16:22:58Z</time></trkpt>
<trkpt lat="7534.53516666667" lon="739.0805"><ele></ele><time>2014-6-17T16:23:1Z</time></trkpt>
<trkpt lat="7534.53883333333" lon="739.075"><ele></ele><time>2014-6-17T16:23:4Z</time></trkpt>
<trkpt lat="7534.542" lon="739.07"><ele></ele><time>2014-6-17T16:23:7Z</time></trkpt>
<trkpt lat="7534.54516666667" lon="739.064333333333"><ele></ele><time>2014-6-17T16:23:10Z</time></trkpt>
<trkpt lat="7534.54833333333" lon="739.057666666667"><ele></ele><time>2014-6-17T16:23:13Z</time></trkpt>
<trkpt lat="7534.55083333333" lon="739.0515"><ele></ele><time>2014-6-17T16:23:16Z</time></trkpt>
<trkpt lat="7534.5535" lon="739.045666666667"><ele></ele><time>2014-6-17T16:23:19Z</time></trkpt>
<trkpt lat="7534.55633333333" lon="739.040833333333"><ele></ele><time>2014-6-17T16:23:22Z</time></trkpt>
<trkpt lat="7534.55883333333" lon="739.037833333333"><ele></ele><time>2014-6-17T16:23:25Z</time></trkpt>
<trkpt lat="7534.55983333333" lon="739.034666666667"><ele></ele><time>2014-6-17T16:23:28Z</time></trkpt>
<trkpt lat="7534.56116666667" lon="739.0315"><ele></ele><time>2014-6-17T16:23:31Z</time></trkpt>
<trkpt lat="7534.56" lon="739.027833333333"><ele></ele><time>2014-6-17T16:23:34Z</time></trkpt>
<trkpt lat="7534.5605" lon="739.022166666667"><ele></ele><time>2014-6-17T16:23:37Z</time></trkpt>
<trkpt lat="7534.562" lon="739.015666666667"><ele></ele><time>2014-6-17T16:23:40Z</time></trkpt>
<trkpt lat="7534.5635" lon="739.0085"><ele></ele><time>2014-6-17T16:23:43Z</time></trkpt>
<trkpt lat="7534.5645" lon="739.002"><ele></ele><time>2014-6-17T16:23:46Z</time></trkpt>
<trkpt lat="7534.56483333333" lon="738.996333333333"><ele></ele><time>2014-6-17T16:23:49Z</time></trkpt>
<trkpt lat="7534.5645" lon="738.990166666667"><ele></ele><time>2014-6-17T16:23:52Z</time></trkpt>
<trkpt lat="7534.56333333333" lon="738.984333333333"><ele></ele><time>2014-6-17T16:23:55Z</time></trkpt>
<trkpt lat="7534.56166666667" lon="738.9795"><ele></ele><time>2014-6-17T16:23:58Z</time></trkpt>
<trkpt lat="7534.56266666667" lon="738.977"><ele></ele><time>2014-6-17T16:24:1Z</time></trkpt>
<trkpt lat="7534.55983333333" lon="738.978"><ele></ele><time>2014-6-17T16:24:4Z</time></trkpt>
<trkpt lat="7534.55716666667" lon="738.980166666667"><ele></ele><time>2014-6-17T16:24:7Z</time></trkpt>
<trkpt lat="7534.55433333333" lon="738.982833333333"><ele></ele><time>2014-6-17T16:24:10Z</time></trkpt>
<trkpt lat="7534.551" lon="738.985333333333"><ele></ele><time>2014-6-17T16:24:13Z</time></trkpt>
<trkpt lat="7534.54766666667" lon="738.987666666667"><ele></ele><time>2014-6-17T16:24:16Z</time></trkpt>
<trkpt lat="7534.54466666667" lon="738.990166666667"><ele></ele><time>2014-6-17T16:24:19Z</time></trkpt>
<trkpt lat="7534.54166666667" lon="738.992"><ele></ele><time>2014-6-17T16:24:22Z</time></trkpt>
<trkpt lat="7534.53866666667" lon="738.9945"><ele></ele><time>2014-6-17T16:24:25Z</time></trkpt>
<trkpt lat="7534.53583333333" lon="738.997166666667"><ele></ele><time>2014-6-17T16:24:28Z</time></trkpt>
<trkpt lat="7534.53266666667" lon="738.9995"><ele></ele><time>2014-6-17T16:24:31Z</time></trkpt>
<trkpt lat="7534.5295" lon="739.001"><ele></ele><time>2014-6-17T16:24:34Z</time></trkpt>
<trkpt lat="7534.52666666667" lon="739.002333333333"><ele></ele><time>2014-6-17T16:24:37Z</time></trkpt>
<trkpt lat="7534.524" lon="739.003333333333"><ele></ele><time>2014-6-17T16:24:40Z</time></trkpt>
<trkpt lat="7534.52116666667" lon="739.003666666667"><ele></ele><time>2014-6-17T16:24:43Z</time></trkpt>
<trkpt lat="7534.518" lon="739.004166666667"><ele></ele><time>2014-6-17T16:24:46Z</time></trkpt>
<trkpt lat="7534.51483333333" lon="739.005"><ele></ele><time>2014-6-17T16:24:49Z</time></trkpt>
<trkpt lat="7534.5125" lon="739.0055"><ele></ele><time>2014-6-17T16:24:52Z</time></trkpt>
<trkpt lat="7534.50983333333" lon="739.005666666667"><ele></ele><time>2014-6-17T16:24:55Z</time></trkpt>
<trkpt lat="7534.50716666667" lon="739.005666666667"><ele></ele><time>2014-6-17T16:24:58Z</time></trkpt>
<trkpt lat="7534.505" lon="739.005"><ele></ele><time>2014-6-17T16:25:1Z</time></trkpt>
<trkpt lat="7534.5035" lon="739.003333333333"><ele></ele><time>2014-6-17T16:25:4Z</time></trkpt>
<trkpt lat="7534.50183333333" lon="739.002666666667"><ele></ele><time>2014-6-17T16:25:7Z</time></trkpt>
<trkpt lat="7534.50033333333" lon="739.002333333333"><ele></ele><time>2014-6-17T16:25:10Z</time></trkpt>
<trkpt lat="7534.4985" lon="739.002666666667"><ele></ele><time>2014-6-17T16:25:13Z</time></trkpt>
<trkpt lat="7534.496" lon="739.001833333333"><ele></ele><time>2014-6-17T16:25:16Z</time></trkpt>
<trkpt lat="7534.494" lon="739.001"><ele></ele><time>2014-6-17T16:25:19Z</time></trkpt>
<trkpt lat="7534.492" lon="739.000833333333"><ele></ele><time>2014-6-17T16:25:22Z</time></trkpt>
<trkpt lat="7534.48983333333" lon="739.001"><ele></ele><time>2014-6-17T16:25:25Z</time></trkpt>
<trkpt lat="7534.48766666667" lon="739.000833333333"><ele></ele><time>2014-6-17T16:25:28Z</time></trkpt>
<trkpt lat="7534.48583333333" lon="739.000666666667"><ele></ele><time>2014-6-17T16:25:31Z</time></trkpt>
<trkpt lat="7534.48433333333" lon="738.999333333333"><ele></ele><time>2014-6-17T16:25:34Z</time></trkpt>
<trkpt lat="7534.48266666667" lon="738.998166666667"><ele></ele><time>2014-6-17T16:25:37Z</time></trkpt>
<trkpt lat="7534.48066666667" lon="738.997"><ele></ele><time>2014-6-17T16:25:40Z</time></trkpt>
<trkpt lat="7534.4785" lon="738.995166666667"><ele></ele><time>2014-6-17T16:25:43Z</time></trkpt>
<trkpt lat="7534.47633333333" lon="738.993666666667"><ele></ele><time>2014-6-17T16:25:46Z</time></trkpt>
<trkpt lat="7534.47466666667" lon="738.992333333333"><ele></ele><time>2014-6-17T16:25:49Z</time></trkpt>
<trkpt lat="7534.47316666667" lon="738.991333333333"><ele></ele><time>2014-6-17T16:25:52Z</time></trkpt>
<trkpt lat="7534.4715" lon="738.989666666667"><ele></ele><time>2014-6-17T16:25:55Z</time></trkpt>
<trkpt lat="7534.47" lon="738.987833333333"><ele></ele><time>2014-6-17T16:25:58Z</time></trkpt>
<trkpt lat="7534.46866666667" lon="738.986"><ele></ele><time>2014-6-17T16:26:1Z</time></trkpt>
<trkpt lat="7534.46666666667" lon="738.9835"><ele></ele><time>2014-6-17T16:26:4Z</time></trkpt>
<trkpt lat="7534.4645" lon="738.982333333333"><ele></ele><time>2014-6-17T16:26:7Z</time></trkpt>
<trkpt lat="7534.462" lon="738.981666666667"><ele></ele><time>2014-6-17T16:26:10Z</time></trkpt>
<trkpt lat="7534.45966666667" lon="738.980666666667"><ele></ele><time>2014-6-17T16:26:13Z</time></trkpt>
<trkpt lat="7534.45766666667" lon="738.979"><ele></ele><time>2014-6-17T16:26:16Z</time></trkpt>
<trkpt lat="7534.45533333333" lon="738.978166666667"><ele></ele><time>2014-6-17T16:26:19Z</time></trkpt>
<trkpt lat="7534.45283333333" lon="738.977166666667"><ele></ele><time>2014-6-17T16:26:22Z</time></trkpt>
<trkpt lat="7534.45033333333" lon="738.976666666667"><ele></ele><time>2014-6-17T16:26:25Z</time></trkpt>
<trkpt lat="7534.44783333333" lon="738.976833333333"><ele></ele><time>2014-6-17T16:26:28Z</time></trkpt>
<trkpt lat="7534.44516666667" lon="738.978666666667"><ele></ele><time>2014-6-17T16:26:31Z</time></trkpt>
<trkpt lat="7534.44233333333" lon="738.980666666667"><ele></ele><time>2014-6-17T16:26:34Z</time></trkpt>
<trkpt lat="7534.43983333333" lon="738.981833333333"><ele></ele><time>2014-6-17T16:26:37Z</time></trkpt>
<trkpt lat="7534.4375" lon="738.982666666667"><ele></ele><time>2014-6-17T16:26:40Z</time></trkpt>
<trkpt lat="7534.435" lon="738.984333333333"><ele></ele><time>2014-6-17T16:26:43Z</time></trkpt>
<trkpt lat="7534.432" lon="738.9865"><ele></ele><time>2014-6-17T16:26:46Z</time></trkpt>
<trkpt lat="7534.42933333333" lon="738.989"><ele></ele><time>2014-6-17T16:26:49Z</time></trkpt>
<trkpt lat="7534.4265" lon="738.990666666667"><ele></ele><time>2014-6-17T16:26:52Z</time></trkpt>
<trkpt lat="7534.4235" lon="738.991666666667"><ele></ele><time>2014-6-17T16:26:55Z</time></trkpt>
<trkpt lat="7534.4205" lon="738.993333333333"><ele></ele><time>2014-6-17T16:26:58Z</time></trkpt>
<trkpt lat="7534.41733333333" lon="738.995166666667"><ele></ele><time>2014-6-17T16:27:1Z</time></trkpt>
<trkpt lat="7534.41416666667" lon="738.996833333333"><ele></ele><time>2014-6-17T16:27:4Z</time></trkpt>
<trkpt lat="7534.409" lon="738.999"><ele></ele><time>2014-6-17T16:27:7Z</time></trkpt>
<trkpt lat="7534.40416666667" lon="739.000666666667"><ele></ele><time>2014-6-17T16:27:10Z</time></trkpt>
<trkpt lat="7534.40033333333" lon="739.002"><ele></ele><time>2014-6-17T16:27:13Z</time></trkpt>
<trkpt lat="7534.39666666667" lon="739.0035"><ele></ele><time>2014-6-17T16:27:16Z</time></trkpt>
<trkpt lat="7534.39216666667" lon="739.005166666667"><ele></ele><time>2014-6-17T16:27:19Z</time></trkpt>
<trkpt lat="7534.38766666667" lon="739.007333333333"><ele></ele><time>2014-6-17T16:27:22Z</time></trkpt>
<trkpt lat="7534.38333333333" lon="739.0095"><ele></ele><time>2014-6-17T16:27:25Z</time></trkpt>
<trkpt lat="7534.37883333333" lon="739.011833333333"><ele></ele><time>2014-6-17T16:27:28Z</time></trkpt>
<trkpt lat="7534.3745" lon="739.014166666667"><ele></ele><time>2014-6-17T16:27:31Z</time></trkpt>
<trkpt lat="7534.37033333333" lon="739.0165"><ele></ele><time>2014-6-17T16:27:34Z</time></trkpt>
<trkpt lat="7534.36516666667" lon="739.019833333333"><ele></ele><time>2014-6-17T16:27:37Z</time></trkpt>
<trkpt lat="7534.36016666667" lon="739.022666666667"><ele></ele><time>2014-6-17T16:27:40Z</time></trkpt>
<trkpt lat="7534.35583333333" lon="739.024666666667"><ele></ele><time>2014-6-17T16:27:43Z</time></trkpt>
<trkpt lat="7534.3465" lon="739.026"><ele></ele><time>2014-6-17T16:27:46Z</time></trkpt>
<trkpt lat="7534.34216666667" lon="739.027666666667"><ele></ele><time>2014-6-17T16:27:49Z</time></trkpt>
<trkpt lat="7534.33783333333" lon="739.028333333333"><ele></ele><time>2014-6-17T16:27:52Z</time></trkpt>
<trkpt lat="7534.3335" lon="739.028"><ele></ele><time>2014-6-17T16:27:55Z</time></trkpt>
<trkpt lat="7534.32866666667" lon="739.0285"><ele></ele><time>2014-6-17T16:27:58Z</time></trkpt>
<trkpt lat="7534.32466666667" lon="739.0295"><ele></ele><time>2014-6-17T16:28:1Z</time></trkpt>
<trkpt lat="7534.32066666667" lon="739.029"><ele></ele><time>2014-6-17T16:28:4Z</time></trkpt>
<trkpt lat="7534.31666666667" lon="739.027833333333"><ele></ele><time>2014-6-17T16:28:7Z</time></trkpt>
<trkpt lat="7534.3125" lon="739.029333333333"><ele></ele><time>2014-6-17T16:28:10Z</time></trkpt>
<trkpt lat="7534.30833333333" lon="739.03"><ele></ele><time>2014-6-17T16:28:13Z</time></trkpt>
<trkpt lat="7534.30433333333" lon="739.031"><ele></ele><time>2014-6-17T16:28:16Z</time></trkpt>
<trkpt lat="7534.30033333333" lon="739.033"><ele></ele><time>2014-6-17T16:28:19Z</time></trkpt>
<trkpt lat="7534.29633333333" lon="739.033833333333"><ele></ele><time>2014-6-17T16:28:22Z</time></trkpt>
<trkpt lat="7534.2925" lon="739.035833333333"><ele></ele><time>2014-6-17T16:28:25Z</time></trkpt>
<trkpt lat="7534.28866666667" lon="739.038166666667"><ele></ele><time>2014-6-17T16:28:28Z</time></trkpt>
<trkpt lat="7534.28466666667" lon="739.040166666667"><ele></ele><time>2014-6-17T16:28:31Z</time></trkpt>
<trkpt lat="7534.2805" lon="739.041833333333"><ele></ele><time>2014-6-17T16:28:34Z</time></trkpt>
<trkpt lat="7534.27633333333" lon="739.042833333333"><ele></ele><time>2014-6-17T16:28:37Z</time></trkpt>
<trkpt lat="7534.27233333333" lon="739.044333333333"><ele></ele><time>2014-6-17T16:28:40Z</time></trkpt>
<trkpt lat="7534.26833333333" lon="739.047166666667"><ele></ele><time>2014-6-17T16:28:43Z</time></trkpt>
<trkpt lat="7534.2645" lon="739.0505"><ele></ele><time>2014-6-17T16:28:46Z</time></trkpt>
<trkpt lat="7534.26066666667" lon="739.053666666667"><ele></ele><time>2014-6-17T16:28:49Z</time></trkpt>
<trkpt lat="7534.257" lon="739.056666666667"><ele></ele><time>2014-6-17T16:28:52Z</time></trkpt>
<trkpt lat="7534.25383333333" lon="739.059166666667"><ele></ele><time>2014-6-17T16:28:55Z</time></trkpt>
<trkpt lat="7534.25083333333" lon="739.060833333333"><ele></ele><time>2014-6-17T16:28:58Z</time></trkpt>
<trkpt lat="7534.24766666667" lon="739.062833333333"><ele></ele><time>2014-6-17T16:29:1Z</time></trkpt>
<trkpt lat="7534.2445" lon="739.064666666667"><ele></ele><time>2014-6-17T16:29:4Z</time></trkpt>
<trkpt lat="7534.24116666667" lon="739.065833333333"><ele></ele><time>2014-6-17T16:29:7Z</time></trkpt>
<trkpt lat="7534.23766666667" lon="739.066333333333"><ele></ele><time>2014-6-17T16:29:10Z</time></trkpt>
<trkpt lat="7534.23383333333" lon="739.068"><ele></ele><time>2014-6-17T16:29:13Z</time></trkpt>
<trkpt lat="7534.22983333333" lon="739.069833333333"><ele></ele><time>2014-6-17T16:29:16Z</time></trkpt>
<trkpt lat="7534.226" lon="739.072166666667"><ele></ele><time>2014-6-17T16:29:19Z</time></trkpt>
<trkpt lat="7534.222" lon="739.074"><ele></ele><time>2014-6-17T16:29:22Z</time></trkpt>
<trkpt lat="7534.21766666667" lon="739.075"><ele></ele><time>2014-6-17T16:29:25Z</time></trkpt>
<trkpt lat="7534.21333333333" lon="739.076333333333"><ele></ele><time>2014-6-17T16:29:28Z</time></trkpt>
<trkpt lat="7534.20933333333" lon="739.0785"><ele></ele><time>2014-6-17T16:29:31Z</time></trkpt>
<trkpt lat="7534.20616666667" lon="739.081"><ele></ele><time>2014-6-17T16:29:34Z</time></trkpt>
<trkpt lat="7534.20383333333" lon="739.083333333333"><ele></ele><time>2014-6-17T16:29:37Z</time></trkpt>
<trkpt lat="7534.2015" lon="739.085833333333"><ele></ele><time>2014-6-17T16:29:40Z</time></trkpt>
<trkpt lat="7534.199" lon="739.088833333333"><ele></ele><time>2014-6-17T16:29:43Z</time></trkpt>
<trkpt lat="7534.1965" lon="739.0905"><ele></ele><time>2014-6-17T16:29:46Z</time></trkpt>
<trkpt lat="7534.19416666667" lon="739.092666666667"><ele></ele><time>2014-6-17T16:29:49Z</time></trkpt>
<trkpt lat="7534.1915" lon="739.095333333333"><ele></ele><time>2014-6-17T16:29:52Z</time></trkpt>
<trkpt lat="7534.18833333333" lon="739.097166666667"><ele></ele><time>2014-6-17T16:29:55Z</time></trkpt>
<trkpt lat="7534.18466666667" lon="739.098"><ele></ele><time>2014-6-17T16:29:58Z</time></trkpt>
<trkpt lat="7534.1805" lon="739.0985"><ele></ele><time>2014-6-17T16:30:1Z</time></trkpt>
<trkpt lat="7534.17533333333" lon="739.102833333333"><ele></ele><time>2014-6-17T16:30:4Z</time></trkpt>
<trkpt lat="7534.17116666667" lon="739.105166666667"><ele></ele><time>2014-6-17T16:30:7Z</time></trkpt>
<trkpt lat="7534.16766666667" lon="739.107333333333"><ele></ele><time>2014-6-17T16:30:10Z</time></trkpt>
<trkpt lat="7534.16383333333" lon="739.11"><ele></ele><time>2014-6-17T16:30:13Z</time></trkpt>
<trkpt lat="7534.16016666667" lon="739.112166666667"><ele></ele><time>2014-6-17T16:30:16Z</time></trkpt>
<trkpt lat="7534.15633333333" lon="739.114333333333"><ele></ele><time>2014-6-17T16:30:19Z</time></trkpt>
<trkpt lat="7534.15216666667" lon="739.116833333333"><ele></ele><time>2014-6-17T16:30:22Z</time></trkpt>
<trkpt lat="7534.14833333333" lon="739.118333333333"><ele></ele><time>2014-6-17T16:30:25Z</time></trkpt>
<trkpt lat="7534.14516666667" lon="739.120333333333"><ele></ele><time>2014-6-17T16:30:28Z</time></trkpt>
<trkpt lat="7534.14133333333" lon="739.124833333333"><ele></ele><time>2014-6-17T16:30:31Z</time></trkpt>
<trkpt lat="7534.13766666667" lon="739.126666666667"><ele></ele><time>2014-6-17T16:30:34Z</time></trkpt>
<trkpt lat="7534.13316666667" lon="739.1285"><ele></ele><time>2014-6-17T16:30:37Z</time></trkpt>
<trkpt lat="7534.12883333333" lon="739.130166666667"><ele></ele><time>2014-6-17T16:30:40Z</time></trkpt>
<trkpt lat="7534.12483333333" lon="739.132166666667"><ele></ele><time>2014-6-17T16:30:43Z</time></trkpt>
<trkpt lat="7534.12033333333" lon="739.134333333333"><ele></ele><time>2014-6-17T16:30:46Z</time></trkpt>
<trkpt lat="7534.116" lon="739.135666666667"><ele></ele><time>2014-6-17T16:30:49Z</time></trkpt>
<trkpt lat="7534.11166666667" lon="739.137333333333"><ele></ele><time>2014-6-17T16:30:52Z</time></trkpt>
<trkpt lat="7534.108" lon="739.138666666667"><ele></ele><time>2014-6-17T16:30:55Z</time></trkpt>
<trkpt lat="7534.10383333333" lon="739.140166666667"><ele></ele><time>2014-6-17T16:30:58Z</time></trkpt>
<trkpt lat="7534.09966666667" lon="739.140833333333"><ele></ele><time>2014-6-17T16:31:1Z</time></trkpt>
<trkpt lat="7534.095" lon="739.140166666667"><ele></ele><time>2014-6-17T16:31:4Z</time></trkpt>
<trkpt lat="7534.09066666667" lon="739.139833333333"><ele></ele><time>2014-6-17T16:31:7Z</time></trkpt>
<trkpt lat="7534.085" lon="739.138833333333"><ele></ele><time>2014-6-17T16:31:10Z</time></trkpt>
<trkpt lat="7534.07666666667" lon="739.138166666667"><ele></ele><time>2014-6-17T16:31:13Z</time></trkpt>
<trkpt lat="7534.065" lon="739.135166666667"><ele></ele><time>2014-6-17T16:31:16Z</time></trkpt>
<trkpt lat="7534.058" lon="739.134333333333"><ele></ele><time>2014-6-17T16:31:19Z</time></trkpt>
<trkpt lat="7534.04983333333" lon="739.136333333333"><ele></ele><time>2014-6-17T16:31:22Z</time></trkpt>
<trkpt lat="7534.041" lon="739.141833333333"><ele></ele><time>2014-6-17T16:31:25Z</time></trkpt>
<trkpt lat="7534.036" lon="739.144666666667"><ele></ele><time>2014-6-17T16:31:28Z</time></trkpt>
<trkpt lat="7534.031" lon="739.145166666667"><ele></ele><time>2014-6-17T16:31:31Z</time></trkpt>
<trkpt lat="7534.0255" lon="739.1455"><ele></ele><time>2014-6-17T16:31:34Z</time></trkpt>
<trkpt lat="7534.0205" lon="739.146166666667"><ele></ele><time>2014-6-17T16:31:37Z</time></trkpt>
<trkpt lat="7534.01533333333" lon="739.147"><ele></ele><time>2014-6-17T16:31:40Z</time></trkpt>
<trkpt lat="7534.0095" lon="739.15"><ele></ele><time>2014-6-17T16:31:43Z</time></trkpt>
<trkpt lat="7534.0035" lon="739.1515"><ele></ele><time>2014-6-17T16:31:46Z</time></trkpt>
<trkpt lat="7533.99816666667" lon="739.152"><ele></ele><time>2014-6-17T16:31:49Z</time></trkpt>
<trkpt lat="7533.991" lon="739.152333333333"><ele></ele><time>2014-6-17T16:31:52Z</time></trkpt>
<trkpt lat="7533.985" lon="739.154"><ele></ele><time>2014-6-17T16:31:55Z</time></trkpt>
<trkpt lat="7533.98016666667" lon="739.154666666667"><ele></ele><time>2014-6-17T16:31:58Z</time></trkpt>
<trkpt lat="7533.97483333333" lon="739.155833333333"><ele></ele><time>2014-6-17T16:32:1Z</time></trkpt>
<trkpt lat="7533.97" lon="739.157"><ele></ele><time>2014-6-17T16:32:4Z</time></trkpt>
<trkpt lat="7533.96516666667" lon="739.1575"><ele></ele><time>2014-6-17T16:32:7Z</time></trkpt>
<trkpt lat="7533.96" lon="739.158"><ele></ele><time>2014-6-17T16:32:10Z</time></trkpt>
<trkpt lat="7533.95466666667" lon="739.1595"><ele></ele><time>2014-6-17T16:32:13Z</time></trkpt>
<trkpt lat="7533.94966666667" lon="739.159833333333"><ele></ele><time>2014-6-17T16:32:16Z</time></trkpt>
<trkpt lat="7533.94466666667" lon="739.159833333333"><ele></ele><time>2014-6-17T16:32:19Z</time></trkpt>
<trkpt lat="7533.93933333333" lon="739.159666666667"><ele></ele><time>2014-6-17T16:32:22Z</time></trkpt>
<trkpt lat="7533.9335" lon="739.159666666667"><ele></ele><time>2014-6-17T16:32:25Z</time></trkpt>
<trkpt lat="7533.92833333333" lon="739.160166666667"><ele></ele><time>2014-6-17T16:32:28Z</time></trkpt>
<trkpt lat="7533.9235" lon="739.160666666667"><ele></ele><time>2014-6-17T16:32:31Z</time></trkpt>
<trkpt lat="7533.9185" lon="739.160166666667"><ele></ele><time>2014-6-17T16:32:34Z</time></trkpt>
<trkpt lat="7533.9135" lon="739.159166666667"><ele></ele><time>2014-6-17T16:32:37Z</time></trkpt>
<trkpt lat="7533.90833333333" lon="739.1585"><ele></ele><time>2014-6-17T16:32:40Z</time></trkpt>
<trkpt lat="7533.90283333333" lon="739.158"><ele></ele><time>2014-6-17T16:32:43Z</time></trkpt>
<trkpt lat="7533.89783333333" lon="739.156166666667"><ele></ele><time>2014-6-17T16:32:46Z</time></trkpt>
<trkpt lat="7533.89233333333" lon="739.155166666667"><ele></ele><time>2014-6-17T16:32:49Z</time></trkpt>
<trkpt lat="7533.88733333333" lon="739.154"><ele></ele><time>2014-6-17T16:32:52Z</time></trkpt>
<trkpt lat="7533.88233333333" lon="739.153333333333"><ele></ele><time>2014-6-17T16:32:55Z</time></trkpt>
<trkpt lat="7533.87733333333" lon="739.152833333333"><ele></ele><time>2014-6-17T16:32:58Z</time></trkpt>
<trkpt lat="7533.87233333333" lon="739.152333333333"><ele></ele><time>2014-6-17T16:33:1Z</time></trkpt>
<trkpt lat="7533.86766666667" lon="739.152166666667"><ele></ele><time>2014-6-17T16:33:4Z</time></trkpt>
<trkpt lat="7533.86333333333" lon="739.1515"><ele></ele><time>2014-6-17T16:33:7Z</time></trkpt>
<trkpt lat="7533.85916666667" lon="739.1505"><ele></ele><time>2014-6-17T16:33:10Z</time></trkpt>
<trkpt lat="7533.8545" lon="739.149333333333"><ele></ele><time>2014-6-17T16:33:13Z</time></trkpt>
<trkpt lat="7533.84933333333" lon="739.1475"><ele></ele><time>2014-6-17T16:33:16Z</time></trkpt>
<trkpt lat="7533.84466666667" lon="739.1475"><ele></ele><time>2014-6-17T16:33:19Z</time></trkpt>
<trkpt lat="7533.84" lon="739.147"><ele></ele><time>2014-6-17T16:33:22Z</time></trkpt>
<trkpt lat="7533.8355" lon="739.146333333333"><ele></ele><time>2014-6-17T16:33:25Z</time></trkpt>
<trkpt lat="7533.83083333333" lon="739.145833333333"><ele></ele><time>2014-6-17T16:33:28Z</time></trkpt>
<trkpt lat="7533.82633333333" lon="739.144666666667"><ele></ele><time>2014-6-17T16:33:31Z</time></trkpt>
<trkpt lat="7533.8215" lon="739.145166666667"><ele></ele><time>2014-6-17T16:33:34Z</time></trkpt>
<trkpt lat="7533.81633333333" lon="739.146333333333"><ele></ele><time>2014-6-17T16:33:37Z</time></trkpt>
<trkpt lat="7533.81133333333" lon="739.146666666667"><ele></ele><time>2014-6-17T16:33:40Z</time></trkpt>
<trkpt lat="7533.806" lon="739.1465"><ele></ele><time>2014-6-17T16:33:43Z</time></trkpt>
<trkpt lat="7533.80116666667" lon="739.147"><ele></ele><time>2014-6-17T16:33:46Z</time></trkpt>
<trkpt lat="7533.796" lon="739.147333333333"><ele></ele><time>2014-6-17T16:33:49Z</time></trkpt>
<trkpt lat="7533.791" lon="739.147166666667"><ele></ele><time>2014-6-17T16:33:52Z</time></trkpt>
<trkpt lat="7533.78583333333" lon="739.147"><ele></ele><time>2014-6-17T16:33:55Z</time></trkpt>
<trkpt lat="7533.77966666667" lon="739.146833333333"><ele></ele><time>2014-6-17T16:33:58Z</time></trkpt>
<trkpt lat="7533.77433333333" lon="739.147666666667"><ele></ele><time>2014-6-17T16:34:1Z</time></trkpt>
<trkpt lat="7533.7695" lon="739.147666666667"><ele></ele><time>2014-6-17T16:34:4Z</time></trkpt>
<trkpt lat="7533.76466666667" lon="739.146666666667"><ele></ele><time>2014-6-17T16:34:7Z</time></trkpt>
<trkpt lat="7533.75983333333" lon="739.1475"><ele></ele><time>2014-6-17T16:34:10Z</time></trkpt>
<trkpt lat="7533.75483333333" lon="739.148333333333"><ele></ele><time>2014-6-17T16:34:13Z</time></trkpt>
<trkpt lat="7533.74983333333" lon="739.148833333333"><ele></ele><time>2014-6-17T16:34:16Z</time></trkpt>
<trkpt lat="7533.74466666667" lon="739.149"><ele></ele><time>2014-6-17T16:34:19Z</time></trkpt>
<trkpt lat="7533.73983333333" lon="739.148833333333"><ele></ele><time>2014-6-17T16:34:22Z</time></trkpt>
<trkpt lat="7533.735" lon="739.149333333333"><ele></ele><time>2014-6-17T16:34:25Z</time></trkpt>
<trkpt lat="7533.73016666667" lon="739.150166666667"><ele></ele><time>2014-6-17T16:34:28Z</time></trkpt>
<trkpt lat="7533.7255" lon="739.151333333333"><ele></ele><time>2014-6-17T16:34:31Z</time></trkpt>
<trkpt lat="7533.72083333333" lon="739.152666666667"><ele></ele><time>2014-6-17T16:34:34Z</time></trkpt>
<trkpt lat="7533.716" lon="739.1545"><ele></ele><time>2014-6-17T16:34:37Z</time></trkpt>
<trkpt lat="7533.71116666667" lon="739.156"><ele></ele><time>2014-6-17T16:34:40Z</time></trkpt>
<trkpt lat="7533.70666666667" lon="739.157166666667"><ele></ele><time>2014-6-17T16:34:43Z</time></trkpt>
<trkpt lat="7533.70216666667" lon="739.158666666667"><ele></ele><time>2014-6-17T16:34:46Z</time></trkpt>
<trkpt lat="7533.69783333333" lon="739.16"><ele></ele><time>2014-6-17T16:34:49Z</time></trkpt>
<trkpt lat="7533.69366666667" lon="739.161333333333"><ele></ele><time>2014-6-17T16:34:52Z</time></trkpt>
<trkpt lat="7533.68916666667" lon="739.162333333333"><ele></ele><time>2014-6-17T16:34:55Z</time></trkpt>
<trkpt lat="7533.68466666667" lon="739.163333333333"><ele></ele><time>2014-6-17T16:34:58Z</time></trkpt>
<trkpt lat="7533.68033333333" lon="739.164333333333"><ele></ele><time>2014-6-17T16:35:1Z</time></trkpt>
<trkpt lat="7533.67616666667" lon="739.165833333333"><ele></ele><time>2014-6-17T16:35:4Z</time></trkpt>
<trkpt lat="7533.67183333333" lon="739.1675"><ele></ele><time>2014-6-17T16:35:7Z</time></trkpt>
<trkpt lat="7533.6675" lon="739.169"><ele></ele><time>2014-6-17T16:35:10Z</time></trkpt>
<trkpt lat="7533.663" lon="739.170833333333"><ele></ele><time>2014-6-17T16:35:13Z</time></trkpt>
<trkpt lat="7533.6585" lon="739.172"><ele></ele><time>2014-6-17T16:35:16Z</time></trkpt>
<trkpt lat="7533.65383333333" lon="739.1735"><ele></ele><time>2014-6-17T16:35:19Z</time></trkpt>
<trkpt lat="7533.64916666667" lon="739.175333333333"><ele></ele><time>2014-6-17T16:35:22Z</time></trkpt>
<trkpt lat="7533.64483333333" lon="739.177166666667"><ele></ele><time>2014-6-17T16:35:25Z</time></trkpt>
<trkpt lat="7533.6405" lon="739.179166666667"><ele></ele><time>2014-6-17T16:35:28Z</time></trkpt>
<trkpt lat="7533.63616666667" lon="739.182166666667"><ele></ele><time>2014-6-17T16:35:31Z</time></trkpt>
<trkpt lat="7533.63166666667" lon="739.184833333333"><ele></ele><time>2014-6-17T16:35:34Z</time></trkpt>
<trkpt lat="7533.62733333333" lon="739.186666666667"><ele></ele><time>2014-6-17T16:35:37Z</time></trkpt>
<trkpt lat="7533.62333333333" lon="739.188166666667"><ele></ele><time>2014-6-17T16:35:40Z</time></trkpt>
<trkpt lat="7533.61916666667" lon="739.1895"><ele></ele><time>2014-6-17T16:35:43Z</time></trkpt>
<trkpt lat="7533.61466666667" lon="739.190333333333"><ele></ele><time>2014-6-17T16:35:46Z</time></trkpt>
<trkpt lat="7533.61" lon="739.191166666667"><ele></ele><time>2014-6-17T16:35:49Z</time></trkpt>
<trkpt lat="7533.6055" lon="739.192666666667"><ele></ele><time>2014-6-17T16:35:52Z</time></trkpt>
<trkpt lat="7533.601" lon="739.193833333333"><ele></ele><time>2014-6-17T16:35:55Z</time></trkpt>
<trkpt lat="7533.59666666667" lon="739.194833333333"><ele></ele><time>2014-6-17T16:35:58Z</time></trkpt>
<trkpt lat="7533.59216666667" lon="739.196166666667"><ele></ele><time>2014-6-17T16:36:1Z</time></trkpt>
<trkpt lat="7533.58766666667" lon="739.197666666667"><ele></ele><time>2014-6-17T16:36:4Z</time></trkpt>
<trkpt lat="7533.58383333333" lon="739.199333333333"><ele></ele><time>2014-6-17T16:36:7Z</time></trkpt>
<trkpt lat="7533.57983333333" lon="739.201"><ele></ele><time>2014-6-17T16:36:10Z</time></trkpt>
<trkpt lat="7533.57566666667" lon="739.202333333333"><ele></ele><time>2014-6-17T16:36:13Z</time></trkpt>
<trkpt lat="7533.57116666667" lon="739.203833333333"><ele></ele><time>2014-6-17T16:36:16Z</time></trkpt>
<trkpt lat="7533.567" lon="739.206666666667"><ele></ele><time>2014-6-17T16:36:19Z</time></trkpt>
<trkpt lat="7533.56283333333" lon="739.208333333333"><ele></ele><time>2014-6-17T16:36:22Z</time></trkpt>
<trkpt lat="7533.55883333333" lon="739.210166666667"><ele></ele><time>2014-6-17T16:36:25Z</time></trkpt>
<trkpt lat="7533.55483333333" lon="739.211833333333"><ele></ele><time>2014-6-17T16:36:28Z</time></trkpt>
<trkpt lat="7533.551" lon="739.213666666667"><ele></ele><time>2014-6-17T16:36:31Z</time></trkpt>
<trkpt lat="7533.54733333333" lon="739.215833333333"><ele></ele><time>2014-6-17T16:36:34Z</time></trkpt>
<trkpt lat="7533.5435" lon="739.218"><ele></ele><time>2014-6-17T16:36:37Z</time></trkpt>
<trkpt lat="7533.53966666667" lon="739.219833333333"><ele></ele><time>2014-6-17T16:36:40Z</time></trkpt>
<trkpt lat="7533.53583333333" lon="739.221833333333"><ele></ele><time>2014-6-17T16:36:43Z</time></trkpt>
<trkpt lat="7533.53183333333" lon="739.2245"><ele></ele><time>2014-6-17T16:36:46Z</time></trkpt>
<trkpt lat="7533.528" lon="739.227333333333"><ele></ele><time>2014-6-17T16:36:49Z</time></trkpt>
<trkpt lat="7533.52483333333" lon="739.23"><ele></ele><time>2014-6-17T16:36:52Z</time></trkpt>
<trkpt lat="7533.52183333333" lon="739.232333333333"><ele></ele><time>2014-6-17T16:36:55Z</time></trkpt>
<trkpt lat="7533.519" lon="739.233833333333"><ele></ele><time>2014-6-17T16:36:58Z</time></trkpt>
<trkpt lat="7533.51633333333" lon="739.236"><ele></ele><time>2014-6-17T16:37:1Z</time></trkpt>
<trkpt lat="7533.5135" lon="739.238333333333"><ele></ele><time>2014-6-17T16:37:4Z</time></trkpt>
<trkpt lat="7533.51033333333" lon="739.241"><ele></ele><time>2014-6-17T16:37:7Z</time></trkpt>
<trkpt lat="7533.50716666667" lon="739.243833333333"><ele></ele><time>2014-6-17T16:37:10Z</time></trkpt>
<trkpt lat="7533.50433333333" lon="739.246166666667"><ele></ele><time>2014-6-17T16:37:13Z</time></trkpt>
<trkpt lat="7533.50166666667" lon="739.248666666667"><ele></ele><time>2014-6-17T16:37:16Z</time></trkpt>
<trkpt lat="7533.49916666667" lon="739.250333333333"><ele></ele><time>2014-6-17T16:37:19Z</time></trkpt>
<trkpt lat="7533.49716666667" lon="739.251333333333"><ele></ele><time>2014-6-17T16:37:22Z</time></trkpt>
<trkpt lat="7533.49583333333" lon="739.2525"><ele></ele><time>2014-6-17T16:37:25Z</time></trkpt>
<trkpt lat="7533.49433333333" lon="739.254666666667"><ele></ele><time>2014-6-17T16:37:28Z</time></trkpt>
<trkpt lat="7533.4925" lon="739.2575"><ele></ele><time>2014-6-17T16:37:31Z</time></trkpt>
<trkpt lat="7533.48916666667" lon="739.261166666667"><ele></ele><time>2014-6-17T16:37:34Z</time></trkpt>
<trkpt lat="7533.486" lon="739.265"><ele></ele><time>2014-6-17T16:37:37Z</time></trkpt>
<trkpt lat="7533.48316666667" lon="739.269666666667"><ele></ele><time>2014-6-17T16:37:40Z</time></trkpt>
<trkpt lat="7533.4805" lon="739.274333333333"><ele></ele><time>2014-6-17T16:37:43Z</time></trkpt>
<trkpt lat="7533.47783333333" lon="739.279"><ele></ele><time>2014-6-17T16:37:46Z</time></trkpt>
<trkpt lat="7533.4745" lon="739.282833333333"><ele></ele><time>2014-6-17T16:37:49Z</time></trkpt>
<trkpt lat="7533.47133333333" lon="739.286833333333"><ele></ele><time>2014-6-17T16:37:52Z</time></trkpt>
<trkpt lat="7533.46766666667" lon="739.291333333333"><ele></ele><time>2014-6-17T16:37:55Z</time></trkpt>
<trkpt lat="7533.46416666667" lon="739.295833333333"><ele></ele><time>2014-6-17T16:37:58Z</time></trkpt>
<trkpt lat="7533.46083333333" lon="739.302166666667"><ele></ele><time>2014-6-17T16:38:1Z</time></trkpt>
<trkpt lat="7533.45783333333" lon="739.3075"><ele></ele><time>2014-6-17T16:38:4Z</time></trkpt>
<trkpt lat="7533.4545" lon="739.313166666667"><ele></ele><time>2014-6-17T16:38:7Z</time></trkpt>
<trkpt lat="7533.451" lon="739.318833333333"><ele></ele><time>2014-6-17T16:38:10Z</time></trkpt>
<trkpt lat="7533.4475" lon="739.324333333333"><ele></ele><time>2014-6-17T16:38:13Z</time></trkpt>
<trkpt lat="7533.444" lon="739.3295"><ele></ele><time>2014-6-17T16:38:16Z</time></trkpt>
<trkpt lat="7533.44033333333" lon="739.335"><ele></ele><time>2014-6-17T16:38:19Z</time></trkpt>
<trkpt lat="7533.43633333333" lon="739.340833333333"><ele></ele><time>2014-6-17T16:38:22Z</time></trkpt>
<trkpt lat="7533.43266666667" lon="739.347833333333"><ele></ele><time>2014-6-17T16:38:25Z</time></trkpt>
<trkpt lat="7533.42916666667" lon="739.3535"><ele></ele><time>2014-6-17T16:38:28Z</time></trkpt>
<trkpt lat="7533.42533333333" lon="739.3595"><ele></ele><time>2014-6-17T16:38:31Z</time></trkpt>
<trkpt lat="7533.4215" lon="739.364"><ele></ele><time>2014-6-17T16:38:34Z</time></trkpt>
<trkpt lat="7533.41766666667" lon="739.3685"><ele></ele><time>2014-6-17T16:38:37Z</time></trkpt>
<trkpt lat="7533.41383333333" lon="739.372666666667"><ele></ele><time>2014-6-17T16:38:40Z</time></trkpt>
<trkpt lat="7533.4095" lon="739.3765"><ele></ele><time>2014-6-17T16:38:43Z</time></trkpt>
<trkpt lat="7533.40566666667" lon="739.3845"><ele></ele><time>2014-6-17T16:38:46Z</time></trkpt>
<trkpt lat="7533.40166666667" lon="739.387666666667"><ele></ele><time>2014-6-17T16:38:49Z</time></trkpt>
<trkpt lat="7533.3975" lon="739.391166666667"><ele></ele><time>2014-6-17T16:38:52Z</time></trkpt>
<trkpt lat="7533.39333333333" lon="739.395"><ele></ele><time>2014-6-17T16:38:55Z</time></trkpt>
<trkpt lat="7533.38916666667" lon="739.398333333333"><ele></ele><time>2014-6-17T16:38:58Z</time></trkpt>
<trkpt lat="7533.38616666667" lon="739.405"><ele></ele><time>2014-6-17T16:39:1Z</time></trkpt>
<trkpt lat="7533.38266666667" lon="739.4075"><ele></ele><time>2014-6-17T16:39:4Z</time></trkpt>
<trkpt lat="7533.379" lon="739.410333333333"><ele></ele><time>2014-6-17T16:39:7Z</time></trkpt>
<trkpt lat="7533.375" lon="739.413"><ele></ele><time>2014-6-17T16:39:10Z</time></trkpt>
<trkpt lat="7533.3705" lon="739.415833333333"><ele></ele><time>2014-6-17T16:39:13Z</time></trkpt>
<trkpt lat="7533.36633333333" lon="739.418833333333"><ele></ele><time>2014-6-17T16:39:16Z</time></trkpt>
<trkpt lat="7533.36216666667" lon="739.422"><ele></ele><time>2014-6-17T16:39:19Z</time></trkpt>
<trkpt lat="7533.35783333333" lon="739.425333333333"><ele></ele><time>2014-6-17T16:39:22Z</time></trkpt>
<trkpt lat="7533.3535" lon="739.4285"><ele></ele><time>2014-6-17T16:39:25Z</time></trkpt>
<trkpt lat="7533.34916666667" lon="739.431666666667"><ele></ele><time>2014-6-17T16:39:28Z</time></trkpt>
<trkpt lat="7533.34516666667" lon="739.434166666667"><ele></ele><time>2014-6-17T16:39:31Z</time></trkpt>
<trkpt lat="7533.3415" lon="739.4355"><ele></ele><time>2014-6-17T16:39:34Z</time></trkpt>
<trkpt lat="7533.33816666667" lon="739.435833333333"><ele></ele><time>2014-6-17T16:39:37Z</time></trkpt>
<trkpt lat="7533.33516666667" lon="739.435333333333"><ele></ele><time>2014-6-17T16:39:40Z</time></trkpt>
<trkpt lat="7533.33266666667" lon="739.434"><ele></ele><time>2014-6-17T16:39:43Z</time></trkpt>
<trkpt lat="7533.33066666667" lon="739.432333333333"><ele></ele><time>2014-6-17T16:39:46Z</time></trkpt>
<trkpt lat="7533.32916666667" lon="739.429833333333"><ele></ele><time>2014-6-17T16:39:49Z</time></trkpt>
<trkpt lat="7533.32566666667" lon="739.4225"><ele></ele><time>2014-6-17T16:39:52Z</time></trkpt>
<trkpt lat="7533.3235" lon="739.418"><ele></ele><time>2014-6-17T16:39:55Z</time></trkpt>
<trkpt lat="7533.322" lon="739.414833333333"><ele></ele><time>2014-6-17T16:39:58Z</time></trkpt>
<trkpt lat="7533.32016666667" lon="739.411666666667"><ele></ele><time>2014-6-17T16:40:1Z</time></trkpt>
<trkpt lat="7533.3185" lon="739.409333333333"><ele></ele><time>2014-6-17T16:40:4Z</time></trkpt>
<trkpt lat="7533.316" lon="739.407833333333"><ele></ele><time>2014-6-17T16:40:7Z</time></trkpt>
<trkpt lat="7533.314" lon="739.405666666667"><ele></ele><time>2014-6-17T16:40:10Z</time></trkpt>
<trkpt lat="7533.3125" lon="739.403833333333"><ele></ele><time>2014-6-17T16:40:13Z</time></trkpt>
<trkpt lat="7533.311" lon="739.4025"><ele></ele><time>2014-6-17T16:40:16Z</time></trkpt>
<trkpt lat="7533.30916666667" lon="739.4015"><ele></ele><time>2014-6-17T16:40:19Z</time></trkpt>
<trkpt lat="7533.30733333333" lon="739.4015"><ele></ele><time>2014-6-17T16:40:22Z</time></trkpt>
<trkpt lat="7533.3055" lon="739.4025"><ele></ele><time>2014-6-17T16:40:25Z</time></trkpt>
<trkpt lat="7533.3035" lon="739.403833333333"><ele></ele><time>2014-6-17T16:40:28Z</time></trkpt>
<trkpt lat="7533.30183333333" lon="739.404666666667"><ele></ele><time>2014-6-17T16:40:31Z</time></trkpt>
<trkpt lat="7533.3" lon="739.4045"><ele></ele><time>2014-6-17T16:40:34Z</time></trkpt>
<trkpt lat="7533.29833333333" lon="739.405"><ele></ele><time>2014-6-17T16:40:37Z</time></trkpt>
<trkpt lat="7533.29683333333" lon="739.405666666667"><ele></ele><time>2014-6-17T16:40:40Z</time></trkpt>
<trkpt lat="7533.295" lon="739.4065"><ele></ele><time>2014-6-17T16:40:43Z</time></trkpt>
<trkpt lat="7533.29333333333" lon="739.407833333333"><ele></ele><time>2014-6-17T16:40:46Z</time></trkpt>
<trkpt lat="7533.292" lon="739.409"><ele></ele><time>2014-6-17T16:40:49Z</time></trkpt>
<trkpt lat="7533.29033333333" lon="739.410166666667"><ele></ele><time>2014-6-17T16:40:52Z</time></trkpt>
<trkpt lat="7533.28866666667" lon="739.411166666667"><ele></ele><time>2014-6-17T16:40:55Z</time></trkpt>
<trkpt lat="7533.28766666667" lon="739.411666666667"><ele></ele><time>2014-6-17T16:40:58Z</time></trkpt>
<trkpt lat="7533.28683333333" lon="739.412333333333"><ele></ele><time>2014-6-17T16:41:1Z</time></trkpt>
<trkpt lat="7533.2865" lon="739.4115"><ele></ele><time>2014-6-17T16:41:4Z</time></trkpt>
<trkpt lat="7533.2855" lon="739.410666666667"><ele></ele><time>2014-6-17T16:41:7Z</time></trkpt>
<trkpt lat="7533.2845" lon="739.410666666667"><ele></ele><time>2014-6-17T16:41:10Z</time></trkpt>
<trkpt lat="7533.28316666667" lon="739.411666666667"><ele></ele><time>2014-6-17T16:41:13Z</time></trkpt>
<trkpt lat="7533.2815" lon="739.412333333333"><ele></ele><time>2014-6-17T16:41:16Z</time></trkpt>
<trkpt lat="7533.28" lon="739.411666666667"><ele></ele><time>2014-6-17T16:41:19Z</time></trkpt>
<trkpt lat="7533.2785" lon="739.410833333333"><ele></ele><time>2014-6-17T16:41:22Z</time></trkpt>
<trkpt lat="7533.27716666667" lon="739.410333333333"><ele></ele><time>2014-6-17T16:41:25Z</time></trkpt>
<trkpt lat="7533.27616666667" lon="739.411333333333"><ele></ele><time>2014-6-17T16:41:28Z</time></trkpt>
<trkpt lat="7533.272" lon="739.410333333333"><ele></ele><time>2014-6-17T16:41:31Z</time></trkpt>
<trkpt lat="7533.26933333333" lon="739.409833333333"><ele></ele><time>2014-6-17T16:41:34Z</time></trkpt>
<trkpt lat="7533.26666666667" lon="739.410333333333"><ele></ele><time>2014-6-17T16:41:37Z</time></trkpt>
<trkpt lat="7533.26416666667" lon="739.410666666667"><ele></ele><time>2014-6-17T16:41:40Z</time></trkpt>
<trkpt lat="7533.2615" lon="739.412"><ele></ele><time>2014-6-17T16:41:43Z</time></trkpt>
<trkpt lat="7533.25916666667" lon="739.413"><ele></ele><time>2014-6-17T16:41:46Z</time></trkpt>
<trkpt lat="7533.257" lon="739.414333333333"><ele></ele><time>2014-6-17T16:41:49Z</time></trkpt>
<trkpt lat="7533.25483333333" lon="739.414666666667"><ele></ele><time>2014-6-17T16:41:52Z</time></trkpt>
<trkpt lat="7533.25266666667" lon="739.414333333333"><ele></ele><time>2014-6-17T16:41:55Z</time></trkpt>
<trkpt lat="7533.251" lon="739.414"><ele></ele><time>2014-6-17T16:41:58Z</time></trkpt>
<trkpt lat="7533.24916666667" lon="739.412166666667"><ele></ele><time>2014-6-17T16:42:1Z</time></trkpt>
<trkpt lat="7533.24733333333" lon="739.410166666667"><ele></ele><time>2014-6-17T16:42:4Z</time></trkpt>
<trkpt lat="7533.24583333333" lon="739.408"><ele></ele><time>2014-6-17T16:42:7Z</time></trkpt>
<trkpt lat="7533.24416666667" lon="739.406"><ele></ele><time>2014-6-17T16:42:10Z</time></trkpt>
<trkpt lat="7533.24233333333" lon="739.404666666667"><ele></ele><time>2014-6-17T16:42:13Z</time></trkpt>
<trkpt lat="7533.24083333333" lon="739.402666666667"><ele></ele><time>2014-6-17T16:42:16Z</time></trkpt>
<trkpt lat="7533.23966666667" lon="739.401"><ele></ele><time>2014-6-17T16:42:19Z</time></trkpt>
<trkpt lat="7533.23866666667" lon="739.399833333333"><ele></ele><time>2014-6-17T16:42:22Z</time></trkpt>
<trkpt lat="7533.23766666667" lon="739.398166666667"><ele></ele><time>2014-6-17T16:42:25Z</time></trkpt>
<trkpt lat="7533.2365" lon="739.3965"><ele></ele><time>2014-6-17T16:42:28Z</time></trkpt>
<trkpt lat="7533.2355" lon="739.394666666667"><ele></ele><time>2014-6-17T16:42:31Z</time></trkpt>
<trkpt lat="7533.2345" lon="739.392666666667"><ele></ele><time>2014-6-17T16:42:34Z</time></trkpt>
<trkpt lat="7533.23366666667" lon="739.391833333333"><ele></ele><time>2014-6-17T16:42:37Z</time></trkpt>
<trkpt lat="7533.23316666667" lon="739.390166666667"><ele></ele><time>2014-6-17T16:42:40Z</time></trkpt>
<trkpt lat="7533.2325" lon="739.3885"><ele></ele><time>2014-6-17T16:42:43Z</time></trkpt>
<trkpt lat="7533.2315" lon="739.386833333333"><ele></ele><time>2014-6-17T16:42:46Z</time></trkpt>
<trkpt lat="7533.23033333333" lon="739.385166666667"><ele></ele><time>2014-6-17T16:42:49Z</time></trkpt>
<trkpt lat="7533.22933333333" lon="739.383666666667"><ele></ele><time>2014-6-17T16:42:52Z</time></trkpt>
<trkpt lat="7533.228" lon="739.382166666667"><ele></ele><time>2014-6-17T16:42:55Z</time></trkpt>
<trkpt lat="7533.2265" lon="739.380833333333"><ele></ele><time>2014-6-17T16:42:58Z</time></trkpt>
<trkpt lat="7533.22483333333" lon="739.379666666667"><ele></ele><time>2014-6-17T16:43:1Z</time></trkpt>
<trkpt lat="7533.223" lon="739.3795"><ele></ele><time>2014-6-17T16:43:4Z</time></trkpt>
<trkpt lat="7533.22083333333" lon="739.3805"><ele></ele><time>2014-6-17T16:43:7Z</time></trkpt>
<trkpt lat="7533.2185" lon="739.382333333333"><ele></ele><time>2014-6-17T16:43:10Z</time></trkpt>
<trkpt lat="7533.21633333333" lon="739.384166666667"><ele></ele><time>2014-6-17T16:43:13Z</time></trkpt>
<trkpt lat="7533.21416666667" lon="739.386"><ele></ele><time>2014-6-17T16:43:16Z</time></trkpt>
<trkpt lat="7533.21166666667" lon="739.3885"><ele></ele><time>2014-6-17T16:43:19Z</time></trkpt>
<trkpt lat="7533.209" lon="739.391166666667"><ele></ele><time>2014-6-17T16:43:22Z</time></trkpt>
<trkpt lat="7533.2065" lon="739.394333333333"><ele></ele><time>2014-6-17T16:43:25Z</time></trkpt>
<trkpt lat="7533.20416666667" lon="739.398166666667"><ele></ele><time>2014-6-17T16:43:28Z</time></trkpt>
<trkpt lat="7533.202" lon="739.400666666667"><ele></ele><time>2014-6-17T16:43:31Z</time></trkpt>
<trkpt lat="7533.2005" lon="739.403166666667"><ele></ele><time>2014-6-17T16:43:34Z</time></trkpt>
<trkpt lat="7533.19816666667" lon="739.406"><ele></ele><time>2014-6-17T16:43:37Z</time></trkpt>
<trkpt lat="7533.19533333333" lon="739.4085"><ele></ele><time>2014-6-17T16:43:40Z</time></trkpt>
<trkpt lat="7533.19116666667" lon="739.41"><ele></ele><time>2014-6-17T16:43:43Z</time></trkpt>
<trkpt lat="7533.18433333333" lon="739.410666666667"><ele></ele><time>2014-6-17T16:43:46Z</time></trkpt>
<trkpt lat="7533.18083333333" lon="739.412166666667"><ele></ele><time>2014-6-17T16:43:49Z</time></trkpt>
<trkpt lat="7533.17716666667" lon="739.4145"><ele></ele><time>2014-6-17T16:43:52Z</time></trkpt>
<trkpt lat="7533.17316666667" lon="739.416333333333"><ele></ele><time>2014-6-17T16:43:55Z</time></trkpt>
<trkpt lat="7533.16983333333" lon="739.417833333333"><ele></ele><time>2014-6-17T16:43:58Z</time></trkpt>
<trkpt lat="7533.166" lon="739.419166666667"><ele></ele><time>2014-6-17T16:44:1Z</time></trkpt>
<trkpt lat="7533.16283333333" lon="739.420666666667"><ele></ele><time>2014-6-17T16:44:4Z</time></trkpt>
<trkpt lat="7533.15966666667" lon="739.4225"><ele></ele><time>2014-6-17T16:44:7Z</time></trkpt>
<trkpt lat="7533.15683333333" lon="739.4245"><ele></ele><time>2014-6-17T16:44:10Z</time></trkpt>
<trkpt lat="7533.15366666667" lon="739.428333333333"><ele></ele><time>2014-6-17T16:44:13Z</time></trkpt>
<trkpt lat="7533.15083333333" lon="739.429833333333"><ele></ele><time>2014-6-17T16:44:16Z</time></trkpt>
<trkpt lat="7533.148" lon="739.432"><ele></ele><time>2014-6-17T16:44:19Z</time></trkpt>
<trkpt lat="7533.14516666667" lon="739.433833333333"><ele></ele><time>2014-6-17T16:44:22Z</time></trkpt>
<trkpt lat="7533.14216666667" lon="739.435666666667"><ele></ele><time>2014-6-17T16:44:25Z</time></trkpt>
<trkpt lat="7533.139" lon="739.437833333333"><ele></ele><time>2014-6-17T16:44:28Z</time></trkpt>
<trkpt lat="7533.13583333333" lon="739.44"><ele></ele><time>2014-6-17T16:44:31Z</time></trkpt>
<trkpt lat="7533.1325" lon="739.442333333333"><ele></ele><time>2014-6-17T16:44:34Z</time></trkpt>
<trkpt lat="7533.12933333333" lon="739.445"><ele></ele><time>2014-6-17T16:44:37Z</time></trkpt>
<trkpt lat="7533.12666666667" lon="739.447"><ele></ele><time>2014-6-17T16:44:40Z</time></trkpt>
<trkpt lat="7533.12433333333" lon="739.449833333333"><ele></ele><time>2014-6-17T16:44:43Z</time></trkpt>
<trkpt lat="7533.122" lon="739.452"><ele></ele><time>2014-6-17T16:44:46Z</time></trkpt>
<trkpt lat="7533.11933333333" lon="739.454333333333"><ele></ele><time>2014-6-17T16:44:49Z</time></trkpt>
<trkpt lat="7533.11616666667" lon="739.457"><ele></ele><time>2014-6-17T16:44:52Z</time></trkpt>
<trkpt lat="7533.113" lon="739.4595"><ele></ele><time>2014-6-17T16:44:55Z</time></trkpt>
<trkpt lat="7533.10933333333" lon="739.462166666667"><ele></ele><time>2014-6-17T16:44:58Z</time></trkpt>
<trkpt lat="7533.10566666667" lon="739.465"><ele></ele><time>2014-6-17T16:45:1Z</time></trkpt>
<trkpt lat="7533.102" lon="739.4675"><ele></ele><time>2014-6-17T16:45:4Z</time></trkpt>
<trkpt lat="7533.09866666667" lon="739.469666666667"><ele></ele><time>2014-6-17T16:45:7Z</time></trkpt>
<trkpt lat="7533.09533333333" lon="739.471333333333"><ele></ele><time>2014-6-17T16:45:10Z</time></trkpt>
<trkpt lat="7533.092" lon="739.472"><ele></ele><time>2014-6-17T16:45:13Z</time></trkpt>
<trkpt lat="7533.088" lon="739.472166666667"><ele></ele><time>2014-6-17T16:45:16Z</time></trkpt>
<trkpt lat="7533.08433333333" lon="739.472666666667"><ele></ele><time>2014-6-17T16:45:19Z</time></trkpt>
<trkpt lat="7533.08083333333" lon="739.473166666667"><ele></ele><time>2014-6-17T16:45:22Z</time></trkpt>
<trkpt lat="7533.07766666667" lon="739.473833333333"><ele></ele><time>2014-6-17T16:45:25Z</time></trkpt>
<trkpt lat="7533.07433333333" lon="739.474666666667"><ele></ele><time>2014-6-17T16:45:28Z</time></trkpt>
<trkpt lat="7533.0705" lon="739.475"><ele></ele><time>2014-6-17T16:45:31Z</time></trkpt>
<trkpt lat="7533.06683333333" lon="739.475166666667"><ele></ele><time>2014-6-17T16:45:34Z</time></trkpt>
<trkpt lat="7533.06333333333" lon="739.475833333333"><ele></ele><time>2014-6-17T16:45:37Z</time></trkpt>
<trkpt lat="7533.06" lon="739.476"><ele></ele><time>2014-6-17T16:45:40Z</time></trkpt>
<trkpt lat="7533.05716666667" lon="739.475333333333"><ele></ele><time>2014-6-17T16:45:43Z</time></trkpt>
<trkpt lat="7533.05433333333" lon="739.475"><ele></ele><time>2014-6-17T16:45:46Z</time></trkpt>
<trkpt lat="7533.05133333333" lon="739.475333333333"><ele></ele><time>2014-6-17T16:45:49Z</time></trkpt>
<trkpt lat="7533.04833333333" lon="739.475666666667"><ele></ele><time>2014-6-17T16:45:52Z</time></trkpt>
<trkpt lat="7533.04516666667" lon="739.476833333333"><ele></ele><time>2014-6-17T16:45:55Z</time></trkpt>
<trkpt lat="7533.042" lon="739.477"><ele></ele><time>2014-6-17T16:45:58Z</time></trkpt>
<trkpt lat="7533.039" lon="739.4765"><ele></ele><time>2014-6-17T16:46:1Z</time></trkpt>
<trkpt lat="7533.03583333333" lon="739.475666666667"><ele></ele><time>2014-6-17T16:46:4Z</time></trkpt>
<trkpt lat="7533.0325" lon="739.476"><ele></ele><time>2014-6-17T16:46:7Z</time></trkpt>
<trkpt lat="7533.0295" lon="739.4765"><ele></ele><time>2014-6-17T16:46:10Z</time></trkpt>
<trkpt lat="7533.026" lon="739.477"><ele></ele><time>2014-6-17T16:46:13Z</time></trkpt>
<trkpt lat="7533.02283333333" lon="739.4775"><ele></ele><time>2014-6-17T16:46:16Z</time></trkpt>
<trkpt lat="7533.01983333333" lon="739.478166666667"><ele></ele><time>2014-6-17T16:46:19Z</time></trkpt>
<trkpt lat="7533.01683333333" lon="739.478833333333"><ele></ele><time>2014-6-17T16:46:22Z</time></trkpt>
<trkpt lat="7533.014" lon="739.479333333333"><ele></ele><time>2014-6-17T16:46:25Z</time></trkpt>
<trkpt lat="7533.01116666667" lon="739.48"><ele></ele><time>2014-6-17T16:46:28Z</time></trkpt>
<trkpt lat="7533.00833333333" lon="739.479833333333"><ele></ele><time>2014-6-17T16:46:31Z</time></trkpt>
<trkpt lat="7533.00583333333" lon="739.479"><ele></ele><time>2014-6-17T16:46:34Z</time></trkpt>
<trkpt lat="7533.0035" lon="739.478666666667"><ele></ele><time>2014-6-17T16:46:37Z</time></trkpt>
<trkpt lat="7533.00133333333" lon="739.478666666667"><ele></ele><time>2014-6-17T16:46:40Z</time></trkpt>
<trkpt lat="7532.9995" lon="739.478833333333"><ele></ele><time>2014-6-17T16:46:43Z</time></trkpt>
<trkpt lat="7532.998" lon="739.478666666667"><ele></ele><time>2014-6-17T16:46:46Z</time></trkpt>
<trkpt lat="7532.99666666667" lon="739.477833333333"><ele></ele><time>2014-6-17T16:46:49Z</time></trkpt>
<trkpt lat="7532.99516666667" lon="739.477"><ele></ele><time>2014-6-17T16:46:52Z</time></trkpt>
<trkpt lat="7532.9935" lon="739.476"><ele></ele><time>2014-6-17T16:46:55Z</time></trkpt>
<trkpt lat="7532.992" lon="739.474666666667"><ele></ele><time>2014-6-17T16:46:58Z</time></trkpt>
<trkpt lat="7532.99083333333" lon="739.473833333333"><ele></ele><time>2014-6-17T16:47:1Z</time></trkpt>
<trkpt lat="7532.98983333333" lon="739.4735"><ele></ele><time>2014-6-17T16:47:4Z</time></trkpt>
<trkpt lat="7532.98833333333" lon="739.470333333333"><ele></ele><time>2014-6-17T16:47:7Z</time></trkpt>
<trkpt lat="7532.98716666667" lon="739.4685"><ele></ele><time>2014-6-17T16:47:10Z</time></trkpt>
<trkpt lat="7532.98633333333" lon="739.468333333333"><ele></ele><time>2014-6-17T16:47:13Z</time></trkpt>
<trkpt lat="7532.98516666667" lon="739.467"><ele></ele><time>2014-6-17T16:47:16Z</time></trkpt>
<trkpt lat="7532.98416666667" lon="739.465333333333"><ele></ele><time>2014-6-17T16:47:19Z</time></trkpt>
<trkpt lat="7532.9835" lon="739.463333333333"><ele></ele><time>2014-6-17T16:47:22Z</time></trkpt>
<trkpt lat="7532.983" lon="739.461833333333"><ele></ele><time>2014-6-17T16:47:25Z</time></trkpt>
<trkpt lat="7532.983" lon="739.461833333333"><ele></ele><time>2014-6-17T16:47:28Z</time></trkpt>
<trkpt lat="7532.983" lon="739.461833333333"><ele></ele><time>2014-6-17T16:47:31Z</time></trkpt>
<trkpt lat="7532.983" lon="739.461833333333"><ele></ele><time>2014-6-17T16:47:34Z</time></trkpt>
<trkpt lat="7532.983" lon="739.462666666667"><ele></ele><time>2014-6-17T16:47:37Z</time></trkpt>
<trkpt lat="7532.9825" lon="739.464666666667"><ele></ele><time>2014-6-17T16:47:40Z</time></trkpt>
<trkpt lat="7532.98333333333" lon="739.467666666667"><ele></ele><time>2014-6-17T16:47:43Z</time></trkpt>
<trkpt lat="7532.98416666667" lon="739.472166666667"><ele></ele><time>2014-6-17T16:47:46Z</time></trkpt>
<trkpt lat="7532.98433333333" lon="739.4755"><ele></ele><time>2014-6-17T16:47:49Z</time></trkpt>
<trkpt lat="7532.985" lon="739.4805"><ele></ele><time>2014-6-17T16:47:52Z</time></trkpt>
<trkpt lat="7532.9855" lon="739.4865"><ele></ele><time>2014-6-17T16:47:55Z</time></trkpt>
<trkpt lat="7532.986" lon="739.493333333333"><ele></ele><time>2014-6-17T16:47:58Z</time></trkpt>
<trkpt lat="7532.98683333333" lon="739.500333333333"><ele></ele><time>2014-6-17T16:48:1Z</time></trkpt>
<trkpt lat="7532.98783333333" lon="739.507"><ele></ele><time>2014-6-17T16:48:4Z</time></trkpt>
<trkpt lat="7532.98933333333" lon="739.514166666667"><ele></ele><time>2014-6-17T16:48:7Z</time></trkpt>
<trkpt lat="7532.9905" lon="739.521333333333"><ele></ele><time>2014-6-17T16:48:10Z</time></trkpt>
<trkpt lat="7532.99266666667" lon="739.527166666667"><ele></ele><time>2014-6-17T16:48:13Z</time></trkpt>
<trkpt lat="7532.99483333333" lon="739.531666666667"><ele></ele><time>2014-6-17T16:48:16Z</time></trkpt>
<trkpt lat="7532.9965" lon="739.536"><ele></ele><time>2014-6-17T16:48:19Z</time></trkpt>
<trkpt lat="7532.99683333333" lon="739.54"><ele></ele><time>2014-6-17T16:48:22Z</time></trkpt>
<trkpt lat="7532.99616666667" lon="739.544"><ele></ele><time>2014-6-17T16:48:25Z</time></trkpt>
<trkpt lat="7532.9955" lon="739.547833333333"><ele></ele><time>2014-6-17T16:48:28Z</time></trkpt>
<trkpt lat="7532.9945" lon="739.551666666667"><ele></ele><time>2014-6-17T16:48:31Z</time></trkpt>
<trkpt lat="7532.99316666667" lon="739.555"><ele></ele><time>2014-6-17T16:48:34Z</time></trkpt>
<trkpt lat="7532.992" lon="739.557666666667"><ele></ele><time>2014-6-17T16:48:37Z</time></trkpt>
<trkpt lat="7532.991" lon="739.559833333333"><ele></ele><time>2014-6-17T16:48:40Z</time></trkpt>
<trkpt lat="7532.99016666667" lon="739.562166666667"><ele></ele><time>2014-6-17T16:48:43Z</time></trkpt>
<trkpt lat="7532.98916666667" lon="739.564"><ele></ele><time>2014-6-17T16:48:46Z</time></trkpt>
<trkpt lat="7532.98266666667" lon="739.563833333333"><ele></ele><time>2014-6-17T16:48:49Z</time></trkpt>
<trkpt lat="7532.98083333333" lon="739.567166666667"><ele></ele><time>2014-6-17T16:48:52Z</time></trkpt>
<trkpt lat="7532.97966666667" lon="739.569333333333"><ele></ele><time>2014-6-17T16:48:55Z</time></trkpt>
<trkpt lat="7532.97866666667" lon="739.570166666667"><ele></ele><time>2014-6-17T16:48:58Z</time></trkpt>
<trkpt lat="7532.97733333333" lon="739.570833333333"><ele></ele><time>2014-6-17T16:49:1Z</time></trkpt>
<trkpt lat="7532.97566666667" lon="739.571333333333"><ele></ele><time>2014-6-17T16:49:4Z</time></trkpt>
<trkpt lat="7532.97366666667" lon="739.571166666667"><ele></ele><time>2014-6-17T16:49:7Z</time></trkpt>
<trkpt lat="7532.97233333333" lon="739.570833333333"><ele></ele><time>2014-6-17T16:49:10Z</time></trkpt>
<trkpt lat="7532.97233333333" lon="739.570833333333"><ele></ele><time>2014-6-17T16:49:13Z</time></trkpt>
<trkpt lat="7532.97233333333" lon="739.570833333333"><ele></ele><time>2014-6-17T16:49:16Z</time></trkpt>
<trkpt lat="7532.97166666667" lon="739.571166666667"><ele></ele><time>2014-6-17T16:49:19Z</time></trkpt>
<trkpt lat="7532.97" lon="739.5715"><ele></ele><time>2014-6-17T16:49:22Z</time></trkpt>
<trkpt lat="7532.96733333333" lon="739.571333333333"><ele></ele><time>2014-6-17T16:49:25Z</time></trkpt>
<trkpt lat="7532.965" lon="739.5705"><ele></ele><time>2014-6-17T16:49:28Z</time></trkpt>
<trkpt lat="7532.96333333333" lon="739.569333333333"><ele></ele><time>2014-6-17T16:49:31Z</time></trkpt>
<trkpt lat="7532.96233333333" lon="739.5685"><ele></ele><time>2014-6-17T16:49:34Z</time></trkpt>
<trkpt lat="7532.961" lon="739.568666666667"><ele></ele><time>2014-6-17T16:49:37Z</time></trkpt>
<trkpt lat="7532.95983333333" lon="739.568833333333"><ele></ele><time>2014-6-17T16:49:40Z</time></trkpt>
<trkpt lat="7532.95866666667" lon="739.5705"><ele></ele><time>2014-6-17T16:49:43Z</time></trkpt>
<trkpt lat="7532.95766666667" lon="739.572833333333"><ele></ele><time>2014-6-17T16:49:46Z</time></trkpt>
<trkpt lat="7532.957" lon="739.575166666667"><ele></ele><time>2014-6-17T16:49:49Z</time></trkpt>
<trkpt lat="7532.956" lon="739.576666666667"><ele></ele><time>2014-6-17T16:49:52Z</time></trkpt>
<trkpt lat="7532.9555" lon="739.578"><ele></ele><time>2014-6-17T16:49:55Z</time></trkpt>
<trkpt lat="7532.95566666667" lon="739.578666666667"><ele></ele><time>2014-6-17T16:49:58Z</time></trkpt>
<trkpt lat="7532.95616666667" lon="739.579833333333"><ele></ele><time>2014-6-17T16:50:1Z</time></trkpt>
<trkpt lat="7532.95683333333" lon="739.5815"><ele></ele><time>2014-6-17T16:50:4Z</time></trkpt>
<trkpt lat="7532.95783333333" lon="739.583333333333"><ele></ele><time>2014-6-17T16:50:7Z</time></trkpt>
<trkpt lat="7532.95933333333" lon="739.5855"><ele></ele><time>2014-6-17T16:50:10Z</time></trkpt>
<trkpt lat="7532.96116666667" lon="739.587666666667"><ele></ele><time>2014-6-17T16:50:13Z</time></trkpt>
<trkpt lat="7532.9625" lon="739.5905"><ele></ele><time>2014-6-17T16:50:16Z</time></trkpt>
<trkpt lat="7532.96383333333" lon="739.592"><ele></ele><time>2014-6-17T16:50:19Z</time></trkpt>
<trkpt lat="7532.96516666667" lon="739.594"><ele></ele><time>2014-6-17T16:50:22Z</time></trkpt>
<trkpt lat="7532.967" lon="739.595"><ele></ele><time>2014-6-17T16:50:25Z</time></trkpt>
<trkpt lat="7532.96866666667" lon="739.597"><ele></ele><time>2014-6-17T16:50:28Z</time></trkpt>
<trkpt lat="7532.9705" lon="739.6"><ele></ele><time>2014-6-17T16:50:31Z</time></trkpt>
<trkpt lat="7532.9725" lon="739.603"><ele></ele><time>2014-6-17T16:50:34Z</time></trkpt>
<trkpt lat="7532.97366666667" lon="739.607833333333"><ele></ele><time>2014-6-17T16:50:37Z</time></trkpt>
<trkpt lat="7532.97433333333" lon="739.612666666667"><ele></ele><time>2014-6-17T16:50:40Z</time></trkpt>
<trkpt lat="7532.97433333333" lon="739.618"><ele></ele><time>2014-6-17T16:50:43Z</time></trkpt>
<trkpt lat="7532.97416666667" lon="739.623833333333"><ele></ele><time>2014-6-17T16:50:46Z</time></trkpt>
<trkpt lat="7532.97416666667" lon="739.629666666667"><ele></ele><time>2014-6-17T16:50:49Z</time></trkpt>
<trkpt lat="7532.974" lon="739.635"><ele></ele><time>2014-6-17T16:50:52Z</time></trkpt>
<trkpt lat="7532.97383333333" lon="739.64"><ele></ele><time>2014-6-17T16:50:55Z</time></trkpt>
<trkpt lat="7532.97383333333" lon="739.6445"><ele></ele><time>2014-6-17T16:50:58Z</time></trkpt>
<trkpt lat="7532.97333333333" lon="739.648833333333"><ele></ele><time>2014-6-17T16:51:1Z</time></trkpt>
<trkpt lat="7532.9725" lon="739.653666666667"><ele></ele><time>2014-6-17T16:51:4Z</time></trkpt>
<trkpt lat="7532.97183333333" lon="739.6585"><ele></ele><time>2014-6-17T16:51:7Z</time></trkpt>
<trkpt lat="7532.97116666667" lon="739.663833333333"><ele></ele><time>2014-6-17T16:51:10Z</time></trkpt>
<trkpt lat="7532.971" lon="739.6695"><ele></ele><time>2014-6-17T16:51:13Z</time></trkpt>
<trkpt lat="7532.97116666667" lon="739.676166666667"><ele></ele><time>2014-6-17T16:51:16Z</time></trkpt>
<trkpt lat="7532.97166666667" lon="739.6825"><ele></ele><time>2014-6-17T16:51:19Z</time></trkpt>
<trkpt lat="7532.97233333333" lon="739.6885"><ele></ele><time>2014-6-17T16:51:22Z</time></trkpt>
<trkpt lat="7532.97283333333" lon="739.693666666667"><ele></ele><time>2014-6-17T16:51:25Z</time></trkpt>
<trkpt lat="7532.9735" lon="739.6985"><ele></ele><time>2014-6-17T16:51:28Z</time></trkpt>
<trkpt lat="7532.97366666667" lon="739.703"><ele></ele><time>2014-6-17T16:51:31Z</time></trkpt>
<trkpt lat="7532.97433333333" lon="739.708"><ele></ele><time>2014-6-17T16:51:34Z</time></trkpt>
<trkpt lat="7532.97483333333" lon="739.714166666667"><ele></ele><time>2014-6-17T16:51:37Z</time></trkpt>
<trkpt lat="7532.9755" lon="739.7205"><ele></ele><time>2014-6-17T16:51:40Z</time></trkpt>
<trkpt lat="7532.97566666667" lon="739.726833333333"><ele></ele><time>2014-6-17T16:51:43Z</time></trkpt>
<trkpt lat="7532.97666666667" lon="739.732166666667"><ele></ele><time>2014-6-17T16:51:46Z</time></trkpt>
<trkpt lat="7532.9775" lon="739.738"><ele></ele><time>2014-6-17T16:51:49Z</time></trkpt>
<trkpt lat="7532.978" lon="739.7445"><ele></ele><time>2014-6-17T16:51:52Z</time></trkpt>
<trkpt lat="7532.97766666667" lon="739.751666666667"><ele></ele><time>2014-6-17T16:51:55Z</time></trkpt>
<trkpt lat="7532.97716666667" lon="739.759333333333"><ele></ele><time>2014-6-17T16:51:58Z</time></trkpt>
<trkpt lat="7532.977" lon="739.766666666667"><ele></ele><time>2014-6-17T16:52:1Z</time></trkpt>
<trkpt lat="7532.977" lon="739.772833333333"><ele></ele><time>2014-6-17T16:52:4Z</time></trkpt>
<trkpt lat="7532.9765" lon="739.777666666667"><ele></ele><time>2014-6-17T16:52:7Z</time></trkpt>
<trkpt lat="7532.97533333333" lon="739.7815"><ele></ele><time>2014-6-17T16:52:10Z</time></trkpt>
<trkpt lat="7532.974" lon="739.7855"><ele></ele><time>2014-6-17T16:52:13Z</time></trkpt>
<trkpt lat="7532.97316666667" lon="739.788666666667"><ele></ele><time>2014-6-17T16:52:16Z</time></trkpt>
<trkpt lat="7532.9725" lon="739.791666666667"><ele></ele><time>2014-6-17T16:52:19Z</time></trkpt>
<trkpt lat="7532.97166666667" lon="739.794833333333"><ele></ele><time>2014-6-17T16:52:22Z</time></trkpt>
<trkpt lat="7532.975" lon="739.802333333333"><ele></ele><time>2014-6-17T16:52:25Z</time></trkpt>
<trkpt lat="7532.974" lon="739.8065"><ele></ele><time>2014-6-17T16:52:28Z</time></trkpt>
<trkpt lat="7532.97166666667" lon="739.809666666667"><ele></ele><time>2014-6-17T16:52:31Z</time></trkpt>
<trkpt lat="7532.96983333333" lon="739.813666666667"><ele></ele><time>2014-6-17T16:52:34Z</time></trkpt>
<trkpt lat="7532.968" lon="739.818666666667"><ele></ele><time>2014-6-17T16:52:37Z</time></trkpt>
<trkpt lat="7532.96733333333" lon="739.825"><ele></ele><time>2014-6-17T16:52:40Z</time></trkpt>
<trkpt lat="7532.96783333333" lon="739.8315"><ele></ele><time>2014-6-17T16:52:43Z</time></trkpt>
<trkpt lat="7532.9685" lon="739.838166666667"><ele></ele><time>2014-6-17T16:52:46Z</time></trkpt>
<trkpt lat="7532.969" lon="739.845"><ele></ele><time>2014-6-17T16:52:49Z</time></trkpt>
<trkpt lat="7532.96883333333" lon="739.8525"><ele></ele><time>2014-6-17T16:52:52Z</time></trkpt>
<trkpt lat="7532.96916666667" lon="739.859666666667"><ele></ele><time>2014-6-17T16:52:55Z</time></trkpt>
<trkpt lat="7532.96933333333" lon="739.866833333333"><ele></ele><time>2014-6-17T16:52:58Z</time></trkpt>
<trkpt lat="7532.96916666667" lon="739.8735"><ele></ele><time>2014-6-17T16:53:1Z</time></trkpt>
<trkpt lat="7532.969" lon="739.880166666667"><ele></ele><time>2014-6-17T16:53:4Z</time></trkpt>
<trkpt lat="7532.968" lon="739.887666666667"><ele></ele><time>2014-6-17T16:53:7Z</time></trkpt>
<trkpt lat="7532.967" lon="739.895333333333"><ele></ele><time>2014-6-17T16:53:10Z</time></trkpt>
<trkpt lat="7532.96616666667" lon="739.9035"><ele></ele><time>2014-6-17T16:53:13Z</time></trkpt>
<trkpt lat="7532.96533333333" lon="739.910833333333"><ele></ele><time>2014-6-17T16:53:16Z</time></trkpt>
<trkpt lat="7532.964" lon="739.919333333333"><ele></ele><time>2014-6-17T16:53:19Z</time></trkpt>
<trkpt lat="7532.96283333333" lon="739.927833333333"><ele></ele><time>2014-6-17T16:53:22Z</time></trkpt>
<trkpt lat="7532.9615" lon="739.935666666667"><ele></ele><time>2014-6-17T16:53:25Z</time></trkpt>
<trkpt lat="7532.96033333333" lon="739.9435"><ele></ele><time>2014-6-17T16:53:28Z</time></trkpt>
<trkpt lat="7532.95866666667" lon="739.9505"><ele></ele><time>2014-6-17T16:53:31Z</time></trkpt>
<trkpt lat="7532.95666666667" lon="739.957833333333"><ele></ele><time>2014-6-17T16:53:34Z</time></trkpt>
<trkpt lat="7532.955" lon="739.965666666667"><ele></ele><time>2014-6-17T16:53:37Z</time></trkpt>
<trkpt lat="7532.95333333333" lon="739.973333333333"><ele></ele><time>2014-6-17T16:53:40Z</time></trkpt>
<trkpt lat="7532.95283333333" lon="739.981166666667"><ele></ele><time>2014-6-17T16:53:43Z</time></trkpt>
<trkpt lat="7532.95266666667" lon="739.989"><ele></ele><time>2014-6-17T16:53:46Z</time></trkpt>
<trkpt lat="7532.955" lon="740.000666666667"><ele></ele><time>2014-6-17T16:53:49Z</time></trkpt>
<trkpt lat="7532.95466666667" lon="740.008166666667"><ele></ele><time>2014-6-17T16:53:52Z</time></trkpt>
<trkpt lat="7532.9545" lon="740.015166666667"><ele></ele><time>2014-6-17T16:53:55Z</time></trkpt>
<trkpt lat="7532.9545" lon="740.022333333333"><ele></ele><time>2014-6-17T16:53:58Z</time></trkpt>
<trkpt lat="7532.95566666667" lon="740.031833333333"><ele></ele><time>2014-6-17T16:54:1Z</time></trkpt>
<trkpt lat="7532.9555" lon="740.039833333333"><ele></ele><time>2014-6-17T16:54:4Z</time></trkpt>
<trkpt lat="7532.95466666667" lon="740.047"><ele></ele><time>2014-6-17T16:54:7Z</time></trkpt>
<trkpt lat="7532.95383333333" lon="740.053833333333"><ele></ele><time>2014-6-17T16:54:10Z</time></trkpt>
<trkpt lat="7532.95283333333" lon="740.0615"><ele></ele><time>2014-6-17T16:54:13Z</time></trkpt>
<trkpt lat="7532.952" lon="740.069666666667"><ele></ele><time>2014-6-17T16:54:16Z</time></trkpt>
<trkpt lat="7532.95116666667" lon="740.079166666667"><ele></ele><time>2014-6-17T16:54:19Z</time></trkpt>
<trkpt lat="7532.95116666667" lon="740.087666666667"><ele></ele><time>2014-6-17T16:54:22Z</time></trkpt>
<trkpt lat="7532.95133333333" lon="740.093833333333"><ele></ele><time>2014-6-17T16:54:25Z</time></trkpt>
<trkpt lat="7532.95183333333" lon="740.100833333333"><ele></ele><time>2014-6-17T16:54:28Z</time></trkpt>
<trkpt lat="7532.95233333333" lon="740.107666666667"><ele></ele><time>2014-6-17T16:54:31Z</time></trkpt>
<trkpt lat="7532.95316666667" lon="740.114833333333"><ele></ele><time>2014-6-17T16:54:34Z</time></trkpt>
<trkpt lat="7532.95433333333" lon="740.119833333333"><ele></ele><time>2014-6-17T16:54:37Z</time></trkpt>
<trkpt lat="7532.95616666667" lon="740.125666666667"><ele></ele><time>2014-6-17T16:54:40Z</time></trkpt>
<trkpt lat="7532.958" lon="740.1325"><ele></ele><time>2014-6-17T16:54:43Z</time></trkpt>
<trkpt lat="7532.96" lon="740.138833333333"><ele></ele><time>2014-6-17T16:54:46Z</time></trkpt>
<trkpt lat="7532.96166666667" lon="740.144666666667"><ele></ele><time>2014-6-17T16:54:49Z</time></trkpt>
<trkpt lat="7532.96333333333" lon="740.150666666667"><ele></ele><time>2014-6-17T16:54:52Z</time></trkpt>
<trkpt lat="7532.9655" lon="740.158"><ele></ele><time>2014-6-17T16:54:55Z</time></trkpt>
<trkpt lat="7532.96883333333" lon="740.1655"><ele></ele><time>2014-6-17T16:54:58Z</time></trkpt>
<trkpt lat="7532.97116666667" lon="740.172166666667"><ele></ele><time>2014-6-17T16:55:1Z</time></trkpt>
<trkpt lat="7532.97333333333" lon="740.1785"><ele></ele><time>2014-6-17T16:55:4Z</time></trkpt>
<trkpt lat="7532.97483333333" lon="740.184666666667"><ele></ele><time>2014-6-17T16:55:7Z</time></trkpt>
<trkpt lat="7532.97633333333" lon="740.191166666667"><ele></ele><time>2014-6-17T16:55:10Z</time></trkpt>
<trkpt lat="7532.97833333333" lon="740.197"><ele></ele><time>2014-6-17T16:55:13Z</time></trkpt>
<trkpt lat="7532.98033333333" lon="740.203666666667"><ele></ele><time>2014-6-17T16:55:16Z</time></trkpt>
<trkpt lat="7532.98283333333" lon="740.210333333333"><ele></ele><time>2014-6-17T16:55:19Z</time></trkpt>
<trkpt lat="7532.98483333333" lon="740.216833333333"><ele></ele><time>2014-6-17T16:55:22Z</time></trkpt>
<trkpt lat="7532.987" lon="740.223333333333"><ele></ele><time>2014-6-17T16:55:25Z</time></trkpt>
<trkpt lat="7532.9895" lon="740.2295"><ele></ele><time>2014-6-17T16:55:28Z</time></trkpt>
<trkpt lat="7532.99216666667" lon="740.236"><ele></ele><time>2014-6-17T16:55:31Z</time></trkpt>
<trkpt lat="7532.99433333333" lon="740.241833333333"><ele></ele><time>2014-6-17T16:55:34Z</time></trkpt>
<trkpt lat="7532.99616666667" lon="740.247666666667"><ele></ele><time>2014-6-17T16:55:37Z</time></trkpt>
<trkpt lat="7532.99766666667" lon="740.253333333333"><ele></ele><time>2014-6-17T16:55:40Z</time></trkpt>
<trkpt lat="7532.99933333333" lon="740.259"><ele></ele><time>2014-6-17T16:55:43Z</time></trkpt>
<trkpt lat="7533.00083333333" lon="740.265"><ele></ele><time>2014-6-17T16:55:46Z</time></trkpt>
<trkpt lat="7533.002" lon="740.271166666667"><ele></ele><time>2014-6-17T16:55:49Z</time></trkpt>
<trkpt lat="7533.00316666667" lon="740.277333333333"><ele></ele><time>2014-6-17T16:55:52Z</time></trkpt>
<trkpt lat="7533.005" lon="740.282833333333"><ele></ele><time>2014-6-17T16:55:55Z</time></trkpt>
<trkpt lat="7533.00666666667" lon="740.288333333333"><ele></ele><time>2014-6-17T16:55:58Z</time></trkpt>
<trkpt lat="7533.00866666667" lon="740.293666666667"><ele></ele><time>2014-6-17T16:56:1Z</time></trkpt>
<trkpt lat="7533.01033333333" lon="740.299166666667"><ele></ele><time>2014-6-17T16:56:4Z</time></trkpt>
<trkpt lat="7533.01183333333" lon="740.305333333333"><ele></ele><time>2014-6-17T16:56:7Z</time></trkpt>
<trkpt lat="7533.01316666667" lon="740.311333333333"><ele></ele><time>2014-6-17T16:56:10Z</time></trkpt>
<trkpt lat="7533.01516666667" lon="740.317333333333"><ele></ele><time>2014-6-17T16:56:13Z</time></trkpt>
<trkpt lat="7533.01666666667" lon="740.322833333333"><ele></ele><time>2014-6-17T16:56:16Z</time></trkpt>
<trkpt lat="7533.01816666667" lon="740.3285"><ele></ele><time>2014-6-17T16:56:19Z</time></trkpt>
<trkpt lat="7533.0195" lon="740.334166666667"><ele></ele><time>2014-6-17T16:56:22Z</time></trkpt>
<trkpt lat="7533.021" lon="740.3395"><ele></ele><time>2014-6-17T16:56:25Z</time></trkpt>
<trkpt lat="7533.0225" lon="740.3445"><ele></ele><time>2014-6-17T16:56:28Z</time></trkpt>
<trkpt lat="7533.02383333333" lon="740.349833333333"><ele></ele><time>2014-6-17T16:56:31Z</time></trkpt>
<trkpt lat="7533.02516666667" lon="740.355333333333"><ele></ele><time>2014-6-17T16:56:34Z</time></trkpt>
<trkpt lat="7533.0265" lon="740.360666666667"><ele></ele><time>2014-6-17T16:56:37Z</time></trkpt>
<trkpt lat="7533.02733333333" lon="740.366166666667"><ele></ele><time>2014-6-17T16:56:40Z</time></trkpt>
<trkpt lat="7533.028" lon="740.371833333333"><ele></ele><time>2014-6-17T16:56:43Z</time></trkpt>
<trkpt lat="7533.0285" lon="740.377333333333"><ele></ele><time>2014-6-17T16:56:46Z</time></trkpt>
<trkpt lat="7533.028" lon="740.383833333333"><ele></ele><time>2014-6-17T16:56:49Z</time></trkpt>
<trkpt lat="7533.0285" lon="740.390166666667"><ele></ele><time>2014-6-17T16:56:52Z</time></trkpt>
<trkpt lat="7533.02933333333" lon="740.396"><ele></ele><time>2014-6-17T16:56:55Z</time></trkpt>
<trkpt lat="7533.03" lon="740.402"><ele></ele><time>2014-6-17T16:56:58Z</time></trkpt>
<trkpt lat="7533.03033333333" lon="740.407666666667"><ele></ele><time>2014-6-17T16:57:1Z</time></trkpt>
<trkpt lat="7533.03033333333" lon="740.413166666667"><ele></ele><time>2014-6-17T16:57:4Z</time></trkpt>
<trkpt lat="7533.03066666667" lon="740.418833333333"><ele></ele><time>2014-6-17T16:57:7Z</time></trkpt>
<trkpt lat="7533.03083333333" lon="740.424833333333"><ele></ele><time>2014-6-17T16:57:10Z</time></trkpt>
<trkpt lat="7533.03083333333" lon="740.430666666667"><ele></ele><time>2014-6-17T16:57:13Z</time></trkpt>
<trkpt lat="7533.03116666667" lon="740.436"><ele></ele><time>2014-6-17T16:57:16Z</time></trkpt>
<trkpt lat="7533.03133333333" lon="740.441333333333"><ele></ele><time>2014-6-17T16:57:19Z</time></trkpt>
<trkpt lat="7533.03033333333" lon="740.445666666667"><ele></ele><time>2014-6-17T16:57:22Z</time></trkpt>
<trkpt lat="7533.03066666667" lon="740.450833333333"><ele></ele><time>2014-6-17T16:57:25Z</time></trkpt>
<trkpt lat="7533.03083333333" lon="740.456166666667"><ele></ele><time>2014-6-17T16:57:28Z</time></trkpt>
<trkpt lat="7533.03083333333" lon="740.461666666667"><ele></ele><time>2014-6-17T16:57:31Z</time></trkpt>
<trkpt lat="7533.03033333333" lon="740.466666666667"><ele></ele><time>2014-6-17T16:57:34Z</time></trkpt>
<trkpt lat="7533.0295" lon="740.4715"><ele></ele><time>2014-6-17T16:57:37Z</time></trkpt>
<trkpt lat="7533.02933333333" lon="740.476166666667"><ele></ele><time>2014-6-17T16:57:40Z</time></trkpt>
<trkpt lat="7533.029" lon="740.481666666667"><ele></ele><time>2014-6-17T16:57:43Z</time></trkpt>
<trkpt lat="7533.02816666667" lon="740.4865"><ele></ele><time>2014-6-17T16:57:46Z</time></trkpt>
<trkpt lat="7533.02716666667" lon="740.491333333333"><ele></ele><time>2014-6-17T16:57:49Z</time></trkpt>
<trkpt lat="7533.02616666667" lon="740.495666666667"><ele></ele><time>2014-6-17T16:57:52Z</time></trkpt>
<trkpt lat="7533.02633333333" lon="740.502"><ele></ele><time>2014-6-17T16:57:55Z</time></trkpt>
<trkpt lat="7533.0265" lon="740.508166666667"><ele></ele><time>2014-6-17T16:57:58Z</time></trkpt>
<trkpt lat="7533.02666666667" lon="740.513666666667"><ele></ele><time>2014-6-17T16:58:1Z</time></trkpt>
<trkpt lat="7533.0265" lon="740.518666666667"><ele></ele><time>2014-6-17T16:58:4Z</time></trkpt>
<trkpt lat="7533.0265" lon="740.523666666667"><ele></ele><time>2014-6-17T16:58:7Z</time></trkpt>
<trkpt lat="7533.026" lon="740.528"><ele></ele><time>2014-6-17T16:58:10Z</time></trkpt>
<trkpt lat="7533.02516666667" lon="740.5325"><ele></ele><time>2014-6-17T16:58:13Z</time></trkpt>
<trkpt lat="7533.02416666667" lon="740.5365"><ele></ele><time>2014-6-17T16:58:16Z</time></trkpt>
<trkpt lat="7533.02383333333" lon="740.540833333333"><ele></ele><time>2014-6-17T16:58:19Z</time></trkpt>
<trkpt lat="7533.02333333333" lon="740.5455"><ele></ele><time>2014-6-17T16:58:22Z</time></trkpt>
<trkpt lat="7533.02216666667" lon="740.550333333333"><ele></ele><time>2014-6-17T16:58:25Z</time></trkpt>
<trkpt lat="7533.02116666667" lon="740.554333333333"><ele></ele><time>2014-6-17T16:58:28Z</time></trkpt>
<trkpt lat="7533.02033333333" lon="740.558333333333"><ele></ele><time>2014-6-17T16:58:31Z</time></trkpt>
<trkpt lat="7533.0195" lon="740.563333333333"><ele></ele><time>2014-6-17T16:58:34Z</time></trkpt>
<trkpt lat="7533.01816666667" lon="740.568166666667"><ele></ele><time>2014-6-17T16:58:37Z</time></trkpt>
<trkpt lat="7533.01683333333" lon="740.573"><ele></ele><time>2014-6-17T16:58:40Z</time></trkpt>
<trkpt lat="7533.0155" lon="740.5775"><ele></ele><time>2014-6-17T16:58:43Z</time></trkpt>
<trkpt lat="7533.01366666667" lon="740.583166666667"><ele></ele><time>2014-6-17T16:58:46Z</time></trkpt>
<trkpt lat="7533.01216666667" lon="740.587833333333"><ele></ele><time>2014-6-17T16:58:49Z</time></trkpt>
<trkpt lat="7533.011" lon="740.592"><ele></ele><time>2014-6-17T16:58:52Z</time></trkpt>
<trkpt lat="7533.00983333333" lon="740.5955"><ele></ele><time>2014-6-17T16:58:55Z</time></trkpt>
<trkpt lat="7533.00866666667" lon="740.599666666667"><ele></ele><time>2014-6-17T16:58:58Z</time></trkpt>
<trkpt lat="7533.00733333333" lon="740.603666666667"><ele></ele><time>2014-6-17T16:59:1Z</time></trkpt>
<trkpt lat="7533.00616666667" lon="740.607166666667"><ele></ele><time>2014-6-17T16:59:4Z</time></trkpt>
<trkpt lat="7533.00466666667" lon="740.610333333333"><ele></ele><time>2014-6-17T16:59:7Z</time></trkpt>
<trkpt lat="7533.00266666667" lon="740.613833333333"><ele></ele><time>2014-6-17T16:59:10Z</time></trkpt>
<trkpt lat="7533.00083333333" lon="740.6175"><ele></ele><time>2014-6-17T16:59:13Z</time></trkpt>
<trkpt lat="7532.99883333333" lon="740.6215"><ele></ele><time>2014-6-17T16:59:16Z</time></trkpt>
<trkpt lat="7532.997" lon="740.625666666667"><ele></ele><time>2014-6-17T16:59:19Z</time></trkpt>
<trkpt lat="7532.995" lon="740.6295"><ele></ele><time>2014-6-17T16:59:22Z</time></trkpt>
<trkpt lat="7532.9935" lon="740.6335"><ele></ele><time>2014-6-17T16:59:25Z</time></trkpt>
<trkpt lat="7532.99216666667" lon="740.637333333333"><ele></ele><time>2014-6-17T16:59:28Z</time></trkpt>
<trkpt lat="7532.99066666667" lon="740.640833333333"><ele></ele><time>2014-6-17T16:59:31Z</time></trkpt>
<trkpt lat="7532.989" lon="740.644833333333"><ele></ele><time>2014-6-17T16:59:34Z</time></trkpt>
<trkpt lat="7532.98716666667" lon="740.648833333333"><ele></ele><time>2014-6-17T16:59:37Z</time></trkpt>
<trkpt lat="7532.98566666667" lon="740.6525"><ele></ele><time>2014-6-17T16:59:40Z</time></trkpt>
<trkpt lat="7532.9845" lon="740.656333333333"><ele></ele><time>2014-6-17T16:59:43Z</time></trkpt>
<trkpt lat="7532.98366666667" lon="740.660833333333"><ele></ele><time>2014-6-17T16:59:46Z</time></trkpt>
<trkpt lat="7532.983" lon="740.666166666667"><ele></ele><time>2014-6-17T16:59:49Z</time></trkpt>
<trkpt lat="7532.98283333333" lon="740.673833333333"><ele></ele><time>2014-6-17T16:59:52Z</time></trkpt>
<trkpt lat="7532.9825" lon="740.680166666667"><ele></ele><time>2014-6-17T16:59:55Z</time></trkpt>
<trkpt lat="7532.982" lon="740.685666666667"><ele></ele><time>2014-6-17T16:59:58Z</time></trkpt>
<trkpt lat="7532.98133333333" lon="740.690166666667"><ele></ele><time>2014-6-17T17:0:1Z</time></trkpt>
<trkpt lat="7532.98083333333" lon="740.693833333333"><ele></ele><time>2014-6-17T17:0:4Z</time></trkpt>
<trkpt lat="7532.98033333333" lon="740.6985"><ele></ele><time>2014-6-17T17:0:7Z</time></trkpt>
<trkpt lat="7532.97916666667" lon="740.703666666667"><ele></ele><time>2014-6-17T17:0:10Z</time></trkpt>
<trkpt lat="7532.978" lon="740.708166666667"><ele></ele><time>2014-6-17T17:0:13Z</time></trkpt>
<trkpt lat="7532.97666666667" lon="740.7125"><ele></ele><time>2014-6-17T17:0:16Z</time></trkpt>
<trkpt lat="7532.9755" lon="740.716833333333"><ele></ele><time>2014-6-17T17:0:19Z</time></trkpt>
<trkpt lat="7532.97416666667" lon="740.721166666667"><ele></ele><time>2014-6-17T17:0:22Z</time></trkpt>
<trkpt lat="7532.97283333333" lon="740.725166666667"><ele></ele><time>2014-6-17T17:0:25Z</time></trkpt>
<trkpt lat="7532.9715" lon="740.7295"><ele></ele><time>2014-6-17T17:0:28Z</time></trkpt>
<trkpt lat="7532.97016666667" lon="740.734166666667"><ele></ele><time>2014-6-17T17:0:31Z</time></trkpt>
<trkpt lat="7532.96883333333" lon="740.739333333333"><ele></ele><time>2014-6-17T17:0:34Z</time></trkpt>
<trkpt lat="7532.9675" lon="740.744166666667"><ele></ele><time>2014-6-17T17:0:37Z</time></trkpt>
<trkpt lat="7532.96633333333" lon="740.748666666667"><ele></ele><time>2014-6-17T17:0:40Z</time></trkpt>
<trkpt lat="7532.96533333333" lon="740.753"><ele></ele><time>2014-6-17T17:0:43Z</time></trkpt>
<trkpt lat="7532.96416666667" lon="740.757666666667"><ele></ele><time>2014-6-17T17:0:46Z</time></trkpt>
<trkpt lat="7532.96316666667" lon="740.762333333333"><ele></ele><time>2014-6-17T17:0:49Z</time></trkpt>
<trkpt lat="7532.962" lon="740.767166666667"><ele></ele><time>2014-6-17T17:0:52Z</time></trkpt>
<trkpt lat="7532.961" lon="740.772666666667"><ele></ele><time>2014-6-17T17:0:55Z</time></trkpt>
<trkpt lat="7532.9595" lon="740.776833333333"><ele></ele><time>2014-6-17T17:0:58Z</time></trkpt>
<trkpt lat="7532.958" lon="740.781166666667"><ele></ele><time>2014-6-17T17:1:1Z</time></trkpt>
<trkpt lat="7532.95683333333" lon="740.785666666667"><ele></ele><time>2014-6-17T17:1:4Z</time></trkpt>
<trkpt lat="7532.95583333333" lon="740.79"><ele></ele><time>2014-6-17T17:1:7Z</time></trkpt>
<trkpt lat="7532.9555" lon="740.7955"><ele></ele><time>2014-6-17T17:1:10Z</time></trkpt>
<trkpt lat="7532.95433333333" lon="740.800333333333"><ele></ele><time>2014-6-17T17:1:13Z</time></trkpt>
<trkpt lat="7532.95316666667" lon="740.804166666667"><ele></ele><time>2014-6-17T17:1:16Z</time></trkpt>
<trkpt lat="7532.95183333333" lon="740.808333333333"><ele></ele><time>2014-6-17T17:1:19Z</time></trkpt>
<trkpt lat="7532.95033333333" lon="740.813"><ele></ele><time>2014-6-17T17:1:22Z</time></trkpt>
<trkpt lat="7532.94866666667" lon="740.818"><ele></ele><time>2014-6-17T17:1:25Z</time></trkpt>
<trkpt lat="7532.947" lon="740.8225"><ele></ele><time>2014-6-17T17:1:28Z</time></trkpt>
<trkpt lat="7532.9455" lon="740.8265"><ele></ele><time>2014-6-17T17:1:31Z</time></trkpt>
<trkpt lat="7532.944" lon="740.831166666667"><ele></ele><time>2014-6-17T17:1:34Z</time></trkpt>
<trkpt lat="7532.94266666667" lon="740.834166666667"><ele></ele><time>2014-6-17T17:1:37Z</time></trkpt>
<trkpt lat="7532.941" lon="740.837333333333"><ele></ele><time>2014-6-17T17:1:40Z</time></trkpt>
<trkpt lat="7532.93966666667" lon="740.8405"><ele></ele><time>2014-6-17T17:1:43Z</time></trkpt>
<trkpt lat="7532.93816666667" lon="740.844333333333"><ele></ele><time>2014-6-17T17:1:46Z</time></trkpt>
<trkpt lat="7532.93683333333" lon="740.8485"><ele></ele><time>2014-6-17T17:1:49Z</time></trkpt>
<trkpt lat="7532.93466666667" lon="740.8525"><ele></ele><time>2014-6-17T17:1:52Z</time></trkpt>
<trkpt lat="7532.93233333333" lon="740.857166666667"><ele></ele><time>2014-6-17T17:1:55Z</time></trkpt>
<trkpt lat="7532.9305" lon="740.861666666667"><ele></ele><time>2014-6-17T17:1:58Z</time></trkpt>
<trkpt lat="7532.92933333333" lon="740.867166666667"><ele></ele><time>2014-6-17T17:2:1Z</time></trkpt>
<trkpt lat="7532.92783333333" lon="740.870833333333"><ele></ele><time>2014-6-17T17:2:4Z</time></trkpt>
<trkpt lat="7532.926" lon="740.875"><ele></ele><time>2014-6-17T17:2:7Z</time></trkpt>
<trkpt lat="7532.9245" lon="740.879333333333"><ele></ele><time>2014-6-17T17:2:10Z</time></trkpt>
<trkpt lat="7532.92333333333" lon="740.883"><ele></ele><time>2014-6-17T17:2:13Z</time></trkpt>
<trkpt lat="7532.92183333333" lon="740.887"><ele></ele><time>2014-6-17T17:2:16Z</time></trkpt>
<trkpt lat="7532.9205" lon="740.891166666667"><ele></ele><time>2014-6-17T17:2:19Z</time></trkpt>
<trkpt lat="7532.91966666667" lon="740.895833333333"><ele></ele><time>2014-6-17T17:2:22Z</time></trkpt>
<trkpt lat="7532.91966666667" lon="740.900666666667"><ele></ele><time>2014-6-17T17:2:25Z</time></trkpt>
<trkpt lat="7532.9195" lon="740.905666666667"><ele></ele><time>2014-6-17T17:2:28Z</time></trkpt>
<trkpt lat="7532.9185" lon="740.909"><ele></ele><time>2014-6-17T17:2:31Z</time></trkpt>
<trkpt lat="7532.91783333333" lon="740.914333333333"><ele></ele><time>2014-6-17T17:2:34Z</time></trkpt>
<trkpt lat="7532.9165" lon="740.918333333333"><ele></ele><time>2014-6-17T17:2:37Z</time></trkpt>
<trkpt lat="7532.917" lon="740.922166666667"><ele></ele><time>2014-6-17T17:2:40Z</time></trkpt>
<trkpt lat="7532.9175" lon="740.924166666667"><ele></ele><time>2014-6-17T17:2:43Z</time></trkpt>
<trkpt lat="7532.91766666667" lon="740.926166666667"><ele></ele><time>2014-6-17T17:2:46Z</time></trkpt>
<trkpt lat="7532.91883333333" lon="740.9285"><ele></ele><time>2014-6-17T17:2:49Z</time></trkpt>
<trkpt lat="7532.92116666667" lon="740.932166666667"><ele></ele><time>2014-6-17T17:2:52Z</time></trkpt>
<trkpt lat="7532.92533333333" lon="740.931833333333"><ele></ele><time>2014-6-17T17:2:55Z</time></trkpt>
<trkpt lat="7532.92966666667" lon="740.930833333333"><ele></ele><time>2014-6-17T17:2:58Z</time></trkpt>
<trkpt lat="7532.93366666667" lon="740.933"><ele></ele><time>2014-6-17T17:3:1Z</time></trkpt>
<trkpt lat="7532.938" lon="740.933666666667"><ele></ele><time>2014-6-17T17:3:4Z</time></trkpt>
<trkpt lat="7532.94083333333" lon="740.933"><ele></ele><time>2014-6-17T17:3:7Z</time></trkpt>
<trkpt lat="7532.94416666667" lon="740.933333333333"><ele></ele><time>2014-6-17T17:3:10Z</time></trkpt>
<trkpt lat="7532.94683333333" lon="740.9355"><ele></ele><time>2014-6-17T17:3:13Z</time></trkpt>
<trkpt lat="7532.9505" lon="740.936333333333"><ele></ele><time>2014-6-17T17:3:16Z</time></trkpt>
<trkpt lat="7532.9525" lon="740.933666666667"><ele></ele><time>2014-6-17T17:3:19Z</time></trkpt>
<trkpt lat="7532.9565" lon="740.933166666667"><ele></ele><time>2014-6-17T17:3:22Z</time></trkpt>
<trkpt lat="7532.961" lon="740.932333333333"><ele></ele><time>2014-6-17T17:3:25Z</time></trkpt>
<trkpt lat="7532.96533333333" lon="740.931666666667"><ele></ele><time>2014-6-17T17:3:28Z</time></trkpt>
<trkpt lat="7532.96933333333" lon="740.9315"><ele></ele><time>2014-6-17T17:3:31Z</time></trkpt>
<trkpt lat="7532.97266666667" lon="740.931833333333"><ele></ele><time>2014-6-17T17:3:34Z</time></trkpt>
<trkpt lat="7532.97666666667" lon="740.930666666667"><ele></ele><time>2014-6-17T17:3:37Z</time></trkpt>
<trkpt lat="7532.97916666667" lon="740.935666666667"><ele></ele><time>2014-6-17T17:3:40Z</time></trkpt>
<trkpt lat="7532.98183333333" lon="740.9395"><ele></ele><time>2014-6-17T17:3:43Z</time></trkpt>
<trkpt lat="7532.98483333333" lon="740.9405"><ele></ele><time>2014-6-17T17:3:46Z</time></trkpt>
<trkpt lat="7532.989" lon="740.937666666667"><ele></ele><time>2014-6-17T17:3:49Z</time></trkpt>
<trkpt lat="7532.99316666667" lon="740.936833333333"><ele></ele><time>2014-6-17T17:3:52Z</time></trkpt>
<trkpt lat="7532.99733333333" lon="740.935"><ele></ele><time>2014-6-17T17:3:55Z</time></trkpt>
<trkpt lat="7532.99966666667" lon="740.934833333333"><ele></ele><time>2014-6-17T17:3:58Z</time></trkpt>
<trkpt lat="7533.0035" lon="740.933666666667"><ele></ele><time>2014-6-17T17:4:1Z</time></trkpt>
<trkpt lat="7533.007" lon="740.934333333333"><ele></ele><time>2014-6-17T17:4:4Z</time></trkpt>
<trkpt lat="7533.0105" lon="740.935"><ele></ele><time>2014-6-17T17:4:7Z</time></trkpt>
<trkpt lat="7533.014" lon="740.935333333333"><ele></ele><time>2014-6-17T17:4:10Z</time></trkpt>
<trkpt lat="7533.01716666667" lon="740.940833333333"><ele></ele><time>2014-6-17T17:4:13Z</time></trkpt>
<trkpt lat="7533.021" lon="740.944166666667"><ele></ele><time>2014-6-17T17:4:16Z</time></trkpt>
<trkpt lat="7533.025" lon="740.9475"><ele></ele><time>2014-6-17T17:4:19Z</time></trkpt>
<trkpt lat="7533.02883333333" lon="740.948166666667"><ele></ele><time>2014-6-17T17:4:22Z</time></trkpt>
<trkpt lat="7533.0325" lon="740.948333333333"><ele></ele><time>2014-6-17T17:4:25Z</time></trkpt>
<trkpt lat="7533.03633333333" lon="740.948833333333"><ele></ele><time>2014-6-17T17:4:28Z</time></trkpt>
<trkpt lat="7533.04066666667" lon="740.948833333333"><ele></ele><time>2014-6-17T17:4:31Z</time></trkpt>
<trkpt lat="7533.04483333333" lon="740.948833333333"><ele></ele><time>2014-6-17T17:4:34Z</time></trkpt>
<trkpt lat="7533.049" lon="740.948333333333"><ele></ele><time>2014-6-17T17:4:37Z</time></trkpt>
<trkpt lat="7533.053" lon="740.947666666667"><ele></ele><time>2014-6-17T17:4:40Z</time></trkpt>
<trkpt lat="7533.05716666667" lon="740.946666666667"><ele></ele><time>2014-6-17T17:4:43Z</time></trkpt>
<trkpt lat="7533.06133333333" lon="740.946"><ele></ele><time>2014-6-17T17:4:46Z</time></trkpt>
<trkpt lat="7533.06583333333" lon="740.951833333333"><ele></ele><time>2014-6-17T17:4:49Z</time></trkpt>
<trkpt lat="7533.07" lon="740.9525"><ele></ele><time>2014-6-17T17:4:52Z</time></trkpt>
<trkpt lat="7533.074" lon="740.952166666667"><ele></ele><time>2014-6-17T17:4:55Z</time></trkpt>
<trkpt lat="7533.07783333333" lon="740.952"><ele></ele><time>2014-6-17T17:4:58Z</time></trkpt>
<trkpt lat="7533.08166666667" lon="740.952"><ele></ele><time>2014-6-17T17:5:1Z</time></trkpt>
<trkpt lat="7533.0835" lon="740.949"><ele></ele><time>2014-6-17T17:5:4Z</time></trkpt>
<trkpt lat="7533.087" lon="740.947666666667"><ele></ele><time>2014-6-17T17:5:7Z</time></trkpt>
<trkpt lat="7533.091" lon="740.947"><ele></ele><time>2014-6-17T17:5:10Z</time></trkpt>
<trkpt lat="7533.09483333333" lon="740.946833333333"><ele></ele><time>2014-6-17T17:5:13Z</time></trkpt>
<trkpt lat="7533.09866666667" lon="740.946833333333"><ele></ele><time>2014-6-17T17:5:16Z</time></trkpt>
<trkpt lat="7533.10266666667" lon="740.946333333333"><ele></ele><time>2014-6-17T17:5:19Z</time></trkpt>
<trkpt lat="7533.1065" lon="740.945333333333"><ele></ele><time>2014-6-17T17:5:22Z</time></trkpt>
<trkpt lat="7533.10683333333" lon="740.947666666667"><ele></ele><time>2014-6-17T17:5:25Z</time></trkpt>
<trkpt lat="7533.11016666667" lon="740.948"><ele></ele><time>2014-6-17T17:5:28Z</time></trkpt>
<trkpt lat="7533.11433333333" lon="740.947666666667"><ele></ele><time>2014-6-17T17:5:31Z</time></trkpt>
<trkpt lat="7533.11833333333" lon="740.947166666667"><ele></ele><time>2014-6-17T17:5:34Z</time></trkpt>
<trkpt lat="7533.12166666667" lon="740.9485"><ele></ele><time>2014-6-17T17:5:37Z</time></trkpt>
<trkpt lat="7533.12516666667" lon="740.949833333333"><ele></ele><time>2014-6-17T17:5:40Z</time></trkpt>
<trkpt lat="7533.129" lon="740.949333333333"><ele></ele><time>2014-6-17T17:5:43Z</time></trkpt>
<trkpt lat="7533.13283333333" lon="740.947833333333"><ele></ele><time>2014-6-17T17:5:46Z</time></trkpt>
<trkpt lat="7533.13616666667" lon="740.948"><ele></ele><time>2014-6-17T17:5:49Z</time></trkpt>
<trkpt lat="7533.1395" lon="740.948166666667"><ele></ele><time>2014-6-17T17:5:52Z</time></trkpt>
<trkpt lat="7533.14333333333" lon="740.946"><ele></ele><time>2014-6-17T17:5:55Z</time></trkpt>
<trkpt lat="7533.1475" lon="740.9435"><ele></ele><time>2014-6-17T17:5:58Z</time></trkpt>
<trkpt lat="7533.1515" lon="740.9415"><ele></ele><time>2014-6-17T17:6:1Z</time></trkpt>
<trkpt lat="7533.1555" lon="740.941"><ele></ele><time>2014-6-17T17:6:4Z</time></trkpt>
<trkpt lat="7533.1595" lon="740.940333333333"><ele></ele><time>2014-6-17T17:6:7Z</time></trkpt>
<trkpt lat="7533.1635" lon="740.939166666667"><ele></ele><time>2014-6-17T17:6:10Z</time></trkpt>
<trkpt lat="7533.16816666667" lon="740.937166666667"><ele></ele><time>2014-6-17T17:6:13Z</time></trkpt>
<trkpt lat="7533.17266666667" lon="740.935333333333"><ele></ele><time>2014-6-17T17:6:16Z</time></trkpt>
<trkpt lat="7533.17716666667" lon="740.933166666667"><ele></ele><time>2014-6-17T17:6:19Z</time></trkpt>
<trkpt lat="7533.18116666667" lon="740.9315"><ele></ele><time>2014-6-17T17:6:22Z</time></trkpt>
<trkpt lat="7533.18583333333" lon="740.931333333333"><ele></ele><time>2014-6-17T17:6:25Z</time></trkpt>
<trkpt lat="7533.19066666667" lon="740.933166666667"><ele></ele><time>2014-6-17T17:6:28Z</time></trkpt>
<trkpt lat="7533.19533333333" lon="740.9345"><ele></ele><time>2014-6-17T17:6:31Z</time></trkpt>
<trkpt lat="7533.20016666667" lon="740.934833333333"><ele></ele><time>2014-6-17T17:6:34Z</time></trkpt>
<trkpt lat="7533.2045" lon="740.933833333333"><ele></ele><time>2014-6-17T17:6:37Z</time></trkpt>
<trkpt lat="7533.207" lon="740.934666666667"><ele></ele><time>2014-6-17T17:6:40Z</time></trkpt>
<trkpt lat="7533.21116666667" lon="740.935333333333"><ele></ele><time>2014-6-17T17:6:43Z</time></trkpt>
<trkpt lat="7533.215" lon="740.933666666667"><ele></ele><time>2014-6-17T17:6:46Z</time></trkpt>
<trkpt lat="7533.22033333333" lon="740.933666666667"><ele></ele><time>2014-6-17T17:6:49Z</time></trkpt>
<trkpt lat="7533.225" lon="740.934166666667"><ele></ele><time>2014-6-17T17:6:52Z</time></trkpt>
<trkpt lat="7533.23" lon="740.933666666667"><ele></ele><time>2014-6-17T17:6:55Z</time></trkpt>
<trkpt lat="7533.235" lon="740.931"><ele></ele><time>2014-6-17T17:6:58Z</time></trkpt>
<trkpt lat="7533.24" lon="740.929166666667"><ele></ele><time>2014-6-17T17:7:1Z</time></trkpt>
<trkpt lat="7533.24516666667" lon="740.927833333333"><ele></ele><time>2014-6-17T17:7:4Z</time></trkpt>
<trkpt lat="7533.25033333333" lon="740.927"><ele></ele><time>2014-6-17T17:7:7Z</time></trkpt>
<trkpt lat="7533.25566666667" lon="740.926166666667"><ele></ele><time>2014-6-17T17:7:10Z</time></trkpt>
<trkpt lat="7533.26083333333" lon="740.9245"><ele></ele><time>2014-6-17T17:7:13Z</time></trkpt>
<trkpt lat="7533.26583333333" lon="740.9235"><ele></ele><time>2014-6-17T17:7:16Z</time></trkpt>
<trkpt lat="7533.2705" lon="740.922333333333"><ele></ele><time>2014-6-17T17:7:19Z</time></trkpt>
<trkpt lat="7533.27566666667" lon="740.921666666667"><ele></ele><time>2014-6-17T17:7:22Z</time></trkpt>
<trkpt lat="7533.281" lon="740.919666666667"><ele></ele><time>2014-6-17T17:7:25Z</time></trkpt>
<trkpt lat="7533.28633333333" lon="740.918166666667"><ele></ele><time>2014-6-17T17:7:28Z</time></trkpt>
<trkpt lat="7533.29216666667" lon="740.918333333333"><ele></ele><time>2014-6-17T17:7:31Z</time></trkpt>
<trkpt lat="7533.29633333333" lon="740.915166666667"><ele></ele><time>2014-6-17T17:7:34Z</time></trkpt>
<trkpt lat="7533.3015" lon="740.913166666667"><ele></ele><time>2014-6-17T17:7:37Z</time></trkpt>
<trkpt lat="7533.3065" lon="740.9145"><ele></ele><time>2014-6-17T17:7:40Z</time></trkpt>
<trkpt lat="7533.31133333333" lon="740.9145"><ele></ele><time>2014-6-17T17:7:43Z</time></trkpt>
<trkpt lat="7533.31633333333" lon="740.914166666667"><ele></ele><time>2014-6-17T17:7:46Z</time></trkpt>
<trkpt lat="7533.32033333333" lon="740.908833333333"><ele></ele><time>2014-6-17T17:7:49Z</time></trkpt>
<trkpt lat="7533.32583333333" lon="740.906833333333"><ele></ele><time>2014-6-17T17:7:52Z</time></trkpt>
<trkpt lat="7533.3315" lon="740.904166666667"><ele></ele><time>2014-6-17T17:7:55Z</time></trkpt>
<trkpt lat="7533.33716666667" lon="740.901333333333"><ele></ele><time>2014-6-17T17:7:58Z</time></trkpt>
<trkpt lat="7533.3425" lon="740.898833333333"><ele></ele><time>2014-6-17T17:8:1Z</time></trkpt>
<trkpt lat="7533.3475" lon="740.897333333333"><ele></ele><time>2014-6-17T17:8:4Z</time></trkpt>
<trkpt lat="7533.35283333333" lon="740.894666666667"><ele></ele><time>2014-6-17T17:8:7Z</time></trkpt>
<trkpt lat="7533.35783333333" lon="740.893833333333"><ele></ele><time>2014-6-17T17:8:10Z</time></trkpt>
<trkpt lat="7533.36283333333" lon="740.892666666667"><ele></ele><time>2014-6-17T17:8:13Z</time></trkpt>
<trkpt lat="7533.36783333333" lon="740.891833333333"><ele></ele><time>2014-6-17T17:8:16Z</time></trkpt>
<trkpt lat="7533.373" lon="740.893"><ele></ele><time>2014-6-17T17:8:19Z</time></trkpt>
<trkpt lat="7533.3785" lon="740.890166666667"><ele></ele><time>2014-6-17T17:8:22Z</time></trkpt>
<trkpt lat="7533.38366666667" lon="740.891"><ele></ele><time>2014-6-17T17:8:25Z</time></trkpt>
<trkpt lat="7533.38883333333" lon="740.894166666667"><ele></ele><time>2014-6-17T17:8:28Z</time></trkpt>
<trkpt lat="7533.39433333333" lon="740.897666666667"><ele></ele><time>2014-6-17T17:8:31Z</time></trkpt>
<trkpt lat="7533.39716666667" lon="740.896333333333"><ele></ele><time>2014-6-17T17:8:34Z</time></trkpt>
<trkpt lat="7533.40216666667" lon="740.895666666667"><ele></ele><time>2014-6-17T17:8:37Z</time></trkpt>
<trkpt lat="7533.40716666667" lon="740.894166666667"><ele></ele><time>2014-6-17T17:8:40Z</time></trkpt>
<trkpt lat="7533.41216666667" lon="740.8925"><ele></ele><time>2014-6-17T17:8:43Z</time></trkpt>
<trkpt lat="7533.41733333333" lon="740.891166666667"><ele></ele><time>2014-6-17T17:8:46Z</time></trkpt>
<trkpt lat="7533.42233333333" lon="740.89"><ele></ele><time>2014-6-17T17:8:49Z</time></trkpt>
<trkpt lat="7533.42716666667" lon="740.888333333333"><ele></ele><time>2014-6-17T17:8:52Z</time></trkpt>
<trkpt lat="7533.43216666667" lon="740.887"><ele></ele><time>2014-6-17T17:8:55Z</time></trkpt>
<trkpt lat="7533.43733333333" lon="740.885833333333"><ele></ele><time>2014-6-17T17:8:58Z</time></trkpt>
<trkpt lat="7533.44116666667" lon="740.8855"><ele></ele><time>2014-6-17T17:9:1Z</time></trkpt>
<trkpt lat="7533.44616666667" lon="740.8895"><ele></ele><time>2014-6-17T17:9:4Z</time></trkpt>
<trkpt lat="7533.45066666667" lon="740.892166666667"><ele></ele><time>2014-6-17T17:9:7Z</time></trkpt>
<trkpt lat="7533.454" lon="740.891666666667"><ele></ele><time>2014-6-17T17:9:10Z</time></trkpt>
<trkpt lat="7533.456" lon="740.894166666667"><ele></ele><time>2014-6-17T17:9:13Z</time></trkpt>
<trkpt lat="7533.458" lon="740.897666666667"><ele></ele><time>2014-6-17T17:9:16Z</time></trkpt>
<trkpt lat="7533.46033333333" lon="740.9015"><ele></ele><time>2014-6-17T17:9:19Z</time></trkpt>
<trkpt lat="7533.465" lon="740.905"><ele></ele><time>2014-6-17T17:9:22Z</time></trkpt>
<trkpt lat="7533.47016666667" lon="740.907"><ele></ele><time>2014-6-17T17:9:25Z</time></trkpt>
<trkpt lat="7533.4735" lon="740.908333333333"><ele></ele><time>2014-6-17T17:9:28Z</time></trkpt>
<trkpt lat="7533.47633333333" lon="740.905833333333"><ele></ele><time>2014-6-17T17:9:31Z</time></trkpt>
<trkpt lat="7533.48" lon="740.906666666667"><ele></ele><time>2014-6-17T17:9:34Z</time></trkpt>
<trkpt lat="7533.4835" lon="740.908666666667"><ele></ele><time>2014-6-17T17:9:37Z</time></trkpt>
<trkpt lat="7533.48766666667" lon="740.9095"><ele></ele><time>2014-6-17T17:9:40Z</time></trkpt>
<trkpt lat="7533.492" lon="740.908666666667"><ele></ele><time>2014-6-17T17:9:43Z</time></trkpt>
<trkpt lat="7533.49516666667" lon="740.908"><ele></ele><time>2014-6-17T17:9:46Z</time></trkpt>
<trkpt lat="7533.49866666667" lon="740.908166666667"><ele></ele><time>2014-6-17T17:9:49Z</time></trkpt>
<trkpt lat="7533.502" lon="740.9065"><ele></ele><time>2014-6-17T17:9:52Z</time></trkpt>
<trkpt lat="7533.50633333333" lon="740.905166666667"><ele></ele><time>2014-6-17T17:9:55Z</time></trkpt>
<trkpt lat="7533.51066666667" lon="740.904333333333"><ele></ele><time>2014-6-17T17:9:58Z</time></trkpt>
<trkpt lat="7533.515" lon="740.903833333333"><ele></ele><time>2014-6-17T17:10:1Z</time></trkpt>
<trkpt lat="7533.51933333333" lon="740.9035"><ele></ele><time>2014-6-17T17:10:4Z</time></trkpt>
<trkpt lat="7533.52366666667" lon="740.905166666667"><ele></ele><time>2014-6-17T17:10:7Z</time></trkpt>
<trkpt lat="7533.52783333333" lon="740.904333333333"><ele></ele><time>2014-6-17T17:10:10Z</time></trkpt>
<trkpt lat="7533.53266666667" lon="740.902666666667"><ele></ele><time>2014-6-17T17:10:13Z</time></trkpt>
<trkpt lat="7533.53783333333" lon="740.899833333333"><ele></ele><time>2014-6-17T17:10:16Z</time></trkpt>
<trkpt lat="7533.54283333333" lon="740.898166666667"><ele></ele><time>2014-6-17T17:10:19Z</time></trkpt>
<trkpt lat="7533.54816666667" lon="740.8945"><ele></ele><time>2014-6-17T17:10:22Z</time></trkpt>
<trkpt lat="7533.55366666667" lon="740.894"><ele></ele><time>2014-6-17T17:10:25Z</time></trkpt>
<trkpt lat="7533.55883333333" lon="740.892"><ele></ele><time>2014-6-17T17:10:28Z</time></trkpt>
<trkpt lat="7533.564" lon="740.8895"><ele></ele><time>2014-6-17T17:10:31Z</time></trkpt>
<trkpt lat="7533.5695" lon="740.8885"><ele></ele><time>2014-6-17T17:10:34Z</time></trkpt>
<trkpt lat="7533.57516666667" lon="740.889166666667"><ele></ele><time>2014-6-17T17:10:37Z</time></trkpt>
<trkpt lat="7533.581" lon="740.890166666667"><ele></ele><time>2014-6-17T17:10:40Z</time></trkpt>
<trkpt lat="7533.586" lon="740.889166666667"><ele></ele><time>2014-6-17T17:10:43Z</time></trkpt>
<trkpt lat="7533.59066666667" lon="740.8875"><ele></ele><time>2014-6-17T17:10:46Z</time></trkpt>
<trkpt lat="7533.5955" lon="740.885833333333"><ele></ele><time>2014-6-17T17:10:49Z</time></trkpt>
<trkpt lat="7533.60116666667" lon="740.8865"><ele></ele><time>2014-6-17T17:10:52Z</time></trkpt>
<trkpt lat="7533.6065" lon="740.886166666667"><ele></ele><time>2014-6-17T17:10:55Z</time></trkpt>
<trkpt lat="7533.61133333333" lon="740.884833333333"><ele></ele><time>2014-6-17T17:10:58Z</time></trkpt>
<trkpt lat="7533.617" lon="740.887333333333"><ele></ele><time>2014-6-17T17:11:1Z</time></trkpt>
<trkpt lat="7533.62133333333" lon="740.889"><ele></ele><time>2014-6-17T17:11:4Z</time></trkpt>
<trkpt lat="7533.62583333333" lon="740.887333333333"><ele></ele><time>2014-6-17T17:11:7Z</time></trkpt>
<trkpt lat="7533.63066666667" lon="740.886666666667"><ele></ele><time>2014-6-17T17:11:10Z</time></trkpt>
<trkpt lat="7533.63533333333" lon="740.8845"><ele></ele><time>2014-6-17T17:11:13Z</time></trkpt>
<trkpt lat="7533.63983333333" lon="740.883"><ele></ele><time>2014-6-17T17:11:16Z</time></trkpt>
<trkpt lat="7533.64483333333" lon="740.882166666667"><ele></ele><time>2014-6-17T17:11:19Z</time></trkpt>
<trkpt lat="7533.64983333333" lon="740.884833333333"><ele></ele><time>2014-6-17T17:11:22Z</time></trkpt>
<trkpt lat="7533.6545" lon="740.884"><ele></ele><time>2014-6-17T17:11:25Z</time></trkpt>
<trkpt lat="7533.65883333333" lon="740.882833333333"><ele></ele><time>2014-6-17T17:11:28Z</time></trkpt>
<trkpt lat="7533.66316666667" lon="740.881666666667"><ele></ele><time>2014-6-17T17:11:31Z</time></trkpt>
<trkpt lat="7533.66783333333" lon="740.879166666667"><ele></ele><time>2014-6-17T17:11:34Z</time></trkpt>
<trkpt lat="7533.67333333333" lon="740.881833333333"><ele></ele><time>2014-6-17T17:11:37Z</time></trkpt>
<trkpt lat="7533.67866666667" lon="740.884166666667"><ele></ele><time>2014-6-17T17:11:40Z</time></trkpt>
<trkpt lat="7533.68416666667" lon="740.885"><ele></ele><time>2014-6-17T17:11:43Z</time></trkpt>
<trkpt lat="7533.689" lon="740.8845"><ele></ele><time>2014-6-17T17:11:46Z</time></trkpt>
<trkpt lat="7533.69366666667" lon="740.884"><ele></ele><time>2014-6-17T17:11:49Z</time></trkpt>
<trkpt lat="7533.69866666667" lon="740.882"><ele></ele><time>2014-6-17T17:11:52Z</time></trkpt>
<trkpt lat="7533.70383333333" lon="740.881"><ele></ele><time>2014-6-17T17:11:55Z</time></trkpt>
<trkpt lat="7533.709" lon="740.877833333333"><ele></ele><time>2014-6-17T17:11:58Z</time></trkpt>
<trkpt lat="7533.71416666667" lon="740.875333333333"><ele></ele><time>2014-6-17T17:12:1Z</time></trkpt>
<trkpt lat="7533.71933333333" lon="740.871833333333"><ele></ele><time>2014-6-17T17:12:4Z</time></trkpt>
<trkpt lat="7533.72416666667" lon="740.8695"><ele></ele><time>2014-6-17T17:12:7Z</time></trkpt>
<trkpt lat="7533.72916666667" lon="740.869833333333"><ele></ele><time>2014-6-17T17:12:10Z</time></trkpt>
<trkpt lat="7533.73433333333" lon="740.871833333333"><ele></ele><time>2014-6-17T17:12:13Z</time></trkpt>
<trkpt lat="7533.73966666667" lon="740.873166666667"><ele></ele><time>2014-6-17T17:12:16Z</time></trkpt>
<trkpt lat="7533.74483333333" lon="740.873166666667"><ele></ele><time>2014-6-17T17:12:19Z</time></trkpt>
<trkpt lat="7533.74983333333" lon="740.8715"><ele></ele><time>2014-6-17T17:12:22Z</time></trkpt>
<trkpt lat="7533.755" lon="740.871"><ele></ele><time>2014-6-17T17:12:25Z</time></trkpt>
<trkpt lat="7533.76033333333" lon="740.872833333333"><ele></ele><time>2014-6-17T17:12:28Z</time></trkpt>
<trkpt lat="7533.76533333333" lon="740.872333333333"><ele></ele><time>2014-6-17T17:12:31Z</time></trkpt>
<trkpt lat="7533.77066666667" lon="740.872"><ele></ele><time>2014-6-17T17:12:34Z</time></trkpt>
<trkpt lat="7533.77583333333" lon="740.870333333333"><ele></ele><time>2014-6-17T17:12:37Z</time></trkpt>
<trkpt lat="7533.78116666667" lon="740.868833333333"><ele></ele><time>2014-6-17T17:12:40Z</time></trkpt>
<trkpt lat="7533.78633333333" lon="740.8685"><ele></ele><time>2014-6-17T17:12:43Z</time></trkpt>
<trkpt lat="7533.7875" lon="740.865166666667"><ele></ele><time>2014-6-17T17:12:46Z</time></trkpt>
<trkpt lat="7533.79233333333" lon="740.865"><ele></ele><time>2014-6-17T17:12:49Z</time></trkpt>
<trkpt lat="7533.79716666667" lon="740.863"><ele></ele><time>2014-6-17T17:12:52Z</time></trkpt>
<trkpt lat="7533.80283333333" lon="740.863666666667"><ele></ele><time>2014-6-17T17:12:55Z</time></trkpt>
<trkpt lat="7533.80816666667" lon="740.864666666667"><ele></ele><time>2014-6-17T17:12:58Z</time></trkpt>
<trkpt lat="7533.8135" lon="740.863666666667"><ele></ele><time>2014-6-17T17:13:1Z</time></trkpt>
<trkpt lat="7533.81866666667" lon="740.863333333333"><ele></ele><time>2014-6-17T17:13:4Z</time></trkpt>
<trkpt lat="7533.82416666667" lon="740.862666666667"><ele></ele><time>2014-6-17T17:13:7Z</time></trkpt>
<trkpt lat="7533.82933333333" lon="740.861166666667"><ele></ele><time>2014-6-17T17:13:10Z</time></trkpt>
<trkpt lat="7533.83466666667" lon="740.861666666667"><ele></ele><time>2014-6-17T17:13:13Z</time></trkpt>
<trkpt lat="7533.83933333333" lon="740.860833333333"><ele></ele><time>2014-6-17T17:13:16Z</time></trkpt>
<trkpt lat="7533.844" lon="740.858833333333"><ele></ele><time>2014-6-17T17:13:19Z</time></trkpt>
<trkpt lat="7533.84816666667" lon="740.857166666667"><ele></ele><time>2014-6-17T17:13:22Z</time></trkpt>
<trkpt lat="7533.853" lon="740.853666666667"><ele></ele><time>2014-6-17T17:13:25Z</time></trkpt>
<trkpt lat="7533.8575" lon="740.851166666667"><ele></ele><time>2014-6-17T17:13:28Z</time></trkpt>
<trkpt lat="7533.8625" lon="740.848833333333"><ele></ele><time>2014-6-17T17:13:31Z</time></trkpt>
<trkpt lat="7533.8675" lon="740.846666666667"><ele></ele><time>2014-6-17T17:13:34Z</time></trkpt>
<trkpt lat="7533.87216666667" lon="740.844833333333"><ele></ele><time>2014-6-17T17:13:37Z</time></trkpt>
<trkpt lat="7533.87666666667" lon="740.8425"><ele></ele><time>2014-6-17T17:13:40Z</time></trkpt>
<trkpt lat="7533.88116666667" lon="740.839833333333"><ele></ele><time>2014-6-17T17:13:43Z</time></trkpt>
<trkpt lat="7533.8855" lon="740.837833333333"><ele></ele><time>2014-6-17T17:13:46Z</time></trkpt>
<trkpt lat="7533.89016666667" lon="740.835333333333"><ele></ele><time>2014-6-17T17:13:49Z</time></trkpt>
<trkpt lat="7533.89483333333" lon="740.834"><ele></ele><time>2014-6-17T17:13:52Z</time></trkpt>
<trkpt lat="7533.89933333333" lon="740.832333333333"><ele></ele><time>2014-6-17T17:13:55Z</time></trkpt>
<trkpt lat="7533.90383333333" lon="740.830333333333"><ele></ele><time>2014-6-17T17:13:58Z</time></trkpt>
<trkpt lat="7533.9065" lon="740.829833333333"><ele></ele><time>2014-6-17T17:14:1Z</time></trkpt>
<trkpt lat="7533.91133333333" lon="740.828"><ele></ele><time>2014-6-17T17:14:4Z</time></trkpt>
<trkpt lat="7533.91633333333" lon="740.8265"><ele></ele><time>2014-6-17T17:14:7Z</time></trkpt>
<trkpt lat="7533.92116666667" lon="740.824833333333"><ele></ele><time>2014-6-17T17:14:10Z</time></trkpt>
<trkpt lat="7533.926" lon="740.823"><ele></ele><time>2014-6-17T17:14:13Z</time></trkpt>
<trkpt lat="7533.93116666667" lon="740.823333333333"><ele></ele><time>2014-6-17T17:14:16Z</time></trkpt>
<trkpt lat="7533.936" lon="740.8235"><ele></ele><time>2014-6-17T17:14:19Z</time></trkpt>
<trkpt lat="7533.9405" lon="740.822833333333"><ele></ele><time>2014-6-17T17:14:22Z</time></trkpt>
<trkpt lat="7533.94533333333" lon="740.8215"><ele></ele><time>2014-6-17T17:14:25Z</time></trkpt>
<trkpt lat="7533.95" lon="740.8195"><ele></ele><time>2014-6-17T17:14:28Z</time></trkpt>
<trkpt lat="7533.95316666667" lon="740.817333333333"><ele></ele><time>2014-6-17T17:14:31Z</time></trkpt>
<trkpt lat="7533.955" lon="740.816333333333"><ele></ele><time>2014-6-17T17:14:34Z</time></trkpt>
<trkpt lat="7533.95783333333" lon="740.815"><ele></ele><time>2014-6-17T17:14:37Z</time></trkpt>
<trkpt lat="7533.96216666667" lon="740.812833333333"><ele></ele><time>2014-6-17T17:14:40Z</time></trkpt>
<trkpt lat="7533.967" lon="740.811"><ele></ele><time>2014-6-17T17:14:43Z</time></trkpt>
<trkpt lat="7533.9705" lon="740.808666666667"><ele></ele><time>2014-6-17T17:14:46Z</time></trkpt>
<trkpt lat="7533.975" lon="740.806"><ele></ele><time>2014-6-17T17:14:49Z</time></trkpt>
<trkpt lat="7533.9795" lon="740.804"><ele></ele><time>2014-6-17T17:14:52Z</time></trkpt>
<trkpt lat="7533.98433333333" lon="740.802666666667"><ele></ele><time>2014-6-17T17:14:55Z</time></trkpt>
<trkpt lat="7533.98916666667" lon="740.801333333333"><ele></ele><time>2014-6-17T17:14:58Z</time></trkpt>
<trkpt lat="7533.994" lon="740.799166666667"><ele></ele><time>2014-6-17T17:15:1Z</time></trkpt>
<trkpt lat="7533.999" lon="740.7965"><ele></ele><time>2014-6-17T17:15:4Z</time></trkpt>
<trkpt lat="7534.00383333333" lon="740.794166666667"><ele></ele><time>2014-6-17T17:15:7Z</time></trkpt>
<trkpt lat="7534.00883333333" lon="740.7915"><ele></ele><time>2014-6-17T17:15:10Z</time></trkpt>
<trkpt lat="7534.01366666667" lon="740.788833333333"><ele></ele><time>2014-6-17T17:15:13Z</time></trkpt>
<trkpt lat="7534.01816666667" lon="740.786333333333"><ele></ele><time>2014-6-17T17:15:16Z</time></trkpt>
<trkpt lat="7534.02233333333" lon="740.783333333333"><ele></ele><time>2014-6-17T17:15:19Z</time></trkpt>
<trkpt lat="7534.02683333333" lon="740.780333333333"><ele></ele><time>2014-6-17T17:15:22Z</time></trkpt>
<trkpt lat="7534.03166666667" lon="740.779"><ele></ele><time>2014-6-17T17:15:25Z</time></trkpt>
<trkpt lat="7534.0365" lon="740.778"><ele></ele><time>2014-6-17T17:15:28Z</time></trkpt>
<trkpt lat="7534.04133333333" lon="740.777666666667"><ele></ele><time>2014-6-17T17:15:31Z</time></trkpt>
<trkpt lat="7534.0465" lon="740.777833333333"><ele></ele><time>2014-6-17T17:15:34Z</time></trkpt>
<trkpt lat="7534.0515" lon="740.777333333333"><ele></ele><time>2014-6-17T17:15:37Z</time></trkpt>
<trkpt lat="7534.05616666667" lon="740.7765"><ele></ele><time>2014-6-17T17:15:40Z</time></trkpt>
<trkpt lat="7534.059" lon="740.773666666667"><ele></ele><time>2014-6-17T17:15:43Z</time></trkpt>
<trkpt lat="7534.06383333333" lon="740.772166666667"><ele></ele><time>2014-6-17T17:15:46Z</time></trkpt>
<trkpt lat="7534.06616666667" lon="740.769166666667"><ele></ele><time>2014-6-17T17:15:49Z</time></trkpt>
<trkpt lat="7534.07083333333" lon="740.769166666667"><ele></ele><time>2014-6-17T17:15:52Z</time></trkpt>
<trkpt lat="7534.0755" lon="740.768666666667"><ele></ele><time>2014-6-17T17:15:55Z</time></trkpt>
<trkpt lat="7534.07833333333" lon="740.766166666667"><ele></ele><time>2014-6-17T17:15:58Z</time></trkpt>
<trkpt lat="7534.08233333333" lon="740.765833333333"><ele></ele><time>2014-6-17T17:16:1Z</time></trkpt>
<trkpt lat="7534.086" lon="740.765833333333"><ele></ele><time>2014-6-17T17:16:4Z</time></trkpt>
<trkpt lat="7534.0895" lon="740.766"><ele></ele><time>2014-6-17T17:16:7Z</time></trkpt>
<trkpt lat="7534.09266666667" lon="740.767166666667"><ele></ele><time>2014-6-17T17:16:10Z</time></trkpt>
<trkpt lat="7534.09483333333" lon="740.768166666667"><ele></ele><time>2014-6-17T17:16:13Z</time></trkpt>
<trkpt lat="7534.09533333333" lon="740.766666666667"><ele></ele><time>2014-6-17T17:16:16Z</time></trkpt>
<trkpt lat="7534.0965" lon="740.767666666667"><ele></ele><time>2014-6-17T17:16:19Z</time></trkpt>
<trkpt lat="7534.09733333333" lon="740.7685"><ele></ele><time>2014-6-17T17:16:22Z</time></trkpt>
<trkpt lat="7534.09733333333" lon="740.7685"><ele></ele><time>2014-6-17T17:16:25Z</time></trkpt>
<trkpt lat="7534.09733333333" lon="740.7685"><ele></ele><time>2014-6-17T17:16:28Z</time></trkpt>
<trkpt lat="7534.09733333333" lon="740.7685"><ele></ele><time>2014-6-17T17:16:31Z</time></trkpt>
<trkpt lat="7534.09733333333" lon="740.7685"><ele></ele><time>2014-6-17T17:16:34Z</time></trkpt>
<trkpt lat="7534.09733333333" lon="740.7685"><ele></ele><time>2014-6-17T17:16:37Z</time></trkpt>
<trkpt lat="7534.09733333333" lon="740.7685"><ele></ele><time>2014-6-17T17:16:40Z</time></trkpt>
<trkpt lat="7534.09783333333" lon="740.7705"><ele></ele><time>2014-6-17T17:16:43Z</time></trkpt>
<trkpt lat="7534.0985" lon="740.7715"><ele></ele><time>2014-6-17T17:16:46Z</time></trkpt>
<trkpt lat="7534.09933333333" lon="740.771833333333"><ele></ele><time>2014-6-17T17:16:49Z</time></trkpt>
<trkpt lat="7534.09933333333" lon="740.771833333333"><ele></ele><time>2014-6-17T17:16:52Z</time></trkpt>
<trkpt lat="7534.09933333333" lon="740.771833333333"><ele></ele><time>2014-6-17T17:16:55Z</time></trkpt>
<trkpt lat="7534.09933333333" lon="740.771833333333"><ele></ele><time>2014-6-17T17:16:58Z</time></trkpt>
<trkpt lat="7534.09933333333" lon="740.771833333333"><ele></ele><time>2014-6-17T17:17:1Z</time></trkpt>
<trkpt lat="7534.09933333333" lon="740.771833333333"><ele></ele><time>2014-6-17T17:17:4Z</time></trkpt>
<trkpt lat="7534.09933333333" lon="740.771833333333"><ele></ele><time>2014-6-17T17:17:7Z</time></trkpt>
<trkpt lat="7534.09933333333" lon="740.771833333333"><ele></ele><time>2014-6-17T17:17:10Z</time></trkpt>
<trkpt lat="7534.09933333333" lon="740.771833333333"><ele></ele><time>2014-6-17T17:17:13Z</time></trkpt>
<trkpt lat="7534.09933333333" lon="740.771833333333"><ele></ele><time>2014-6-17T17:17:16Z</time></trkpt>
<trkpt lat="7534.09933333333" lon="740.771833333333"><ele></ele><time>2014-6-17T17:17:19Z</time></trkpt>
<trkpt lat="7534.09933333333" lon="740.771833333333"><ele></ele><time>2014-6-17T17:17:22Z</time></trkpt>
<trkpt lat="7534.09933333333" lon="740.771833333333"><ele></ele><time>2014-6-17T17:17:25Z</time></trkpt>
<trkpt lat="7534.09933333333" lon="740.771833333333"><ele></ele><time>2014-6-17T17:17:28Z</time></trkpt>
<trkpt lat="7534.09933333333" lon="740.771833333333"><ele></ele><time>2014-6-17T17:17:31Z</time></trkpt>
<trkpt lat="7534.09933333333" lon="740.771833333333"><ele></ele><time>2014-6-17T17:17:34Z</time></trkpt>
<trkpt lat="7534.09933333333" lon="740.771833333333"><ele></ele><time>2014-6-17T17:17:37Z</time></trkpt>
<trkpt lat="7534.09933333333" lon="740.771833333333"><ele></ele><time>2014-6-17T17:17:40Z</time></trkpt>
<trkpt lat="7534.09933333333" lon="740.771833333333"><ele></ele><time>2014-6-17T17:17:43Z</time></trkpt>
<trkpt lat="7534.09933333333" lon="740.771833333333"><ele></ele><time>2014-6-17T17:17:46Z</time></trkpt>
<trkpt lat="7534.09933333333" lon="740.771833333333"><ele></ele><time>2014-6-17T17:17:49Z</time></trkpt>
<trkpt lat="7534.09933333333" lon="740.771833333333"><ele></ele><time>2014-6-17T17:17:52Z</time></trkpt>
<trkpt lat="7534.09933333333" lon="740.771833333333"><ele></ele><time>2014-6-17T17:17:55Z</time></trkpt>
<trkpt lat="7534.09933333333" lon="740.771833333333"><ele></ele><time>2014-6-17T17:17:58Z</time></trkpt>
<trkpt lat="7534.09933333333" lon="740.771833333333"><ele></ele><time>2014-6-17T17:18:1Z</time></trkpt>
<trkpt lat="7534.09933333333" lon="740.771833333333"><ele></ele><time>2014-6-17T17:18:4Z</time></trkpt>
<trkpt lat="7534.09933333333" lon="740.771833333333"><ele></ele><time>2014-6-17T17:18:7Z</time></trkpt>
<trkpt lat="7534.09933333333" lon="740.771833333333"><ele></ele><time>2014-6-17T17:18:10Z</time></trkpt>
<trkpt lat="7534.09883333333" lon="740.770166666667"><ele></ele><time>2014-6-17T17:18:13Z</time></trkpt>
<trkpt lat="7534.09883333333" lon="740.768166666667"><ele></ele><time>2014-6-17T17:18:16Z</time></trkpt>
<trkpt lat="7534.0975" lon="740.768333333333"><ele></ele><time>2014-6-17T17:18:19Z</time></trkpt>
<trkpt lat="7534.0985" lon="740.769166666667"><ele></ele><time>2014-6-17T17:18:22Z</time></trkpt>
<trkpt lat="7534.1005" lon="740.770166666667"><ele></ele><time>2014-6-17T17:18:25Z</time></trkpt>
<trkpt lat="7534.1025" lon="740.771166666667"><ele></ele><time>2014-6-17T17:18:28Z</time></trkpt>
<trkpt lat="7534.1045" lon="740.771666666667"><ele></ele><time>2014-6-17T17:18:31Z</time></trkpt>
<trkpt lat="7534.10716666667" lon="740.771166666667"><ele></ele><time>2014-6-17T17:18:34Z</time></trkpt>
<trkpt lat="7534.11016666667" lon="740.7705"><ele></ele><time>2014-6-17T17:18:37Z</time></trkpt>
<trkpt lat="7534.1135" lon="740.77"><ele></ele><time>2014-6-17T17:18:40Z</time></trkpt>
<trkpt lat="7534.117" lon="740.770333333333"><ele></ele><time>2014-6-17T17:18:43Z</time></trkpt>
<trkpt lat="7534.12033333333" lon="740.7705"><ele></ele><time>2014-6-17T17:18:46Z</time></trkpt>
<trkpt lat="7534.12333333333" lon="740.7705"><ele></ele><time>2014-6-17T17:18:49Z</time></trkpt>
<trkpt lat="7534.126" lon="740.7705"><ele></ele><time>2014-6-17T17:18:52Z</time></trkpt>
<trkpt lat="7534.12866666667" lon="740.772166666667"><ele></ele><time>2014-6-17T17:18:55Z</time></trkpt>
<trkpt lat="7534.13183333333" lon="740.772833333333"><ele></ele><time>2014-6-17T17:18:58Z</time></trkpt>
<trkpt lat="7534.13483333333" lon="740.773"><ele></ele><time>2014-6-17T17:19:1Z</time></trkpt>
<trkpt lat="7534.1355" lon="740.770666666667"><ele></ele><time>2014-6-17T17:19:4Z</time></trkpt>
<trkpt lat="7534.13683333333" lon="740.768833333333"><ele></ele><time>2014-6-17T17:19:7Z</time></trkpt>
<trkpt lat="7534.13866666667" lon="740.767833333333"><ele></ele><time>2014-6-17T17:19:10Z</time></trkpt>
<trkpt lat="7534.1405" lon="740.767166666667"><ele></ele><time>2014-6-17T17:19:13Z</time></trkpt>
<trkpt lat="7534.14266666667" lon="740.766333333333"><ele></ele><time>2014-6-17T17:19:16Z</time></trkpt>
<trkpt lat="7534.14483333333" lon="740.763833333333"><ele></ele><time>2014-6-17T17:19:19Z</time></trkpt>
<trkpt lat="7534.1475" lon="740.761833333333"><ele></ele><time>2014-6-17T17:19:22Z</time></trkpt>
<trkpt lat="7534.14933333333" lon="740.7575"><ele></ele><time>2014-6-17T17:19:25Z</time></trkpt>
<trkpt lat="7534.15066666667" lon="740.752666666667"><ele></ele><time>2014-6-17T17:19:28Z</time></trkpt>
<trkpt lat="7534.15233333333" lon="740.749"><ele></ele><time>2014-6-17T17:19:31Z</time></trkpt>
<trkpt lat="7534.15316666667" lon="740.744833333333"><ele></ele><time>2014-6-17T17:19:34Z</time></trkpt>
<trkpt lat="7534.154" lon="740.741166666667"><ele></ele><time>2014-6-17T17:19:37Z</time></trkpt>
<trkpt lat="7534.15466666667" lon="740.737666666667"><ele></ele><time>2014-6-17T17:19:40Z</time></trkpt>
<trkpt lat="7534.1555" lon="740.733333333333"><ele></ele><time>2014-6-17T17:19:43Z</time></trkpt>
<trkpt lat="7534.15616666667" lon="740.728666666667"><ele></ele><time>2014-6-17T17:19:46Z</time></trkpt>
<trkpt lat="7534.1565" lon="740.723666666667"><ele></ele><time>2014-6-17T17:19:49Z</time></trkpt>
<trkpt lat="7534.15716666667" lon="740.7185"><ele></ele><time>2014-6-17T17:19:52Z</time></trkpt>
<trkpt lat="7534.157" lon="740.713666666667"><ele></ele><time>2014-6-17T17:19:55Z</time></trkpt>
<trkpt lat="7534.157" lon="740.708833333333"><ele></ele><time>2014-6-17T17:19:58Z</time></trkpt>
<trkpt lat="7534.15666666667" lon="740.703833333333"><ele></ele><time>2014-6-17T17:20:1Z</time></trkpt>
<trkpt lat="7534.1565" lon="740.698666666667"><ele></ele><time>2014-6-17T17:20:4Z</time></trkpt>
<trkpt lat="7534.157" lon="740.693166666667"><ele></ele><time>2014-6-17T17:20:7Z</time></trkpt>
<trkpt lat="7534.15766666667" lon="740.687833333333"><ele></ele><time>2014-6-17T17:20:10Z</time></trkpt>
<trkpt lat="7534.15783333333" lon="740.682333333333"><ele></ele><time>2014-6-17T17:20:13Z</time></trkpt>
<trkpt lat="7534.15766666667" lon="740.677"><ele></ele><time>2014-6-17T17:20:16Z</time></trkpt>
<trkpt lat="7534.15783333333" lon="740.671666666667"><ele></ele><time>2014-6-17T17:20:19Z</time></trkpt>
<trkpt lat="7534.15883333333" lon="740.666666666667"><ele></ele><time>2014-6-17T17:20:22Z</time></trkpt>
<trkpt lat="7534.1595" lon="740.661833333333"><ele></ele><time>2014-6-17T17:20:25Z</time></trkpt>
<trkpt lat="7534.16133333333" lon="740.657666666667"><ele></ele><time>2014-6-17T17:20:28Z</time></trkpt>
<trkpt lat="7534.16416666667" lon="740.654"><ele></ele><time>2014-6-17T17:20:31Z</time></trkpt>
<trkpt lat="7534.16666666667" lon="740.651333333333"><ele></ele><time>2014-6-17T17:20:34Z</time></trkpt>
<trkpt lat="7534.16966666667" lon="740.650166666667"><ele></ele><time>2014-6-17T17:20:37Z</time></trkpt>
<trkpt lat="7534.17283333333" lon="740.6495"><ele></ele><time>2014-6-17T17:20:40Z</time></trkpt>
<trkpt lat="7534.1765" lon="740.648833333333"><ele></ele><time>2014-6-17T17:20:43Z</time></trkpt>
<trkpt lat="7534.17983333333" lon="740.649"><ele></ele><time>2014-6-17T17:20:46Z</time></trkpt>
<trkpt lat="7534.18283333333" lon="740.649833333333"><ele></ele><time>2014-6-17T17:20:49Z</time></trkpt>
<trkpt lat="7534.186" lon="740.649333333333"><ele></ele><time>2014-6-17T17:20:52Z</time></trkpt>
<trkpt lat="7534.18916666667" lon="740.648833333333"><ele></ele><time>2014-6-17T17:20:55Z</time></trkpt>
<trkpt lat="7534.19216666667" lon="740.6485"><ele></ele><time>2014-6-17T17:20:58Z</time></trkpt>
<trkpt lat="7534.19516666667" lon="740.6485"><ele></ele><time>2014-6-17T17:21:1Z</time></trkpt>
<trkpt lat="7534.19833333333" lon="740.6475"><ele></ele><time>2014-6-17T17:21:4Z</time></trkpt>
<trkpt lat="7534.20183333333" lon="740.646166666667"><ele></ele><time>2014-6-17T17:21:7Z</time></trkpt>
<trkpt lat="7534.2055" lon="740.6455"><ele></ele><time>2014-6-17T17:21:10Z</time></trkpt>
<trkpt lat="7534.209" lon="740.644166666667"><ele></ele><time>2014-6-17T17:21:13Z</time></trkpt>
<trkpt lat="7534.2115" lon="740.642"><ele></ele><time>2014-6-17T17:21:16Z</time></trkpt>
<trkpt lat="7534.215" lon="740.641333333333"><ele></ele><time>2014-6-17T17:21:19Z</time></trkpt>
<trkpt lat="7534.21833333333" lon="740.642166666667"><ele></ele><time>2014-6-17T17:21:22Z</time></trkpt>
<trkpt lat="7534.22133333333" lon="740.641833333333"><ele></ele><time>2014-6-17T17:21:25Z</time></trkpt>
<trkpt lat="7534.22416666667" lon="740.640666666667"><ele></ele><time>2014-6-17T17:21:28Z</time></trkpt>
<trkpt lat="7534.22766666667" lon="740.639666666667"><ele></ele><time>2014-6-17T17:21:31Z</time></trkpt>
<trkpt lat="7534.23066666667" lon="740.6395"><ele></ele><time>2014-6-17T17:21:34Z</time></trkpt>
<trkpt lat="7534.23416666667" lon="740.639166666667"><ele></ele><time>2014-6-17T17:21:37Z</time></trkpt>
<trkpt lat="7534.23716666667" lon="740.638666666667"><ele></ele><time>2014-6-17T17:21:40Z</time></trkpt>
<trkpt lat="7534.24033333333" lon="740.638"><ele></ele><time>2014-6-17T17:21:43Z</time></trkpt>
<trkpt lat="7534.24383333333" lon="740.638"><ele></ele><time>2014-6-17T17:21:46Z</time></trkpt>
<trkpt lat="7534.247" lon="740.6375"><ele></ele><time>2014-6-17T17:21:49Z</time></trkpt>
<trkpt lat="7534.24983333333" lon="740.637"><ele></ele><time>2014-6-17T17:21:52Z</time></trkpt>
<trkpt lat="7534.25316666667" lon="740.6365"><ele></ele><time>2014-6-17T17:21:55Z</time></trkpt>
<trkpt lat="7534.25666666667" lon="740.6365"><ele></ele><time>2014-6-17T17:21:58Z</time></trkpt>
<trkpt lat="7534.26066666667" lon="740.636333333333"><ele></ele><time>2014-6-17T17:22:1Z</time></trkpt>
<trkpt lat="7534.26416666667" lon="740.6355"><ele></ele><time>2014-6-17T17:22:4Z</time></trkpt>
<trkpt lat="7534.26766666667" lon="740.634333333333"><ele></ele><time>2014-6-17T17:22:7Z</time></trkpt>
<trkpt lat="7534.271" lon="740.632666666667"><ele></ele><time>2014-6-17T17:22:10Z</time></trkpt>
<trkpt lat="7534.27483333333" lon="740.631166666667"><ele></ele><time>2014-6-17T17:22:13Z</time></trkpt>
<trkpt lat="7534.27866666667" lon="740.629833333333"><ele></ele><time>2014-6-17T17:22:16Z</time></trkpt>
<trkpt lat="7534.28266666667" lon="740.628333333333"><ele></ele><time>2014-6-17T17:22:19Z</time></trkpt>
<trkpt lat="7534.28683333333" lon="740.626666666667"><ele></ele><time>2014-6-17T17:22:22Z</time></trkpt>
<trkpt lat="7534.29116666667" lon="740.625"><ele></ele><time>2014-6-17T17:22:25Z</time></trkpt>
<trkpt lat="7534.29516666667" lon="740.623666666667"><ele></ele><time>2014-6-17T17:22:28Z</time></trkpt>
<trkpt lat="7534.299" lon="740.623333333333"><ele></ele><time>2014-6-17T17:22:31Z</time></trkpt>
<trkpt lat="7534.30366666667" lon="740.622333333333"><ele></ele><time>2014-6-17T17:22:34Z</time></trkpt>
<trkpt lat="7534.30883333333" lon="740.621833333333"><ele></ele><time>2014-6-17T17:22:37Z</time></trkpt>
<trkpt lat="7534.31416666667" lon="740.621166666667"><ele></ele><time>2014-6-17T17:22:40Z</time></trkpt>
<trkpt lat="7534.31966666667" lon="740.619666666667"><ele></ele><time>2014-6-17T17:22:43Z</time></trkpt>
<trkpt lat="7534.325" lon="740.619"><ele></ele><time>2014-6-17T17:22:46Z</time></trkpt>
<trkpt lat="7534.3295" lon="740.616666666667"><ele></ele><time>2014-6-17T17:22:49Z</time></trkpt>
<trkpt lat="7534.33416666667" lon="740.614666666667"><ele></ele><time>2014-6-17T17:22:52Z</time></trkpt>
<trkpt lat="7534.33933333333" lon="740.611833333333"><ele></ele><time>2014-6-17T17:22:55Z</time></trkpt>
<trkpt lat="7534.3445" lon="740.611166666667"><ele></ele><time>2014-6-17T17:22:58Z</time></trkpt>
<trkpt lat="7534.35" lon="740.6105"><ele></ele><time>2014-6-17T17:23:1Z</time></trkpt>
<trkpt lat="7534.35516666667" lon="740.609166666667"><ele></ele><time>2014-6-17T17:23:4Z</time></trkpt>
<trkpt lat="7534.3605" lon="740.608166666667"><ele></ele><time>2014-6-17T17:23:7Z</time></trkpt>
<trkpt lat="7534.36483333333" lon="740.606833333333"><ele></ele><time>2014-6-17T17:23:10Z</time></trkpt>
<trkpt lat="7534.36916666667" lon="740.605166666667"><ele></ele><time>2014-6-17T17:23:13Z</time></trkpt>
<trkpt lat="7534.37216666667" lon="740.602833333333"><ele></ele><time>2014-6-17T17:23:16Z</time></trkpt>
<trkpt lat="7534.37683333333" lon="740.601166666667"><ele></ele><time>2014-6-17T17:23:19Z</time></trkpt>
<trkpt lat="7534.3815" lon="740.601"><ele></ele><time>2014-6-17T17:23:22Z</time></trkpt>
<trkpt lat="7534.38666666667" lon="740.601333333333"><ele></ele><time>2014-6-17T17:23:25Z</time></trkpt>
<trkpt lat="7534.3915" lon="740.601333333333"><ele></ele><time>2014-6-17T17:23:28Z</time></trkpt>
<trkpt lat="7534.396" lon="740.600333333333"><ele></ele><time>2014-6-17T17:23:31Z</time></trkpt>
<trkpt lat="7534.4005" lon="740.597833333333"><ele></ele><time>2014-6-17T17:23:34Z</time></trkpt>
<trkpt lat="7534.40616666667" lon="740.596166666667"><ele></ele><time>2014-6-17T17:23:37Z</time></trkpt>
<trkpt lat="7534.40983333333" lon="740.591333333333"><ele></ele><time>2014-6-17T17:23:40Z</time></trkpt>
<trkpt lat="7534.41216666667" lon="740.585166666667"><ele></ele><time>2014-6-17T17:23:43Z</time></trkpt>
<trkpt lat="7534.41366666667" lon="740.578666666667"><ele></ele><time>2014-6-17T17:23:46Z</time></trkpt>
<trkpt lat="7534.415" lon="740.571"><ele></ele><time>2014-6-17T17:23:49Z</time></trkpt>
<trkpt lat="7534.41716666667" lon="740.563833333333"><ele></ele><time>2014-6-17T17:23:52Z</time></trkpt>
<trkpt lat="7534.42066666667" lon="740.559833333333"><ele></ele><time>2014-6-17T17:23:55Z</time></trkpt>
<trkpt lat="7534.42466666667" lon="740.557333333333"><ele></ele><time>2014-6-17T17:23:58Z</time></trkpt>
<trkpt lat="7534.42866666667" lon="740.556"><ele></ele><time>2014-6-17T17:24:1Z</time></trkpt>
<trkpt lat="7534.43266666667" lon="740.555333333333"><ele></ele><time>2014-6-17T17:24:4Z</time></trkpt>
<trkpt lat="7534.43716666667" lon="740.554166666667"><ele></ele><time>2014-6-17T17:24:7Z</time></trkpt>
<trkpt lat="7534.44166666667" lon="740.553666666667"><ele></ele><time>2014-6-17T17:24:10Z</time></trkpt>
<trkpt lat="7534.446" lon="740.552"><ele></ele><time>2014-6-17T17:24:13Z</time></trkpt>
<trkpt lat="7534.45033333333" lon="740.549833333333"><ele></ele><time>2014-6-17T17:24:16Z</time></trkpt>
<trkpt lat="7534.454" lon="740.548"><ele></ele><time>2014-6-17T17:24:19Z</time></trkpt>
<trkpt lat="7534.45766666667" lon="740.547333333333"><ele></ele><time>2014-6-17T17:24:22Z</time></trkpt>
<trkpt lat="7534.462" lon="740.547333333333"><ele></ele><time>2014-6-17T17:24:25Z</time></trkpt>
<trkpt lat="7534.4665" lon="740.547166666667"><ele></ele><time>2014-6-17T17:24:28Z</time></trkpt>
<trkpt lat="7534.47016666667" lon="740.547"><ele></ele><time>2014-6-17T17:24:31Z</time></trkpt>
<trkpt lat="7534.47416666667" lon="740.546"><ele></ele><time>2014-6-17T17:24:34Z</time></trkpt>
<trkpt lat="7534.47766666667" lon="740.545666666667"><ele></ele><time>2014-6-17T17:24:37Z</time></trkpt>
<trkpt lat="7534.48016666667" lon="740.5455"><ele></ele><time>2014-6-17T17:24:40Z</time></trkpt>
<trkpt lat="7534.48266666667" lon="740.546166666667"><ele></ele><time>2014-6-17T17:24:43Z</time></trkpt>
<trkpt lat="7534.48533333333" lon="740.5465"><ele></ele><time>2014-6-17T17:24:46Z</time></trkpt>
<trkpt lat="7534.48733333333" lon="740.545"><ele></ele><time>2014-6-17T17:24:49Z</time></trkpt>
<trkpt lat="7534.48916666667" lon="740.544666666667"><ele></ele><time>2014-6-17T17:24:52Z</time></trkpt>
<trkpt lat="7534.49133333333" lon="740.544166666667"><ele></ele><time>2014-6-17T17:24:55Z</time></trkpt>
<trkpt lat="7534.49416666667" lon="740.543333333333"><ele></ele><time>2014-6-17T17:24:58Z</time></trkpt>
<trkpt lat="7534.4975" lon="740.543"><ele></ele><time>2014-6-17T17:25:1Z</time></trkpt>
<trkpt lat="7534.5" lon="740.540833333333"><ele></ele><time>2014-6-17T17:25:4Z</time></trkpt>
<trkpt lat="7534.5025" lon="740.540166666667"><ele></ele><time>2014-6-17T17:25:7Z</time></trkpt>
<trkpt lat="7534.50566666667" lon="740.539166666667"><ele></ele><time>2014-6-17T17:25:10Z</time></trkpt>
<trkpt lat="7534.50866666667" lon="740.537833333333"><ele></ele><time>2014-6-17T17:25:13Z</time></trkpt>
<trkpt lat="7534.51183333333" lon="740.536333333333"><ele></ele><time>2014-6-17T17:25:16Z</time></trkpt>
<trkpt lat="7534.5145" lon="740.5355"><ele></ele><time>2014-6-17T17:25:19Z</time></trkpt>
<trkpt lat="7534.51766666667" lon="740.534333333333"><ele></ele><time>2014-6-17T17:25:22Z</time></trkpt>
<trkpt lat="7534.52083333333" lon="740.532166666667"><ele></ele><time>2014-6-17T17:25:25Z</time></trkpt>
<trkpt lat="7534.5245" lon="740.530833333333"><ele></ele><time>2014-6-17T17:25:28Z</time></trkpt>
<trkpt lat="7534.52883333333" lon="740.5305"><ele></ele><time>2014-6-17T17:25:31Z</time></trkpt>
<trkpt lat="7534.532" lon="740.529166666667"><ele></ele><time>2014-6-17T17:25:34Z</time></trkpt>
<trkpt lat="7534.5355" lon="740.5275"><ele></ele><time>2014-6-17T17:25:37Z</time></trkpt>
<trkpt lat="7534.5395" lon="740.526166666667"><ele></ele><time>2014-6-17T17:25:40Z</time></trkpt>
<trkpt lat="7534.54366666667" lon="740.524"><ele></ele><time>2014-6-17T17:25:43Z</time></trkpt>
<trkpt lat="7534.54833333333" lon="740.522333333333"><ele></ele><time>2014-6-17T17:25:46Z</time></trkpt>
<trkpt lat="7534.552" lon="740.521333333333"><ele></ele><time>2014-6-17T17:25:49Z</time></trkpt>
<trkpt lat="7534.5565" lon="740.520833333333"><ele></ele><time>2014-6-17T17:25:52Z</time></trkpt>
<trkpt lat="7534.56116666667" lon="740.521333333333"><ele></ele><time>2014-6-17T17:25:55Z</time></trkpt>
<trkpt lat="7534.56583333333" lon="740.521333333333"><ele></ele><time>2014-6-17T17:25:58Z</time></trkpt>
<trkpt lat="7534.5705" lon="740.521666666667"><ele></ele><time>2014-6-17T17:26:1Z</time></trkpt>
<trkpt lat="7534.57466666667" lon="740.522"><ele></ele><time>2014-6-17T17:26:4Z</time></trkpt>
<trkpt lat="7534.57916666667" lon="740.521833333333"><ele></ele><time>2014-6-17T17:26:7Z</time></trkpt>
<trkpt lat="7534.58383333333" lon="740.5215"><ele></ele><time>2014-6-17T17:26:10Z</time></trkpt>
<trkpt lat="7534.58733333333" lon="740.5215"><ele></ele><time>2014-6-17T17:26:13Z</time></trkpt>
<trkpt lat="7534.59166666667" lon="740.521166666667"><ele></ele><time>2014-6-17T17:26:16Z</time></trkpt>
<trkpt lat="7534.59566666667" lon="740.521"><ele></ele><time>2014-6-17T17:26:19Z</time></trkpt>
<trkpt lat="7534.6" lon="740.521333333333"><ele></ele><time>2014-6-17T17:26:22Z</time></trkpt>
<trkpt lat="7534.60483333333" lon="740.5225"><ele></ele><time>2014-6-17T17:26:25Z</time></trkpt>
<trkpt lat="7534.60966666667" lon="740.523166666667"><ele></ele><time>2014-6-17T17:26:28Z</time></trkpt>
<trkpt lat="7534.61416666667" lon="740.524833333333"><ele></ele><time>2014-6-17T17:26:31Z</time></trkpt>
<trkpt lat="7534.6185" lon="740.525666666667"><ele></ele><time>2014-6-17T17:26:34Z</time></trkpt>
<trkpt lat="7534.6235" lon="740.526333333333"><ele></ele><time>2014-6-17T17:26:37Z</time></trkpt>
<trkpt lat="7534.62816666667" lon="740.526666666667"><ele></ele><time>2014-6-17T17:26:40Z</time></trkpt>
<trkpt lat="7534.63283333333" lon="740.528166666667"><ele></ele><time>2014-6-17T17:26:43Z</time></trkpt>
<trkpt lat="7534.63783333333" lon="740.529666666667"><ele></ele><time>2014-6-17T17:26:46Z</time></trkpt>
<trkpt lat="7534.64183333333" lon="740.5315"><ele></ele><time>2014-6-17T17:26:49Z</time></trkpt>
<trkpt lat="7534.64583333333" lon="740.5325"><ele></ele><time>2014-6-17T17:26:52Z</time></trkpt>
<trkpt lat="7534.65033333333" lon="740.533666666667"><ele></ele><time>2014-6-17T17:26:55Z</time></trkpt>
<trkpt lat="7534.655" lon="740.534333333333"><ele></ele><time>2014-6-17T17:26:58Z</time></trkpt>
<trkpt lat="7534.65983333333" lon="740.5355"><ele></ele><time>2014-6-17T17:27:1Z</time></trkpt>
<trkpt lat="7534.66433333333" lon="740.5365"><ele></ele><time>2014-6-17T17:27:4Z</time></trkpt>
<trkpt lat="7534.66866666667" lon="740.538"><ele></ele><time>2014-6-17T17:27:7Z</time></trkpt>
<trkpt lat="7534.673" lon="740.539333333333"><ele></ele><time>2014-6-17T17:27:10Z</time></trkpt>
<trkpt lat="7534.6775" lon="740.5405"><ele></ele><time>2014-6-17T17:27:13Z</time></trkpt>
<trkpt lat="7534.68133333333" lon="740.542"><ele></ele><time>2014-6-17T17:27:16Z</time></trkpt>
<trkpt lat="7534.68533333333" lon="740.542833333333"><ele></ele><time>2014-6-17T17:27:19Z</time></trkpt>
<trkpt lat="7534.68966666667" lon="740.543"><ele></ele><time>2014-6-17T17:27:22Z</time></trkpt>
<trkpt lat="7534.694" lon="740.543333333333"><ele></ele><time>2014-6-17T17:27:25Z</time></trkpt>
<trkpt lat="7534.69833333333" lon="740.544"><ele></ele><time>2014-6-17T17:27:28Z</time></trkpt>
<trkpt lat="7534.70233333333" lon="740.545166666667"><ele></ele><time>2014-6-17T17:27:31Z</time></trkpt>
<trkpt lat="7534.7065" lon="740.545666666667"><ele></ele><time>2014-6-17T17:27:34Z</time></trkpt>
<trkpt lat="7534.70933333333" lon="740.546833333333"><ele></ele><time>2014-6-17T17:27:37Z</time></trkpt>
<trkpt lat="7534.71283333333" lon="740.547333333333"><ele></ele><time>2014-6-17T17:27:40Z</time></trkpt>
<trkpt lat="7534.71616666667" lon="740.546166666667"><ele></ele><time>2014-6-17T17:27:43Z</time></trkpt>
<trkpt lat="7534.71933333333" lon="740.545"><ele></ele><time>2014-6-17T17:27:46Z</time></trkpt>
<trkpt lat="7534.72283333333" lon="740.543666666667"><ele></ele><time>2014-6-17T17:27:49Z</time></trkpt>
<trkpt lat="7534.727" lon="740.5425"><ele></ele><time>2014-6-17T17:27:52Z</time></trkpt>
<trkpt lat="7534.731" lon="740.541166666667"><ele></ele><time>2014-6-17T17:27:55Z</time></trkpt>
<trkpt lat="7534.735" lon="740.54"><ele></ele><time>2014-6-17T17:27:58Z</time></trkpt>
<trkpt lat="7534.7395" lon="740.538166666667"><ele></ele><time>2014-6-17T17:28:1Z</time></trkpt>
<trkpt lat="7534.74433333333" lon="740.536166666667"><ele></ele><time>2014-6-17T17:28:4Z</time></trkpt>
<trkpt lat="7534.74916666667" lon="740.534166666667"><ele></ele><time>2014-6-17T17:28:7Z</time></trkpt>
<trkpt lat="7534.75383333333" lon="740.531666666667"><ele></ele><time>2014-6-17T17:28:10Z</time></trkpt>
<trkpt lat="7534.7595" lon="740.5295"><ele></ele><time>2014-6-17T17:28:13Z</time></trkpt>
<trkpt lat="7534.765" lon="740.527166666667"><ele></ele><time>2014-6-17T17:28:16Z</time></trkpt>
<trkpt lat="7534.77033333333" lon="740.524166666667"><ele></ele><time>2014-6-17T17:28:19Z</time></trkpt>
<trkpt lat="7534.77633333333" lon="740.521833333333"><ele></ele><time>2014-6-17T17:28:22Z</time></trkpt>
<trkpt lat="7534.783" lon="740.5205"><ele></ele><time>2014-6-17T17:28:25Z</time></trkpt>
<trkpt lat="7534.79283333333" lon="740.522166666667"><ele></ele><time>2014-6-17T17:28:28Z</time></trkpt>
<trkpt lat="7534.80266666667" lon="740.523"><ele></ele><time>2014-6-17T17:28:31Z</time></trkpt>
<trkpt lat="7534.81183333333" lon="740.523833333333"><ele></ele><time>2014-6-17T17:28:34Z</time></trkpt>
<trkpt lat="7534.82083333333" lon="740.524"><ele></ele><time>2014-6-17T17:28:37Z</time></trkpt>
<trkpt lat="7534.8295" lon="740.524"><ele></ele><time>2014-6-17T17:28:40Z</time></trkpt>
<trkpt lat="7534.83883333333" lon="740.525"><ele></ele><time>2014-6-17T17:28:43Z</time></trkpt>
<trkpt lat="7534.84766666667" lon="740.526666666667"><ele></ele><time>2014-6-17T17:28:46Z</time></trkpt>
<trkpt lat="7534.85616666667" lon="740.529166666667"><ele></ele><time>2014-6-17T17:28:49Z</time></trkpt>
<trkpt lat="7534.8645" lon="740.5335"><ele></ele><time>2014-6-17T17:28:52Z</time></trkpt>
<trkpt lat="7534.87133333333" lon="740.538333333333"><ele></ele><time>2014-6-17T17:28:55Z</time></trkpt>
<trkpt lat="7534.87883333333" lon="740.545"><ele></ele><time>2014-6-17T17:28:58Z</time></trkpt>
<trkpt lat="7534.8855" lon="740.551333333333"><ele></ele><time>2014-6-17T17:29:1Z</time></trkpt>
<trkpt lat="7534.89216666667" lon="740.557166666667"><ele></ele><time>2014-6-17T17:29:4Z</time></trkpt>
<trkpt lat="7534.89983333333" lon="740.562166666667"><ele></ele><time>2014-6-17T17:29:7Z</time></trkpt>
<trkpt lat="7534.9065" lon="740.567"><ele></ele><time>2014-6-17T17:29:10Z</time></trkpt>
<trkpt lat="7534.91316666667" lon="740.571666666667"><ele></ele><time>2014-6-17T17:29:13Z</time></trkpt>
<trkpt lat="7534.91983333333" lon="740.577"><ele></ele><time>2014-6-17T17:29:16Z</time></trkpt>
<trkpt lat="7534.92716666667" lon="740.582833333333"><ele></ele><time>2014-6-17T17:29:19Z</time></trkpt>
<trkpt lat="7534.93433333333" lon="740.588333333333"><ele></ele><time>2014-6-17T17:29:22Z</time></trkpt>
<trkpt lat="7534.94233333333" lon="740.594833333333"><ele></ele><time>2014-6-17T17:29:25Z</time></trkpt>
<trkpt lat="7534.952" lon="740.602666666667"><ele></ele><time>2014-6-17T17:29:28Z</time></trkpt>
<trkpt lat="7534.95933333333" lon="740.6075"><ele></ele><time>2014-6-17T17:29:31Z</time></trkpt>
<trkpt lat="7534.96716666667" lon="740.612666666667"><ele></ele><time>2014-6-17T17:29:34Z</time></trkpt>
<trkpt lat="7534.97433333333" lon="740.6175"><ele></ele><time>2014-6-17T17:29:37Z</time></trkpt>
<trkpt lat="7534.98066666667" lon="740.623"><ele></ele><time>2014-6-17T17:29:40Z</time></trkpt>
<trkpt lat="7534.99033333333" lon="740.6335"><ele></ele><time>2014-6-17T17:29:43Z</time></trkpt>
<trkpt lat="7534.99583333333" lon="740.6405"><ele></ele><time>2014-6-17T17:29:46Z</time></trkpt>
<trkpt lat="7535.0005" lon="740.647666666667"><ele></ele><time>2014-6-17T17:29:49Z</time></trkpt>
<trkpt lat="7535.00516666667" lon="740.652666666667"><ele></ele><time>2014-6-17T17:29:52Z</time></trkpt>
<trkpt lat="7535.01033333333" lon="740.657"><ele></ele><time>2014-6-17T17:29:55Z</time></trkpt>
<trkpt lat="7535.01533333333" lon="740.6615"><ele></ele><time>2014-6-17T17:29:58Z</time></trkpt>
<trkpt lat="7535.02083333333" lon="740.665666666667"><ele></ele><time>2014-6-17T17:30:1Z</time></trkpt>
<trkpt lat="7535.026" lon="740.6695"><ele></ele><time>2014-6-17T17:30:4Z</time></trkpt>
<trkpt lat="7535.0315" lon="740.672833333333"><ele></ele><time>2014-6-17T17:30:7Z</time></trkpt>
<trkpt lat="7535.03633333333" lon="740.6765"><ele></ele><time>2014-6-17T17:30:10Z</time></trkpt>
<trkpt lat="7535.0405" lon="740.679333333333"><ele></ele><time>2014-6-17T17:30:13Z</time></trkpt>
<trkpt lat="7535.04483333333" lon="740.681166666667"><ele></ele><time>2014-6-17T17:30:16Z</time></trkpt>
<trkpt lat="7535.049" lon="740.683166666667"><ele></ele><time>2014-6-17T17:30:19Z</time></trkpt>
<trkpt lat="7535.05116666667" lon="740.685"><ele></ele><time>2014-6-17T17:30:22Z</time></trkpt>
<trkpt lat="7535.05266666667" lon="740.685333333333"><ele></ele><time>2014-6-17T17:30:25Z</time></trkpt>
<trkpt lat="7535.05483333333" lon="740.686166666667"><ele></ele><time>2014-6-17T17:30:28Z</time></trkpt>
<trkpt lat="7535.05483333333" lon="740.686166666667"><ele></ele><time>2014-6-17T17:30:31Z</time></trkpt>
<trkpt lat="7535.05483333333" lon="740.686166666667"><ele></ele><time>2014-6-17T17:30:34Z</time></trkpt>
<trkpt lat="7535.05483333333" lon="740.686166666667"><ele></ele><time>2014-6-17T17:30:37Z</time></trkpt>
<trkpt lat="7535.05433333333" lon="740.683833333333"><ele></ele><time>2014-6-17T17:30:40Z</time></trkpt>
<trkpt lat="7535.05633333333" lon="740.682333333333"><ele></ele><time>2014-6-17T17:30:43Z</time></trkpt>
<trkpt lat="7535.05883333333" lon="740.6785"><ele></ele><time>2014-6-17T17:30:46Z</time></trkpt>
<trkpt lat="7535.0595" lon="740.671666666667"><ele></ele><time>2014-6-17T17:30:49Z</time></trkpt>
<trkpt lat="7535.061" lon="740.6645"><ele></ele><time>2014-6-17T17:30:52Z</time></trkpt>
<trkpt lat="7535.06183333333" lon="740.656666666667"><ele></ele><time>2014-6-17T17:30:55Z</time></trkpt>
<trkpt lat="7535.06283333333" lon="740.648833333333"><ele></ele><time>2014-6-17T17:30:58Z</time></trkpt>
<trkpt lat="7535.0635" lon="740.640833333333"><ele></ele><time>2014-6-17T17:31:1Z</time></trkpt>
<trkpt lat="7535.064" lon="740.632833333333"><ele></ele><time>2014-6-17T17:31:4Z</time></trkpt>
<trkpt lat="7535.06433333333" lon="740.6245"><ele></ele><time>2014-6-17T17:31:7Z</time></trkpt>
<trkpt lat="7535.0645" lon="740.616833333333"><ele></ele><time>2014-6-17T17:31:10Z</time></trkpt>
<trkpt lat="7535.0655" lon="740.6085"><ele></ele><time>2014-6-17T17:31:13Z</time></trkpt>
<trkpt lat="7535.06683333333" lon="740.5995"><ele></ele><time>2014-6-17T17:31:16Z</time></trkpt>
<trkpt lat="7535.07" lon="740.591666666667"><ele></ele><time>2014-6-17T17:31:19Z</time></trkpt>
<trkpt lat="7535.07166666667" lon="740.583833333333"><ele></ele><time>2014-6-17T17:31:22Z</time></trkpt>
<trkpt lat="7535.073" lon="740.575166666667"><ele></ele><time>2014-6-17T17:31:25Z</time></trkpt>
<trkpt lat="7535.075" lon="740.565833333333"><ele></ele><time>2014-6-17T17:31:28Z</time></trkpt>
<trkpt lat="7535.07633333333" lon="740.556833333333"><ele></ele><time>2014-6-17T17:31:31Z</time></trkpt>
<trkpt lat="7535.07783333333" lon="740.549"><ele></ele><time>2014-6-17T17:31:34Z</time></trkpt>
<trkpt lat="7535.0795" lon="740.5405"><ele></ele><time>2014-6-17T17:31:37Z</time></trkpt>
<trkpt lat="7535.08116666667" lon="740.531666666667"><ele></ele><time>2014-6-17T17:31:40Z</time></trkpt>
<trkpt lat="7535.08333333333" lon="740.523833333333"><ele></ele><time>2014-6-17T17:31:43Z</time></trkpt>
<trkpt lat="7535.08616666667" lon="740.515666666667"><ele></ele><time>2014-6-17T17:31:46Z</time></trkpt>
<trkpt lat="7535.09066666667" lon="740.509333333333"><ele></ele><time>2014-6-17T17:31:49Z</time></trkpt>
<trkpt lat="7535.09433333333" lon="740.503166666667"><ele></ele><time>2014-6-17T17:31:52Z</time></trkpt>
<trkpt lat="7535.09783333333" lon="740.496666666667"><ele></ele><time>2014-6-17T17:31:55Z</time></trkpt>
<trkpt lat="7535.10116666667" lon="740.489666666667"><ele></ele><time>2014-6-17T17:31:58Z</time></trkpt>
<trkpt lat="7535.104" lon="740.482333333333"><ele></ele><time>2014-6-17T17:32:1Z</time></trkpt>
<trkpt lat="7535.10633333333" lon="740.4745"><ele></ele><time>2014-6-17T17:32:4Z</time></trkpt>
<trkpt lat="7535.108" lon="740.466"><ele></ele><time>2014-6-17T17:32:7Z</time></trkpt>
<trkpt lat="7535.10866666667" lon="740.458333333333"><ele></ele><time>2014-6-17T17:32:10Z</time></trkpt>
<trkpt lat="7535.10866666667" lon="740.450333333333"><ele></ele><time>2014-6-17T17:32:13Z</time></trkpt>
<trkpt lat="7535.10733333333" lon="740.442833333333"><ele></ele><time>2014-6-17T17:32:16Z</time></trkpt>
<trkpt lat="7535.106" lon="740.435166666667"><ele></ele><time>2014-6-17T17:32:19Z</time></trkpt>
<trkpt lat="7535.1045" lon="740.427666666667"><ele></ele><time>2014-6-17T17:32:22Z</time></trkpt>
<trkpt lat="7535.103" lon="740.420166666667"><ele></ele><time>2014-6-17T17:32:25Z</time></trkpt>
<trkpt lat="7535.10116666667" lon="740.413"><ele></ele><time>2014-6-17T17:32:28Z</time></trkpt>
<trkpt lat="7535.0995" lon="740.406333333333"><ele></ele><time>2014-6-17T17:32:31Z</time></trkpt>
<trkpt lat="7535.0985" lon="740.399666666667"><ele></ele><time>2014-6-17T17:32:34Z</time></trkpt>
<trkpt lat="7535.09766666667" lon="740.393166666667"><ele></ele><time>2014-6-17T17:32:37Z</time></trkpt>
<trkpt lat="7535.097" lon="740.3875"><ele></ele><time>2014-6-17T17:32:40Z</time></trkpt>
<trkpt lat="7535.09633333333" lon="740.382333333333"><ele></ele><time>2014-6-17T17:32:43Z</time></trkpt>
<trkpt lat="7535.09633333333" lon="740.376833333333"><ele></ele><time>2014-6-17T17:32:46Z</time></trkpt>
<trkpt lat="7535.09616666667" lon="740.371166666667"><ele></ele><time>2014-6-17T17:32:49Z</time></trkpt>
<trkpt lat="7535.09633333333" lon="740.365666666667"><ele></ele><time>2014-6-17T17:32:52Z</time></trkpt>
<trkpt lat="7535.09666666667" lon="740.361166666667"><ele></ele><time>2014-6-17T17:32:55Z</time></trkpt>
<trkpt lat="7535.09766666667" lon="740.356166666667"><ele></ele><time>2014-6-17T17:32:58Z</time></trkpt>
<trkpt lat="7535.099" lon="740.3505"><ele></ele><time>2014-6-17T17:33:1Z</time></trkpt>
<trkpt lat="7535.09983333333" lon="740.345333333333"><ele></ele><time>2014-6-17T17:33:4Z</time></trkpt>
<trkpt lat="7535.1005" lon="740.340166666667"><ele></ele><time>2014-6-17T17:33:7Z</time></trkpt>
<trkpt lat="7535.10116666667" lon="740.335333333333"><ele></ele><time>2014-6-17T17:33:10Z</time></trkpt>
<trkpt lat="7535.10133333333" lon="740.3315"><ele></ele><time>2014-6-17T17:33:13Z</time></trkpt>
<trkpt lat="7535.10216666667" lon="740.327"><ele></ele><time>2014-6-17T17:33:16Z</time></trkpt>
<trkpt lat="7535.10366666667" lon="740.323833333333"><ele></ele><time>2014-6-17T17:33:19Z</time></trkpt>
<trkpt lat="7535.10516666667" lon="740.32"><ele></ele><time>2014-6-17T17:33:22Z</time></trkpt>
<trkpt lat="7535.10633333333" lon="740.316166666667"><ele></ele><time>2014-6-17T17:33:25Z</time></trkpt>
<trkpt lat="7535.1075" lon="740.312833333333"><ele></ele><time>2014-6-17T17:33:28Z</time></trkpt>
<trkpt lat="7535.109" lon="740.308333333333"><ele></ele><time>2014-6-17T17:33:31Z</time></trkpt>
<trkpt lat="7535.11033333333" lon="740.304666666667"><ele></ele><time>2014-6-17T17:33:34Z</time></trkpt>
<trkpt lat="7535.112" lon="740.3015"><ele></ele><time>2014-6-17T17:33:37Z</time></trkpt>
<trkpt lat="7535.11366666667" lon="740.297666666667"><ele></ele><time>2014-6-17T17:33:40Z</time></trkpt>
<trkpt lat="7535.11566666667" lon="740.294166666667"><ele></ele><time>2014-6-17T17:33:43Z</time></trkpt>
<trkpt lat="7535.1175" lon="740.290833333333"><ele></ele><time>2014-6-17T17:33:46Z</time></trkpt>
<trkpt lat="7535.11966666667" lon="740.286833333333"><ele></ele><time>2014-6-17T17:33:49Z</time></trkpt>
<trkpt lat="7535.12183333333" lon="740.282666666667"><ele></ele><time>2014-6-17T17:33:52Z</time></trkpt>
<trkpt lat="7535.1235" lon="740.278833333333"><ele></ele><time>2014-6-17T17:33:55Z</time></trkpt>
<trkpt lat="7535.12566666667" lon="740.273833333333"><ele></ele><time>2014-6-17T17:33:58Z</time></trkpt>
<trkpt lat="7535.1275" lon="740.269833333333"><ele></ele><time>2014-6-17T17:34:1Z</time></trkpt>
<trkpt lat="7535.12916666667" lon="740.265666666667"><ele></ele><time>2014-6-17T17:34:4Z</time></trkpt>
<trkpt lat="7535.1305" lon="740.261833333333"><ele></ele><time>2014-6-17T17:34:7Z</time></trkpt>
<trkpt lat="7535.131" lon="740.256666666667"><ele></ele><time>2014-6-17T17:34:10Z</time></trkpt>
<trkpt lat="7535.13233333333" lon="740.252"><ele></ele><time>2014-6-17T17:34:13Z</time></trkpt>
<trkpt lat="7535.13433333333" lon="740.2475"><ele></ele><time>2014-6-17T17:34:16Z</time></trkpt>
<trkpt lat="7535.13533333333" lon="740.243333333333"><ele></ele><time>2014-6-17T17:34:19Z</time></trkpt>
<trkpt lat="7535.13633333333" lon="740.238833333333"><ele></ele><time>2014-6-17T17:34:22Z</time></trkpt>
<trkpt lat="7535.1375" lon="740.234666666667"><ele></ele><time>2014-6-17T17:34:25Z</time></trkpt>
<trkpt lat="7535.13866666667" lon="740.229833333333"><ele></ele><time>2014-6-17T17:34:28Z</time></trkpt>
<trkpt lat="7535.13983333333" lon="740.226333333333"><ele></ele><time>2014-6-17T17:34:31Z</time></trkpt>
<trkpt lat="7535.14066666667" lon="740.2235"><ele></ele><time>2014-6-17T17:34:34Z</time></trkpt>
<trkpt lat="7535.14183333333" lon="740.219666666667"><ele></ele><time>2014-6-17T17:34:37Z</time></trkpt>
<trkpt lat="7535.14316666667" lon="740.2165"><ele></ele><time>2014-6-17T17:34:40Z</time></trkpt>
<trkpt lat="7535.14383333333" lon="740.212166666667"><ele></ele><time>2014-6-17T17:34:43Z</time></trkpt>
<trkpt lat="7535.14416666667" lon="740.207666666667"><ele></ele><time>2014-6-17T17:34:46Z</time></trkpt>
<trkpt lat="7535.145" lon="740.203833333333"><ele></ele><time>2014-6-17T17:34:49Z</time></trkpt>
<trkpt lat="7535.14533333333" lon="740.2005"><ele></ele><time>2014-6-17T17:34:52Z</time></trkpt>
<trkpt lat="7535.14583333333" lon="740.196333333333"><ele></ele><time>2014-6-17T17:34:55Z</time></trkpt>
<trkpt lat="7535.14583333333" lon="740.192666666667"><ele></ele><time>2014-6-17T17:34:58Z</time></trkpt>
<trkpt lat="7535.14633333333" lon="740.188166666667"><ele></ele><time>2014-6-17T17:35:1Z</time></trkpt>
<trkpt lat="7535.1475" lon="740.183"><ele></ele><time>2014-6-17T17:35:4Z</time></trkpt>
<trkpt lat="7535.14883333333" lon="740.179166666667"><ele></ele><time>2014-6-17T17:35:7Z</time></trkpt>
<trkpt lat="7535.14983333333" lon="740.174666666667"><ele></ele><time>2014-6-17T17:35:10Z</time></trkpt>
<trkpt lat="7535.151" lon="740.1705"><ele></ele><time>2014-6-17T17:35:13Z</time></trkpt>
<trkpt lat="7535.15233333333" lon="740.166"><ele></ele><time>2014-6-17T17:35:16Z</time></trkpt>
<trkpt lat="7535.15366666667" lon="740.161"><ele></ele><time>2014-6-17T17:35:19Z</time></trkpt>
<trkpt lat="7535.15533333333" lon="740.155666666667"><ele></ele><time>2014-6-17T17:35:22Z</time></trkpt>
<trkpt lat="7535.15666666667" lon="740.15"><ele></ele><time>2014-6-17T17:35:25Z</time></trkpt>
<trkpt lat="7535.15833333333" lon="740.144"><ele></ele><time>2014-6-17T17:35:28Z</time></trkpt>
<trkpt lat="7535.15966666667" lon="740.138666666667"><ele></ele><time>2014-6-17T17:35:31Z</time></trkpt>
<trkpt lat="7535.16083333333" lon="740.132833333333"><ele></ele><time>2014-6-17T17:35:34Z</time></trkpt>
<trkpt lat="7535.1625" lon="740.1275"><ele></ele><time>2014-6-17T17:35:37Z</time></trkpt>
<trkpt lat="7535.1635" lon="740.121833333333"><ele></ele><time>2014-6-17T17:35:40Z</time></trkpt>
<trkpt lat="7535.16466666667" lon="740.115833333333"><ele></ele><time>2014-6-17T17:35:43Z</time></trkpt>
<trkpt lat="7535.16583333333" lon="740.1095"><ele></ele><time>2014-6-17T17:35:46Z</time></trkpt>
<trkpt lat="7535.16666666667" lon="740.103166666667"><ele></ele><time>2014-6-17T17:35:49Z</time></trkpt>
<trkpt lat="7535.16733333333" lon="740.097333333333"><ele></ele><time>2014-6-17T17:35:52Z</time></trkpt>
<trkpt lat="7535.16816666667" lon="740.0915"><ele></ele><time>2014-6-17T17:35:55Z</time></trkpt>
<trkpt lat="7535.16933333333" lon="740.085"><ele></ele><time>2014-6-17T17:35:58Z</time></trkpt>
<trkpt lat="7535.17066666667" lon="740.078333333333"><ele></ele><time>2014-6-17T17:36:1Z</time></trkpt>
<trkpt lat="7535.17166666667" lon="740.072333333333"><ele></ele><time>2014-6-17T17:36:4Z</time></trkpt>
<trkpt lat="7535.173" lon="740.066166666667"><ele></ele><time>2014-6-17T17:36:7Z</time></trkpt>
<trkpt lat="7535.17416666667" lon="740.060333333333"><ele></ele><time>2014-6-17T17:36:10Z</time></trkpt>
<trkpt lat="7535.17533333333" lon="740.054333333333"><ele></ele><time>2014-6-17T17:36:13Z</time></trkpt>
<trkpt lat="7535.1765" lon="740.048"><ele></ele><time>2014-6-17T17:36:16Z</time></trkpt>
<trkpt lat="7535.17766666667" lon="740.042"><ele></ele><time>2014-6-17T17:36:19Z</time></trkpt>
<trkpt lat="7535.17883333333" lon="740.036166666667"><ele></ele><time>2014-6-17T17:36:22Z</time></trkpt>
<trkpt lat="7535.18" lon="740.030166666667"><ele></ele><time>2014-6-17T17:36:25Z</time></trkpt>
<trkpt lat="7535.181" lon="740.023666666667"><ele></ele><time>2014-6-17T17:36:28Z</time></trkpt>
<trkpt lat="7535.18166666667" lon="740.017166666667"><ele></ele><time>2014-6-17T17:36:31Z</time></trkpt>
<trkpt lat="7535.18266666667" lon="740.011"><ele></ele><time>2014-6-17T17:36:34Z</time></trkpt>
<trkpt lat="7535.1835" lon="740.004666666667"><ele></ele><time>2014-6-17T17:36:37Z</time></trkpt>
<trkpt lat="7535.18366666667" lon="739.9985"><ele></ele><time>2014-6-17T17:36:40Z</time></trkpt>
<trkpt lat="7535.184" lon="739.991666666667"><ele></ele><time>2014-6-17T17:36:43Z</time></trkpt>
<trkpt lat="7535.1845" lon="739.985666666667"><ele></ele><time>2014-6-17T17:36:46Z</time></trkpt>
<trkpt lat="7535.18483333333" lon="739.979333333333"><ele></ele><time>2014-6-17T17:36:49Z</time></trkpt>
<trkpt lat="7535.18533333333" lon="739.973"><ele></ele><time>2014-6-17T17:36:52Z</time></trkpt>
<trkpt lat="7535.18533333333" lon="739.966833333333"><ele></ele><time>2014-6-17T17:36:55Z</time></trkpt>
<trkpt lat="7535.18583333333" lon="739.960166666667"><ele></ele><time>2014-6-17T17:36:58Z</time></trkpt>
<trkpt lat="7535.1855" lon="739.954"><ele></ele><time>2014-6-17T17:37:1Z</time></trkpt>
<trkpt lat="7535.18566666667" lon="739.947666666667"><ele></ele><time>2014-6-17T17:37:4Z</time></trkpt>
<trkpt lat="7535.1855" lon="739.941"><ele></ele><time>2014-6-17T17:37:7Z</time></trkpt>
<trkpt lat="7535.18633333333" lon="739.935"><ele></ele><time>2014-6-17T17:37:10Z</time></trkpt>
<trkpt lat="7535.18716666667" lon="739.929"><ele></ele><time>2014-6-17T17:37:13Z</time></trkpt>
<trkpt lat="7535.18766666667" lon="739.922666666667"><ele></ele><time>2014-6-17T17:37:16Z</time></trkpt>
<trkpt lat="7535.18816666667" lon="739.9155"><ele></ele><time>2014-6-17T17:37:19Z</time></trkpt>
<trkpt lat="7535.18883333333" lon="739.909333333333"><ele></ele><time>2014-6-17T17:37:22Z</time></trkpt>
<trkpt lat="7535.18916666667" lon="739.9035"><ele></ele><time>2014-6-17T17:37:25Z</time></trkpt>
<trkpt lat="7535.18933333333" lon="739.898"><ele></ele><time>2014-6-17T17:37:28Z</time></trkpt>
<trkpt lat="7535.19016666667" lon="739.892333333333"><ele></ele><time>2014-6-17T17:37:31Z</time></trkpt>
<trkpt lat="7535.191" lon="739.887333333333"><ele></ele><time>2014-6-17T17:37:34Z</time></trkpt>
<trkpt lat="7535.19283333333" lon="739.882333333333"><ele></ele><time>2014-6-17T17:37:37Z</time></trkpt>
<trkpt lat="7535.1945" lon="739.877833333333"><ele></ele><time>2014-6-17T17:37:40Z</time></trkpt>
<trkpt lat="7535.19683333333" lon="739.874833333333"><ele></ele><time>2014-6-17T17:37:43Z</time></trkpt>
<trkpt lat="7535.1995" lon="739.874"><ele></ele><time>2014-6-17T17:37:46Z</time></trkpt>
<trkpt lat="7535.203" lon="739.872166666667"><ele></ele><time>2014-6-17T17:37:49Z</time></trkpt>
<trkpt lat="7535.20716666667" lon="739.872"><ele></ele><time>2014-6-17T17:37:52Z</time></trkpt>
<trkpt lat="7535.2115" lon="739.871666666667"><ele></ele><time>2014-6-17T17:37:55Z</time></trkpt>
<trkpt lat="7535.21583333333" lon="739.871333333333"><ele></ele><time>2014-6-17T17:37:58Z</time></trkpt>
<trkpt lat="7535.22016666667" lon="739.872"><ele></ele><time>2014-6-17T17:38:1Z</time></trkpt>
<trkpt lat="7535.22466666667" lon="739.8735"><ele></ele><time>2014-6-17T17:38:4Z</time></trkpt>
<trkpt lat="7535.22933333333" lon="739.875333333333"><ele></ele><time>2014-6-17T17:38:7Z</time></trkpt>
<trkpt lat="7535.2335" lon="739.876666666667"><ele></ele><time>2014-6-17T17:38:10Z</time></trkpt>
<trkpt lat="7535.23716666667" lon="739.878166666667"><ele></ele><time>2014-6-17T17:38:13Z</time></trkpt>
<trkpt lat="7535.24166666667" lon="739.879833333333"><ele></ele><time>2014-6-17T17:38:16Z</time></trkpt>
<trkpt lat="7535.24583333333" lon="739.881"><ele></ele><time>2014-6-17T17:38:19Z</time></trkpt>
<trkpt lat="7535.25066666667" lon="739.881833333333"><ele></ele><time>2014-6-17T17:38:22Z</time></trkpt>
<trkpt lat="7535.255" lon="739.883333333333"><ele></ele><time>2014-6-17T17:38:25Z</time></trkpt>
<trkpt lat="7535.2595" lon="739.883833333333"><ele></ele><time>2014-6-17T17:38:28Z</time></trkpt>
<trkpt lat="7535.264" lon="739.884333333333"><ele></ele><time>2014-6-17T17:38:31Z</time></trkpt>
<trkpt lat="7535.26866666667" lon="739.885666666667"><ele></ele><time>2014-6-17T17:38:34Z</time></trkpt>
<trkpt lat="7535.27333333333" lon="739.887"><ele></ele><time>2014-6-17T17:38:37Z</time></trkpt>
<trkpt lat="7535.2765" lon="739.888166666667"><ele></ele><time>2014-6-17T17:38:40Z</time></trkpt>
<trkpt lat="7535.28" lon="739.8945"><ele></ele><time>2014-6-17T17:38:43Z</time></trkpt>
<trkpt lat="7535.28333333333" lon="739.897833333333"><ele></ele><time>2014-6-17T17:38:46Z</time></trkpt>
<trkpt lat="7535.2865" lon="739.899833333333"><ele></ele><time>2014-6-17T17:38:49Z</time></trkpt>
<trkpt lat="7535.29033333333" lon="739.9055"><ele></ele><time>2014-6-17T17:38:52Z</time></trkpt>
<trkpt lat="7535.295" lon="739.906833333333"><ele></ele><time>2014-6-17T17:38:55Z</time></trkpt>
<trkpt lat="7535.299" lon="739.910333333333"><ele></ele><time>2014-6-17T17:38:58Z</time></trkpt>
<trkpt lat="7535.30216666667" lon="739.9125"><ele></ele><time>2014-6-17T17:39:1Z</time></trkpt>
<trkpt lat="7535.30466666667" lon="739.914"><ele></ele><time>2014-6-17T17:39:4Z</time></trkpt>
<trkpt lat="7535.3055" lon="739.914333333333"><ele></ele><time>2014-6-17T17:39:7Z</time></trkpt>
<trkpt lat="7535.30633333333" lon="739.914833333333"><ele></ele><time>2014-6-17T17:39:10Z</time></trkpt>
<trkpt lat="7535.30733333333" lon="739.914666666667"><ele></ele><time>2014-6-17T17:39:13Z</time></trkpt>
<trkpt lat="7535.30733333333" lon="739.914666666667"><ele></ele><time>2014-6-17T17:39:16Z</time></trkpt>
<trkpt lat="7535.30733333333" lon="739.914666666667"><ele></ele><time>2014-6-17T17:39:19Z</time></trkpt>
<trkpt lat="7535.30733333333" lon="739.914666666667"><ele></ele><time>2014-6-17T17:39:22Z</time></trkpt>
<trkpt lat="7535.30733333333" lon="739.914666666667"><ele></ele><time>2014-6-17T17:39:25Z</time></trkpt>
<trkpt lat="7535.30733333333" lon="739.914666666667"><ele></ele><time>2014-6-17T17:39:28Z</time></trkpt>
<trkpt lat="7535.30733333333" lon="739.914666666667"><ele></ele><time>2014-6-17T17:39:31Z</time></trkpt>
<trkpt lat="7535.30733333333" lon="739.914666666667"><ele></ele><time>2014-6-17T17:39:34Z</time></trkpt>
<trkpt lat="7535.30733333333" lon="739.914666666667"><ele></ele><time>2014-6-17T17:39:37Z</time></trkpt>
<trkpt lat="7535.30733333333" lon="739.914666666667"><ele></ele><time>2014-6-17T17:39:40Z</time></trkpt>
<trkpt lat="7535.30733333333" lon="739.914666666667"><ele></ele><time>2014-6-17T17:39:43Z</time></trkpt>
<trkpt lat="7535.30733333333" lon="739.914666666667"><ele></ele><time>2014-6-17T17:39:46Z</time></trkpt>
<trkpt lat="7535.30733333333" lon="739.914666666667"><ele></ele><time>2014-6-17T17:39:49Z</time></trkpt>
<trkpt lat="7535.30733333333" lon="739.914666666667"><ele></ele><time>2014-6-17T17:39:52Z</time></trkpt>
<trkpt lat="7535.30733333333" lon="739.914666666667"><ele></ele><time>2014-6-17T17:39:55Z</time></trkpt>
<trkpt lat="7535.30733333333" lon="739.914666666667"><ele></ele><time>2014-6-17T17:39:58Z</time></trkpt>
<trkpt lat="7535.30733333333" lon="739.914666666667"><ele></ele><time>2014-6-17T17:40:1Z</time></trkpt>
<trkpt lat="7535.30733333333" lon="739.914666666667"><ele></ele><time>2014-6-17T17:40:4Z</time></trkpt>
<trkpt lat="7535.30733333333" lon="739.914666666667"><ele></ele><time>2014-6-17T17:40:7Z</time></trkpt>
<trkpt lat="7535.30733333333" lon="739.914666666667"><ele></ele><time>2014-6-17T17:40:10Z</time></trkpt>
<trkpt lat="7535.30733333333" lon="739.914666666667"><ele></ele><time>2014-6-17T17:40:13Z</time></trkpt>
<trkpt lat="7535.30733333333" lon="739.914666666667"><ele></ele><time>2014-6-17T17:40:16Z</time></trkpt>
<trkpt lat="7535.30733333333" lon="739.914666666667"><ele></ele><time>2014-6-17T17:40:19Z</time></trkpt>
<trkpt lat="7535.30733333333" lon="739.914666666667"><ele></ele><time>2014-6-17T17:40:22Z</time></trkpt>
<trkpt lat="7535.30733333333" lon="739.914666666667"><ele></ele><time>2014-6-17T17:40:25Z</time></trkpt>
<trkpt lat="7535.30733333333" lon="739.914666666667"><ele></ele><time>2014-6-17T17:40:28Z</time></trkpt>
<trkpt lat="7535.30733333333" lon="739.914666666667"><ele></ele><time>2014-6-17T17:40:31Z</time></trkpt>
<trkpt lat="7535.30833333333" lon="739.914333333333"><ele></ele><time>2014-6-17T17:40:34Z</time></trkpt>
<trkpt lat="7535.3095" lon="739.914"><ele></ele><time>2014-6-17T17:40:37Z</time></trkpt>
<trkpt lat="7535.31183333333" lon="739.9125"><ele></ele><time>2014-6-17T17:40:40Z</time></trkpt>
<trkpt lat="7535.31366666667" lon="739.912"><ele></ele><time>2014-6-17T17:40:43Z</time></trkpt>
<trkpt lat="7535.31583333333" lon="739.912666666667"><ele></ele><time>2014-6-17T17:40:46Z</time></trkpt>
<trkpt lat="7535.31883333333" lon="739.913333333333"><ele></ele><time>2014-6-17T17:40:49Z</time></trkpt>
<trkpt lat="7535.32216666667" lon="739.9135"><ele></ele><time>2014-6-17T17:40:52Z</time></trkpt>
<trkpt lat="7535.326" lon="739.914666666667"><ele></ele><time>2014-6-17T17:40:55Z</time></trkpt>
<trkpt lat="7535.32966666667" lon="739.916333333333"><ele></ele><time>2014-6-17T17:40:58Z</time></trkpt>
<trkpt lat="7535.3345" lon="739.922833333333"><ele></ele><time>2014-6-17T17:41:1Z</time></trkpt>
<trkpt lat="7535.33866666667" lon="739.927166666667"><ele></ele><time>2014-6-17T17:41:4Z</time></trkpt>
<trkpt lat="7535.34266666667" lon="739.930166666667"><ele></ele><time>2014-6-17T17:41:7Z</time></trkpt>
<trkpt lat="7535.34616666667" lon="739.9335"><ele></ele><time>2014-6-17T17:41:10Z</time></trkpt>
<trkpt lat="7535.34933333333" lon="739.936833333333"><ele></ele><time>2014-6-17T17:41:13Z</time></trkpt>
<trkpt lat="7535.3525" lon="739.9415"><ele></ele><time>2014-6-17T17:41:16Z</time></trkpt>
<trkpt lat="7535.35566666667" lon="739.944833333333"><ele></ele><time>2014-6-17T17:41:19Z</time></trkpt>
<trkpt lat="7535.35916666667" lon="739.946666666667"><ele></ele><time>2014-6-17T17:41:22Z</time></trkpt>
<trkpt lat="7535.36283333333" lon="739.949166666667"><ele></ele><time>2014-6-17T17:41:25Z</time></trkpt>
<trkpt lat="7535.36633333333" lon="739.951833333333"><ele></ele><time>2014-6-17T17:41:28Z</time></trkpt>
<trkpt lat="7535.37033333333" lon="739.954666666667"><ele></ele><time>2014-6-17T17:41:31Z</time></trkpt>
<trkpt lat="7535.3745" lon="739.957833333333"><ele></ele><time>2014-6-17T17:41:34Z</time></trkpt>
<trkpt lat="7535.37833333333" lon="739.9595"><ele></ele><time>2014-6-17T17:41:37Z</time></trkpt>
<trkpt lat="7535.3815" lon="739.962166666667"><ele></ele><time>2014-6-17T17:41:40Z</time></trkpt>
<trkpt lat="7535.385" lon="739.965333333333"><ele></ele><time>2014-6-17T17:41:43Z</time></trkpt>
<trkpt lat="7535.38766666667" lon="739.968333333333"><ele></ele><time>2014-6-17T17:41:46Z</time></trkpt>
<trkpt lat="7535.38933333333" lon="739.971166666667"><ele></ele><time>2014-6-17T17:41:49Z</time></trkpt>
<trkpt lat="7535.39033333333" lon="739.973833333333"><ele></ele><time>2014-6-17T17:41:52Z</time></trkpt>
<trkpt lat="7535.39033333333" lon="739.975666666667"><ele></ele><time>2014-6-17T17:41:55Z</time></trkpt>
<trkpt lat="7535.391" lon="739.977166666667"><ele></ele><time>2014-6-17T17:41:58Z</time></trkpt>
<trkpt lat="7535.3915" lon="739.9785"><ele></ele><time>2014-6-17T17:42:1Z</time></trkpt>
<trkpt lat="7535.3915" lon="739.9785"><ele></ele><time>2014-6-17T17:42:4Z</time></trkpt>
<trkpt lat="7535.3915" lon="739.9785"><ele></ele><time>2014-6-17T17:42:7Z</time></trkpt>
<trkpt lat="7535.3915" lon="739.9785"><ele></ele><time>2014-6-17T17:42:10Z</time></trkpt>
<trkpt lat="7535.3915" lon="739.9785"><ele></ele><time>2014-6-17T17:42:13Z</time></trkpt>
<trkpt lat="7535.3915" lon="739.9785"><ele></ele><time>2014-6-17T17:42:16Z</time></trkpt>
<trkpt lat="7535.3915" lon="739.9785"><ele></ele><time>2014-6-17T17:42:19Z</time></trkpt>
<trkpt lat="7535.3915" lon="739.9785"><ele></ele><time>2014-6-17T17:42:22Z</time></trkpt>
<trkpt lat="7535.3915" lon="739.9785"><ele></ele><time>2014-6-17T17:42:25Z</time></trkpt>
<trkpt lat="7535.3915" lon="739.9785"><ele></ele><time>2014-6-17T17:42:28Z</time></trkpt>
<trkpt lat="7535.3915" lon="739.9785"><ele></ele><time>2014-6-17T17:42:31Z</time></trkpt>
<trkpt lat="7535.3915" lon="739.9785"><ele></ele><time>2014-6-17T17:42:34Z</time></trkpt>
<trkpt lat="7535.3915" lon="739.9785"><ele></ele><time>2014-6-17T17:42:37Z</time></trkpt>
<trkpt lat="7535.3915" lon="739.9785"><ele></ele><time>2014-6-17T17:42:40Z</time></trkpt>
<trkpt lat="7535.3915" lon="739.9785"><ele></ele><time>2014-6-17T17:42:43Z</time></trkpt>
<trkpt lat="7535.3915" lon="739.9785"><ele></ele><time>2014-6-17T17:42:46Z</time></trkpt>
<trkpt lat="7535.3915" lon="739.9785"><ele></ele><time>2014-6-17T17:42:49Z</time></trkpt>
<trkpt lat="7535.3915" lon="739.9785"><ele></ele><time>2014-6-17T17:42:52Z</time></trkpt>
<trkpt lat="7535.3915" lon="739.9785"><ele></ele><time>2014-6-17T17:42:55Z</time></trkpt>
<trkpt lat="7535.3915" lon="739.9785"><ele></ele><time>2014-6-17T17:42:58Z</time></trkpt>
<trkpt lat="7535.3915" lon="739.9785"><ele></ele><time>2014-6-17T17:43:1Z</time></trkpt>
<trkpt lat="7535.3915" lon="739.9785"><ele></ele><time>2014-6-17T17:43:4Z</time></trkpt>
<trkpt lat="7535.3915" lon="739.9785"><ele></ele><time>2014-6-17T17:43:7Z</time></trkpt>
<trkpt lat="7535.3915" lon="739.9785"><ele></ele><time>2014-6-17T17:43:10Z</time></trkpt>
<trkpt lat="7535.3915" lon="739.9785"><ele></ele><time>2014-6-17T17:43:13Z</time></trkpt>
<trkpt lat="7535.3915" lon="739.9785"><ele></ele><time>2014-6-17T17:43:16Z</time></trkpt>
<trkpt lat="7535.3915" lon="739.9785"><ele></ele><time>2014-6-17T17:43:19Z</time></trkpt>
<trkpt lat="7535.3915" lon="739.9785"><ele></ele><time>2014-6-17T17:43:22Z</time></trkpt>
<trkpt lat="7535.3915" lon="739.9785"><ele></ele><time>2014-6-17T17:43:25Z</time></trkpt>
<trkpt lat="7535.3915" lon="739.9785"><ele></ele><time>2014-6-17T17:43:28Z</time></trkpt>
<trkpt lat="7535.3915" lon="739.9785"><ele></ele><time>2014-6-17T17:43:31Z</time></trkpt>
<trkpt lat="7535.3915" lon="739.9785"><ele></ele><time>2014-6-17T17:43:34Z</time></trkpt>
<trkpt lat="7535.3915" lon="739.9785"><ele></ele><time>2014-6-17T17:43:37Z</time></trkpt>
<trkpt lat="7535.39166666667" lon="739.976666666667"><ele></ele><time>2014-6-17T17:43:40Z</time></trkpt>
<trkpt lat="7535.39233333333" lon="739.976"><ele></ele><time>2014-6-17T17:43:43Z</time></trkpt>
<trkpt lat="7535.39416666667" lon="739.9765"><ele></ele><time>2014-6-17T17:43:46Z</time></trkpt>
<trkpt lat="7535.39683333333" lon="739.976833333333"><ele></ele><time>2014-6-17T17:43:49Z</time></trkpt>
<trkpt lat="7535.39933333333" lon="739.978333333333"><ele></ele><time>2014-6-17T17:43:52Z</time></trkpt>
<trkpt lat="7535.4015" lon="739.981"><ele></ele><time>2014-6-17T17:43:55Z</time></trkpt>
<trkpt lat="7535.40433333333" lon="739.983833333333"><ele></ele><time>2014-6-17T17:43:58Z</time></trkpt>
<trkpt lat="7535.40716666667" lon="739.986666666667"><ele></ele><time>2014-6-17T17:44:1Z</time></trkpt>
<trkpt lat="7535.41" lon="739.989666666667"><ele></ele><time>2014-6-17T17:44:4Z</time></trkpt>
<trkpt lat="7535.41266666667" lon="739.993"><ele></ele><time>2014-6-17T17:44:7Z</time></trkpt>
<trkpt lat="7535.41583333333" lon="739.995"><ele></ele><time>2014-6-17T17:44:10Z</time></trkpt>
<trkpt lat="7535.4195" lon="739.998"><ele></ele><time>2014-6-17T17:44:13Z</time></trkpt>
<trkpt lat="7535.42316666667" lon="740.002"><ele></ele><time>2014-6-17T17:44:16Z</time></trkpt>
<trkpt lat="7535.427" lon="740.005833333333"><ele></ele><time>2014-6-17T17:44:19Z</time></trkpt>
<trkpt lat="7535.43116666667" lon="740.0095"><ele></ele><time>2014-6-17T17:44:22Z</time></trkpt>
<trkpt lat="7535.4355" lon="740.012666666667"><ele></ele><time>2014-6-17T17:44:25Z</time></trkpt>
<trkpt lat="7535.43983333333" lon="740.016166666667"><ele></ele><time>2014-6-17T17:44:28Z</time></trkpt>
<trkpt lat="7535.444" lon="740.018833333333"><ele></ele><time>2014-6-17T17:44:31Z</time></trkpt>
<trkpt lat="7535.448" lon="740.022333333333"><ele></ele><time>2014-6-17T17:44:34Z</time></trkpt>
<trkpt lat="7535.45233333333" lon="740.024666666667"><ele></ele><time>2014-6-17T17:44:37Z</time></trkpt>
<trkpt lat="7535.4565" lon="740.028166666667"><ele></ele><time>2014-6-17T17:44:40Z</time></trkpt>
<trkpt lat="7535.461" lon="740.031833333333"><ele></ele><time>2014-6-17T17:44:43Z</time></trkpt>
<trkpt lat="7535.4655" lon="740.035666666667"><ele></ele><time>2014-6-17T17:44:46Z</time></trkpt>
<trkpt lat="7535.46916666667" lon="740.039166666667"><ele></ele><time>2014-6-17T17:44:49Z</time></trkpt>
<trkpt lat="7535.473" lon="740.043166666667"><ele></ele><time>2014-6-17T17:44:52Z</time></trkpt>
<trkpt lat="7535.47733333333" lon="740.047"><ele></ele><time>2014-6-17T17:44:55Z</time></trkpt>
<trkpt lat="7535.48133333333" lon="740.050833333333"><ele></ele><time>2014-6-17T17:44:58Z</time></trkpt>
<trkpt lat="7535.4845" lon="740.054833333333"><ele></ele><time>2014-6-17T17:45:1Z</time></trkpt>
<trkpt lat="7535.488" lon="740.058833333333"><ele></ele><time>2014-6-17T17:45:4Z</time></trkpt>
<trkpt lat="7535.491" lon="740.062166666667"><ele></ele><time>2014-6-17T17:45:7Z</time></trkpt>
<trkpt lat="7535.4945" lon="740.065666666667"><ele></ele><time>2014-6-17T17:45:10Z</time></trkpt>
<trkpt lat="7535.498" lon="740.069"><ele></ele><time>2014-6-17T17:45:13Z</time></trkpt>
<trkpt lat="7535.502" lon="740.073"><ele></ele><time>2014-6-17T17:45:16Z</time></trkpt>
<trkpt lat="7535.50566666667" lon="740.075666666667"><ele></ele><time>2014-6-17T17:45:19Z</time></trkpt>
<trkpt lat="7535.5095" lon="740.078833333333"><ele></ele><time>2014-6-17T17:45:22Z</time></trkpt>
<trkpt lat="7535.5135" lon="740.082833333333"><ele></ele><time>2014-6-17T17:45:25Z</time></trkpt>
<trkpt lat="7535.51733333333" lon="740.0865"><ele></ele><time>2014-6-17T17:45:28Z</time></trkpt>
<trkpt lat="7535.52116666667" lon="740.089833333333"><ele></ele><time>2014-6-17T17:45:31Z</time></trkpt>
<trkpt lat="7535.525" lon="740.093833333333"><ele></ele><time>2014-6-17T17:45:34Z</time></trkpt>
<trkpt lat="7535.52866666667" lon="740.098333333333"><ele></ele><time>2014-6-17T17:45:37Z</time></trkpt>
<trkpt lat="7535.532" lon="740.101"><ele></ele><time>2014-6-17T17:45:40Z</time></trkpt>
<trkpt lat="7535.53533333333" lon="740.102666666667"><ele></ele><time>2014-6-17T17:45:43Z</time></trkpt>
<trkpt lat="7535.5375" lon="740.106333333333"><ele></ele><time>2014-6-17T17:45:46Z</time></trkpt>
<trkpt lat="7535.541" lon="740.107666666667"><ele></ele><time>2014-6-17T17:45:49Z</time></trkpt>
<trkpt lat="7535.54483333333" lon="740.108666666667"><ele></ele><time>2014-6-17T17:45:52Z</time></trkpt>
<trkpt lat="7535.54833333333" lon="740.108333333333"><ele></ele><time>2014-6-17T17:45:55Z</time></trkpt>
<trkpt lat="7535.55083333333" lon="740.105"><ele></ele><time>2014-6-17T17:45:58Z</time></trkpt>
<trkpt lat="7535.55566666667" lon="740.104166666667"><ele></ele><time>2014-6-17T17:46:1Z</time></trkpt>
<trkpt lat="7535.5615" lon="740.1035"><ele></ele><time>2014-6-17T17:46:4Z</time></trkpt>
<trkpt lat="7535.56783333333" lon="740.101333333333"><ele></ele><time>2014-6-17T17:46:7Z</time></trkpt>
<trkpt lat="7535.574" lon="740.099166666667"><ele></ele><time>2014-6-17T17:46:10Z</time></trkpt>
<trkpt lat="7535.58116666667" lon="740.096666666667"><ele></ele><time>2014-6-17T17:46:13Z</time></trkpt>
<trkpt lat="7535.58766666667" lon="740.093833333333"><ele></ele><time>2014-6-17T17:46:16Z</time></trkpt>
<trkpt lat="7535.594" lon="740.0905"><ele></ele><time>2014-6-17T17:46:19Z</time></trkpt>
<trkpt lat="7535.6" lon="740.087333333333"><ele></ele><time>2014-6-17T17:46:22Z</time></trkpt>
<trkpt lat="7535.60566666667" lon="740.083166666667"><ele></ele><time>2014-6-17T17:46:25Z</time></trkpt>
<trkpt lat="7535.61133333333" lon="740.079833333333"><ele></ele><time>2014-6-17T17:46:28Z</time></trkpt>
<trkpt lat="7535.6165" lon="740.075833333333"><ele></ele><time>2014-6-17T17:46:31Z</time></trkpt>
<trkpt lat="7535.62166666667" lon="740.071833333333"><ele></ele><time>2014-6-17T17:46:34Z</time></trkpt>
<trkpt lat="7535.6275" lon="740.0675"><ele></ele><time>2014-6-17T17:46:37Z</time></trkpt>
<trkpt lat="7535.63266666667" lon="740.0635"><ele></ele><time>2014-6-17T17:46:40Z</time></trkpt>
<trkpt lat="7535.63766666667" lon="740.059333333333"><ele></ele><time>2014-6-17T17:46:43Z</time></trkpt>
<trkpt lat="7535.642" lon="740.055666666667"><ele></ele><time>2014-6-17T17:46:46Z</time></trkpt>
<trkpt lat="7535.64566666667" lon="740.051833333333"><ele></ele><time>2014-6-17T17:46:49Z</time></trkpt>
<trkpt lat="7535.649" lon="740.049333333333"><ele></ele><time>2014-6-17T17:46:52Z</time></trkpt>
<trkpt lat="7535.65183333333" lon="740.0475"><ele></ele><time>2014-6-17T17:46:55Z</time></trkpt>
<trkpt lat="7535.655" lon="740.046666666667"><ele></ele><time>2014-6-17T17:46:58Z</time></trkpt>
<trkpt lat="7535.65833333333" lon="740.0485"><ele></ele><time>2014-6-17T17:47:1Z</time></trkpt>
<trkpt lat="7535.66216666667" lon="740.051"><ele></ele><time>2014-6-17T17:47:4Z</time></trkpt>
<trkpt lat="7535.6665" lon="740.055333333333"><ele></ele><time>2014-6-17T17:47:7Z</time></trkpt>
<trkpt lat="7535.67133333333" lon="740.0605"><ele></ele><time>2014-6-17T17:47:10Z</time></trkpt>
<trkpt lat="7535.67616666667" lon="740.070333333333"><ele></ele><time>2014-6-17T17:47:13Z</time></trkpt>
<trkpt lat="7535.68083333333" lon="740.0775"><ele></ele><time>2014-6-17T17:47:16Z</time></trkpt>
<trkpt lat="7535.6855" lon="740.084833333333"><ele></ele><time>2014-6-17T17:47:19Z</time></trkpt>
<trkpt lat="7535.69016666667" lon="740.092833333333"><ele></ele><time>2014-6-17T17:47:22Z</time></trkpt>
<trkpt lat="7535.69466666667" lon="740.099833333333"><ele></ele><time>2014-6-17T17:47:25Z</time></trkpt>
<trkpt lat="7535.69916666667" lon="740.108166666667"><ele></ele><time>2014-6-17T17:47:28Z</time></trkpt>
<trkpt lat="7535.70366666667" lon="740.1155"><ele></ele><time>2014-6-17T17:47:31Z</time></trkpt>
<trkpt lat="7535.70816666667" lon="740.123666666667"><ele></ele><time>2014-6-17T17:47:34Z</time></trkpt>
<trkpt lat="7535.71266666667" lon="740.131666666667"><ele></ele><time>2014-6-17T17:47:37Z</time></trkpt>
<trkpt lat="7535.71683333333" lon="740.139833333333"><ele></ele><time>2014-6-17T17:47:40Z</time></trkpt>
<trkpt lat="7535.72066666667" lon="740.147333333333"><ele></ele><time>2014-6-17T17:47:43Z</time></trkpt>
<trkpt lat="7535.72366666667" lon="740.154333333333"><ele></ele><time>2014-6-17T17:47:46Z</time></trkpt>
<trkpt lat="7535.72633333333" lon="740.161666666667"><ele></ele><time>2014-6-17T17:47:49Z</time></trkpt>
<trkpt lat="7535.72883333333" lon="740.169"><ele></ele><time>2014-6-17T17:47:52Z</time></trkpt>
<trkpt lat="7535.7315" lon="740.176333333333"><ele></ele><time>2014-6-17T17:47:55Z</time></trkpt>
<trkpt lat="7535.73383333333" lon="740.184"><ele></ele><time>2014-6-17T17:47:58Z</time></trkpt>
<trkpt lat="7535.736" lon="740.191333333333"><ele></ele><time>2014-6-17T17:48:1Z</time></trkpt>
<trkpt lat="7535.73866666667" lon="740.1965"><ele></ele><time>2014-6-17T17:48:4Z</time></trkpt>
<trkpt lat="7535.74166666667" lon="740.199166666667"><ele></ele><time>2014-6-17T17:48:7Z</time></trkpt>
<trkpt lat="7535.7455" lon="740.199333333333"><ele></ele><time>2014-6-17T17:48:10Z</time></trkpt>
<trkpt lat="7535.749" lon="740.1975"><ele></ele><time>2014-6-17T17:48:13Z</time></trkpt>
<trkpt lat="7535.75283333333" lon="740.195833333333"><ele></ele><time>2014-6-17T17:48:16Z</time></trkpt>
<trkpt lat="7535.7565" lon="740.193833333333"><ele></ele><time>2014-6-17T17:48:19Z</time></trkpt>
<trkpt lat="7535.76066666667" lon="740.191"><ele></ele><time>2014-6-17T17:48:22Z</time></trkpt>
<trkpt lat="7535.76516666667" lon="740.188166666667"><ele></ele><time>2014-6-17T17:48:25Z</time></trkpt>
<trkpt lat="7535.76816666667" lon="740.183666666667"><ele></ele><time>2014-6-17T17:48:28Z</time></trkpt>
<trkpt lat="7535.76966666667" lon="740.179166666667"><ele></ele><time>2014-6-17T17:48:31Z</time></trkpt>
<trkpt lat="7535.76966666667" lon="740.174"><ele></ele><time>2014-6-17T17:48:34Z</time></trkpt>
<trkpt lat="7535.76816666667" lon="740.1705"><ele></ele><time>2014-6-17T17:48:37Z</time></trkpt>
<trkpt lat="7535.766" lon="740.169833333333"><ele></ele><time>2014-6-17T17:48:40Z</time></trkpt>
<trkpt lat="7535.763" lon="740.1725"><ele></ele><time>2014-6-17T17:48:43Z</time></trkpt>
<trkpt lat="7535.75966666667" lon="740.175666666667"><ele></ele><time>2014-6-17T17:48:46Z</time></trkpt>
<trkpt lat="7535.7555" lon="740.177666666667"><ele></ele><time>2014-6-17T17:48:49Z</time></trkpt>
<trkpt lat="7535.75166666667" lon="740.179666666667"><ele></ele><time>2014-6-17T17:48:52Z</time></trkpt>
<trkpt lat="7535.7465" lon="740.181"><ele></ele><time>2014-6-17T17:48:55Z</time></trkpt>
<trkpt lat="7535.7425" lon="740.177333333333"><ele></ele><time>2014-6-17T17:48:58Z</time></trkpt>
<trkpt lat="7535.7405" lon="740.171666666667"><ele></ele><time>2014-6-17T17:49:1Z</time></trkpt>
<trkpt lat="7535.73966666667" lon="740.163333333333"><ele></ele><time>2014-6-17T17:49:4Z</time></trkpt>
<trkpt lat="7535.739" lon="740.155833333333"><ele></ele><time>2014-6-17T17:49:7Z</time></trkpt>
<trkpt lat="7535.73866666667" lon="740.149666666667"><ele></ele><time>2014-6-17T17:49:10Z</time></trkpt>
<trkpt lat="7535.74" lon="740.143666666667"><ele></ele><time>2014-6-17T17:49:13Z</time></trkpt>
<trkpt lat="7535.7425" lon="740.137333333333"><ele></ele><time>2014-6-17T17:49:16Z</time></trkpt>
<trkpt lat="7535.746" lon="740.132833333333"><ele></ele><time>2014-6-17T17:49:19Z</time></trkpt>
<trkpt lat="7535.75" lon="740.129166666667"><ele></ele><time>2014-6-17T17:49:22Z</time></trkpt>
<trkpt lat="7535.75533333333" lon="740.128"><ele></ele><time>2014-6-17T17:49:25Z</time></trkpt>
<trkpt lat="7535.76083333333" lon="740.127"><ele></ele><time>2014-6-17T17:49:28Z</time></trkpt>
<trkpt lat="7535.7655" lon="740.126166666667"><ele></ele><time>2014-6-17T17:49:31Z</time></trkpt>
<trkpt lat="7535.76983333333" lon="740.1235"><ele></ele><time>2014-6-17T17:49:34Z</time></trkpt>
<trkpt lat="7535.774" lon="740.122666666667"><ele></ele><time>2014-6-17T17:49:37Z</time></trkpt>
<trkpt lat="7535.7775" lon="740.120333333333"><ele></ele><time>2014-6-17T17:49:40Z</time></trkpt>
<trkpt lat="7535.78133333333" lon="740.1195"><ele></ele><time>2014-6-17T17:49:43Z</time></trkpt>
<trkpt lat="7535.78483333333" lon="740.119"><ele></ele><time>2014-6-17T17:49:46Z</time></trkpt>
<trkpt lat="7535.78766666667" lon="740.118666666667"><ele></ele><time>2014-6-17T17:49:49Z</time></trkpt>
<trkpt lat="7535.78966666667" lon="740.118"><ele></ele><time>2014-6-17T17:49:52Z</time></trkpt>
<trkpt lat="7535.791" lon="740.117666666667"><ele></ele><time>2014-6-17T17:49:55Z</time></trkpt>
<trkpt lat="7535.792" lon="740.117666666667"><ele></ele><time>2014-6-17T17:49:58Z</time></trkpt>
<trkpt lat="7535.792" lon="740.117666666667"><ele></ele><time>2014-6-17T17:50:1Z</time></trkpt>
<trkpt lat="7535.792" lon="740.117666666667"><ele></ele><time>2014-6-17T17:50:4Z</time></trkpt>
<trkpt lat="7535.792" lon="740.117666666667"><ele></ele><time>2014-6-17T17:50:7Z</time></trkpt>
<trkpt lat="7535.792" lon="740.117666666667"><ele></ele><time>2014-6-17T17:50:10Z</time></trkpt>
<trkpt lat="7535.792" lon="740.117666666667"><ele></ele><time>2014-6-17T17:50:13Z</time></trkpt>
</trkseg></trk></gpx>